GFSSW_700_rhum_000.txt.gz
RH
24 29 30 28 21 12 12 15 12 11 9 12 22 14 2 9 13 17 17 12 12 14 9 7 9 11 4 8 14 15 23 31 42 43 42 46 46 50 45 41 47 40 37 14 17
26 30 28 23 12 13 16 17 14 12 10 7 8 4 10 8 9 11 12 10 14 11 5 6 8 4 4 16 19 20 20 34 37 37 36 36 32 42 48 47 40 37 36 28 16
26 28 25 14 13 16 18 17 14 12 10 4 4 10 9 17 14 14 9 16 6 6 18 20 13 6 8 18 20 20 15 29 25 27 29 27 40 41 36 37 23 21 38 30 17
28 26 17 13 16 18 18 16 14 12 8 4 8 10 20 19 31 24 16 13 14 21 22 22 19 14 13 16 19 20 17 16 30 33 30 32 26 17 19 23 19 18 18 12 14
27 22 13 16 17 19 18 16 13 11 6 8 10 22 29 24 28 26 14 19 22 23 24 27 32 25 18 18 19 18 13 11 26 29 28 24 13 15 18 22 18 20 25 35 33
25 14 16 17 19 20 18 15 13 12 7 11 18 32 32 33 35 27 24 22 21 26 27 26 26 26 17 18 20 17 15 12 24 26 9 11 12 12 15 15 18 23 26 39 43
16 15 17 20 22 21 18 15 13 9 11 12 27 39 32 36 34 29 30 30 30 25 23 24 22 20 20 18 18 12 11 11 10 13 12 11 12 13 15 16 19 24 30 38 51
15 16 17 22 21 20 18 16 11 10 9 23 39 42 35 36 33 29 29 28 28 23 20 20 20 19 17 14 12 13 8 10 15 13 11 11 14 15 19 18 22 26 28 36 48
18 16 20 21 21 19 16 13 9 9 19 28 42 41 37 29 30 28 28 25 26 24 18 19 18 14 16 13 14 13 18 13 12 12 13 14 24 17 20 20 21 26 26 34 40
17 17 21 21 16 13 11 9 13 21 23 24 38 34 34 29 24 26 25 24 21 19 17 20 16 15 17 14 15 15 14 19 20 23 24 24 21 23 22 23 22 26 26 29 36
18 19 20 16 13 10 14 24 27 26 22 29 32 37 25 28 18 24 22 20 22 15 14 16 18 18 19 17 16 18 15 17 18 20 21 23 26 25 23 24 23 26 28 30 36
19 19 17 12 15 27 35 31 25 25 24 27 31 31 27 28 16 22 20 15 11 12 14 18 22 22 23 23 22 21 21 24 25 21 21 25 25 26 23 23 25 26 27 29 30
19 17 14 20 36 46 35 26 24 21 24 28 29 34 36 32 15 17 17 18 15 10 10 20 25 25 26 25 23 20 26 25 23 26 30 31 35 32 27 29 32 38 40 41 48
18 16 25 47 59 73 36 34 46 41 38 35 33 38 35 26 22 19 23 27 26 27 26 24 22 28 25 24 26 25 29 28 24 24 38 34 61 65 50 49 53 54 59 62 53
18 29 45 54 81 68 37 44 43 38 46 32 33 36 37 28 27 33 32 30 26 26 23 26 25 22 21 23 23 31 32 31 31 30 34 38 42 60 69 65 63 63 66 61 43
28 41 57 78 74 65 41 43 40 42 36 29 30 36 37 26 22 30 31 30 29 30 29 25 26 27 31 31 30 33 35 35 32 33 44 39 39 55 50 44 56 55 51 50 50
37 52 56 78 70 59 41 43 45 46 28 33 27 34 37 32 19 28 32 28 30 31 35 35 34 31 35 30 31 34 35 45 53 64 67 49 47 37 40 47 53 48 52 54 50
50 53 52 71 64 51 43 43 41 47 29 27 25 28 39 32 26 29 36 34 32 28 33 32 38 36 42 40 36 36 39 40 57 78 58 53 54 47 42 49 54 54 59 57 55
57 54 48 64 62 54 42 41 47 37 34 24 27 37 40 36 29 34 40 40 38 36 36 42 36 29 44 44 37 28 26 39 42 53 53 54 54 50 49 55 54 58 56 57 58
58 53 44 55 60 54 41 38 52 38 34 28 32 37 41 42 39 40 34 35 40 43 41 41 31 28 42 40 40 29 32 26 31 54 64 60 59 48 49 51 57 57 57 60 61
55 54 45 44 55 48 39 35 48 41 32 36 35 37 37 43 42 44 42 40 35 38 44 42 29 38 41 38 35 33 22 18 22 39 62 81 54 46 48 46 51 54 60 60 60
47 50 44 34 39 44 36 36 52 44 33 35 38 38 40 38 43 45 44 40 33 39 44 42 27 46 43 42 39 38 26 23 18 33 42 49 34 39 48 55 58 60 60 58 56
40 42 42 38 32 33 33 53 55 46 41 36 37 37 37 38 42 45 43 43 39 28 33 41 38 42 37 32 27 28 29 28 26 26 37 57 26 29 29 40 54 58 57 56 57
45 43 39 37 29 27 30 56 61 53 41 41 37 36 41 43 37 38 43 46 47 30 26 43 31 29 22 23 24 26 26 26 37 36 33 30 26 32 40 44 49 53 54 57 64
45 45 36 33 29 25 27 52 58 55 43 42 44 39 46 43 44 46 46 48 44 34 27 41 32 33 23 22 23 22 21 28 36 35 40 29 32 35 44 48 52 55 60 65 71
42 45 33 25 23 23 25 46 55 54 49 43 50 42 46 48 49 49 48 50 43 25 17 29 26 21 28 26 25 23 23 22 24 26 31 33 25 29 41 46 48 50 59 68 76
39 32 37 23 22 23 23 45 58 57 54 44 44 32 34 46 52 50 45 44 32 22 11 21 23 20 23 19 22 21 12 12 13 16 19 25 21 30 33 44 51 55 60 70 77

GFSSW_700_rhum_003.txt.gz
RH
18 19 20 25 28 27 21 12 13 16 12 10 11 22 18 3 9 14 17 17 15 13 10 9 10 11 10 7 9 23 21 35 40 39 52 54 49 45 54 48 56 51 37 19 28
18 19 20 26 26 24 13 13 17 16 12 10 8 10 5 9 9 11 14 14 11 14 10 7 9 9 6 8 17 18 22 35 40 38 41 32 41 40 53 47 49 43 38 26 25
20 20 22 26 27 17 12 16 17 14 12 9 4 3 10 13 18 13 8 11 16 11 6 13 13 7 5 15 20 19 15 38 30 28 31 32 26 34 46 41 16 28 30 21 16
18 21 25 26 22 13 15 18 17 13 11 7 2 10 15 17 28 22 14 17 5 15 18 21 13 5 8 18 20 20 18 28 29 27 35 31 32 40 37 23 19 21 26 17 15
20 23 26 25 15 15 17 19 16 11 9 4 7 13 22 19 22 16 14 16 25 25 26 27 20 10 10 18 20 20 18 15 30 29 25 28 21 17 23 22 22 32 34 27 23
23 24 26 16 16 16 19 20 15 11 9 6 12 28 29 31 33 26 20 21 20 22 24 26 28 24 17 18 18 20 14 13 20 28 20 10 13 16 18 24 23 37 39 38 38
24 26 21 16 17 20 22 21 16 12 8 12 22 37 29 33 31 30 30 28 32 30 28 29 23 20 23 17 19 16 13 17 13 12 8 9 12 13 16 19 24 36 41 47 52
24 25 16 17 21 22 21 20 16 12 9 13 36 38 32 33 32 29 26 30 28 24 20 22 20 23 20 17 15 12 11 12 11 11 11 12 13 15 17 21 23 29 32 40 48
26 20 16 19 23 22 21 18 14 10 11 27 38 38 36 32 32 32 26 27 25 23 18 21 20 20 19 12 13 12 6 9 13 12 11 13 19 18 19 20 23 24 26 30 36
23 18 16 23 23 20 18 15 11 9 15 30 37 40 36 32 30 26 26 23 21 18 20 23 16 16 17 12 14 13 19 12 12 16 24 15 21 23 20 22 22 23 26 30 37
20 17 21 24 21 16 13 8 10 17 24 32 38 36 33 33 28 25 25 23 21 18 15 20 15 16 16 13 14 14 14 20 20 23 24 24 25 25 22 24 25 24 28 32 39
19 18 22 22 15 12 15 22 22 23 25 31 33 33 30 30 24 23 22 21 21 13 18 19 15 18 16 18 17 20 20 20 20 19 22 22 22 24 24 24 24 25 28 31 42
18 21 21 16 16 31 32 29 29 26 24 30 34 33 28 32 22 22 20 15 11 12 16 17 24 23 24 23 20 19 20 24 27 24 26 25 28 26 25 24 24 27 32 36 41
18 22 18 30 43 41 38 41 41 24 25 27 34 39 36 26 19 20 20 16 20 25 19 16 24 26 30 27 25 24 26 25 25 30 35 29 40 35 31 29 32 39 46 51 59
19 19 36 53 78 45 42 48 41 29 49 30 35 37 36 28 29 22 18 21 25 24 21 22 22 23 28 26 22 26 31 28 29 29 30 33 34 44 47 46 46 54 58 62 50
20 21 60 77 65 48 50 45 35 36 42 31 33 37 39 31 31 36 34 30 28 27 24 20 26 26 25 30 26 25 32 33 32 33 40 35 37 40 36 32 54 65 66 57 41
21 42 61 80 72 59 45 43 39 42 31 31 31 37 40 28 30 34 33 30 29 31 30 28 31 31 31 31 34 34 37 48 50 55 46 42 41 33 33 37 54 58 56 50 46
30 61 67 77 69 64 41 44 43 44 26 34 29 36 40 33 29 34 30 28 28 26 30 30 31 28 32 30 28 32 38 36 57 60 46 51 53 37 38 40 56 56 51 50 51
45 62 70 76 62 60 42 46 38 41 30 31 28 38 41 32 23 31 37 33 30 28 26 32 30 34 33 39 37 34 38 37 41 50 52 48 49 42 40 40 54 54 55 55 55
50 61 61 67 66 52 49 41 38 44 32 27 29 31 41 36 33 30 36 40 36 34 35 39 37 31 38 43 44 38 29 37 38 56 54 49 51 39 39 37 48 54 54 55 56
58 59 55 56 61 50 52 38 50 44 35 30 26 32 40 39 42 31 34 35 36 39 43 43 37 40 39 37 35 34 29 21 24 35 41 48 34 25 30 41 41 45 49 54 58
58 58 51 50 54 46 48 37 50 48 34 33 30 38 38 39 40 38 40 42 39 35 38 44 33 37 41 38 34 32 30 18 16 25 33 39 24 20 26 37 48 51 54 57 60
56 59 54 46 44 42 44 37 44 47 44 34 36 36 38 39 42 42 42 42 41 31 39 43 38 40 42 40 39 34 29 20 22 21 27 52 18 20 22 28 45 54 58 61 60
59 62 56 46 40 36 43 35 53 52 46 42 38 38 39 38 40 41 42 44 43 45 30 41 39 32 30 24 24 28 18 22 27 23 21 19 16 20 28 32 36 44 50 56 58
74 58 54 50 42 30 37 33 54 57 50 38 38 40 34 44 44 40 42 44 48 48 34 33 42 35 31 22 23 24 22 22 20 21 27 17 16 16 24 31 41 49 52 54 55
75 57 50 41 38 31 30 30 46 56 50 40 45 44 40 50 49 49 50 48 48 46 36 31 36 38 32 29 24 19 16 16 18 21 23 19 14 16 22 27 35 42 48 52 56
71 57 44 38 34 34 25 25 53 55 53 46 41 50 45 42 46 44 43 47 49 42 23 22 32 28 23 22 27 27 12 11 12 12 14 15 12 18 19 27 32 41 49 57 65

GFSSW_700_rhum_006.txt.gz
RH
15 15 17 18 18 21 24 24 17 11 16 12 9 10 21 16 7 11 14 11 12 20 17 12 10 13 13 12 9 10 17 19 33 40 62 64 61 58 50 52 52 57 52 34 47
9 15 16 17 18 21 24 22 12 14 16 10 9 8 13 9 12 11 14 16 18 16 11 10 10 11 11 10 6 27 21 26 34 42 45 38 46 49 45 57 55 60 47 28 54
10 10 14 17 19 23 24 14 13 16 14 11 9 5 6 11 13 12 11 11 11 15 14 8 13 10 28 18 18 27 22 29 38 41 31 35 36 45 60 68 52 46 41 26 31
10 12 14 19 21 23 19 13 14 17 14 11 7 3 11 14 36 25 14 17 9 7 6 8 11 10 26 26 26 23 20 33 30 26 28 37 30 48 53 39 19 20 23 26 30
13 14 15 20 21 22 13 13 16 16 12 10 4 9 16 25 21 15 14 11 21 24 25 24 15 12 23 30 22 22 21 29 27 26 36 38 46 51 23 22 23 17 22 26 29
16 15 18 21 23 16 13 14 19 15 12 8 6 16 25 30 34 25 18 24 22 20 20 20 25 20 27 28 25 20 18 19 29 27 25 32 20 32 24 33 32 26 25 27 31
17 17 20 22 21 13 14 18 21 16 11 7 12 26 22 33 33 29 28 25 29 31 34 28 23 29 26 21 18 19 15 16 28 26 18 18 18 19 25 33 42 37 38 42 43
18 18 21 22 14 13 18 22 21 16 12 9 18 34 30 29 30 27 25 24 25 26 26 30 25 24 22 19 19 17 15 15 21 18 9 12 16 16 22 28 43 43 47 49 49
20 20 23 20 13 16 20 21 19 15 10 12 28 37 36 30 30 26 24 26 25 22 20 23 24 22 21 19 18 15 13 14 12 10 12 16 17 16 20 23 34 42 43 46 52
22 22 23 15 14 20 22 20 17 12 11 17 32 35 35 31 31 30 25 24 23 20 25 22 25 23 21 19 17 16 13 13 14 13 17 22 19 18 19 21 25 28 35 40 45
24 26 20 14 19 21 20 16 12 10 11 27 37 35 34 31 30 28 25 23 20 19 21 23 19 20 21 16 17 16 18 16 21 15 24 19 21 22 20 20 22 24 29 36 40
26 25 16 16 22 17 14 10 14 15 24 32 40 36 33 32 28 26 24 24 21 20 18 23 23 17 18 14 14 18 16 25 20 23 26 28 24 24 23 22 23 25 28 32 36
27 22 17 20 19 13 23 22 24 24 28 36 35 33 31 31 27 25 23 22 21 15 24 20 22 17 16 16 19 23 24 22 25 22 28 40 35 25 24 24 24 24 26 26 28
27 20 19 20 16 32 38 35 32 27 36 34 34 34 30 34 29 23 22 21 19 17 26 23 24 24 24 24 25 25 24 25 26 32 25 28 24 50 25 24 24 24 26 31 34
25 20 22 16 47 44 41 46 32 27 37 32 35 37 38 26 24 17 22 19 25 20 18 20 25 27 31 26 26 32 24 28 33 32 32 34 28 47 35 28 25 27 32 38 44
25 21 19 42 54 62 50 45 44 41 34 32 34 37 37 30 26 19 20 18 23 26 24 19 21 26 24 24 20 24 23 31 35 36 30 30 32 27 51 44 40 36 44 46 52
26 22 24 80 75 58 52 44 42 38 33 33 33 37 36 32 35 35 27 29 30 33 34 33 34 30 27 29 32 33 34 29 29 34 32 38 37 25 38 28 47 35 46 52 53
27 24 56 76 78 53 55 48 36 29 36 33 33 37 37 29 31 40 35 35 32 31 33 27 34 35 32 37 35 40 35 28 33 38 23 48 30 25 28 30 41 47 56 56 47
24 36 77 81 70 71 54 56 35 38 39 35 32 35 42 34 34 39 38 39 31 27 26 30 34 29 28 38 35 32 37 40 40 44 43 29 35 33 35 36 52 71 61 55 48
24 55 80 80 76 70 55 50 40 45 30 34 30 33 37 39 32 35 37 34 31 29 26 27 38 31 30 36 38 37 33 38 41 45 39 27 36 29 39 39 44 68 56 54 52
32 66 80 76 69 62 60 49 38 45 29 31 34 36 37 43 37 33 32 29 33 32 34 39 36 43 34 42 38 42 38 31 36 36 29 24 16 18 26 36 38 42 52 54 54
43 66 79 75 71 62 55 48 39 46 36 31 30 31 36 38 37 42 34 31 30 35 40 40 41 48 43 35 38 38 38 31 25 31 40 53 20 15 14 22 39 51 51 54 56
49 81 72 75 74 62 52 40 39 50 40 34 25 38 35 38 43 40 37 39 42 39 36 36 44 46 44 41 39 41 32 27 18 18 37 56 18 14 16 16 28 46 57 51 54
55 75 68 74 65 56 51 45 41 48 51 36 36 35 35 38 39 41 43 40 40 41 35 40 43 43 38 32 33 41 25 25 27 34 28 31 18 23 16 19 16 28 44 53 56
71 84 76 71 61 53 47 35 43 50 48 46 39 37 35 38 37 42 41 40 43 42 46 35 45 41 37 31 24 22 30 24 24 24 31 19 25 23 28 24 22 26 33 43 54
86 80 75 58 53 46 42 40 41 57 51 44 43 33 39 39 45 42 40 42 45 46 48 44 36 32 39 36 30 24 21 24 21 30 16 24 13 25 16 18 16 23 35 44 49
92 72 65 49 51 43 36 43 36 56 53 45 40 39 50 42 51 49 48 46 45 47 46 43 32 35 43 34 35 38 22 20 14 12 12 28 25 21 16 18 20 26 31 37 47

GFSSW_700_rhum_009.txt.gz
RH
12 10 10 10 11 10 11 15 21 19 10 11 11 8 9 20 15 10 11 13 2 4 17 22 16 12 14 27 20 24 21 15 17 30 56 48 49 44 48 51 47 91 86 41 42
12 9 9 10 10 10 12 17 19 13 10 13 9 9 8 12 10 13 13 15 15 16 20 15 12 11 26 27 23 20 17 15 26 43 51 56 44 53 51 56 71 61 83 27 42
12 10 8 11 12 12 15 19 18 10 13 13 10 9 5 8 16 44 10 12 15 14 14 29 30 28 28 24 23 19 22 31 49 41 34 38 39 39 54 66 60 88 84 63 95
15 10 12 15 14 13 16 19 12 11 15 13 11 6 5 13 45 38 12 14 12 14 20 29 27 29 29 24 24 25 25 24 25 31 29 31 27 43 57 62 57 74 91 90 91
15 13 16 17 16 15 18 18 10 12 16 13 10 3 12 22 28 17 13 9 12 12 10 33 31 28 24 22 22 25 22 25 30 27 29 34 35 36 42 54 63 75 76 87 89
17 16 18 17 16 17 19 12 11 15 17 12 8 7 19 34 31 15 16 22 24 23 22 35 31 26 22 24 24 23 25 21 24 27 34 40 32 26 41 63 81 67 80 80 86
20 19 20 18 17 19 18 11 13 19 17 11 6 14 23 27 31 21 25 25 24 26 32 33 32 31 33 30 27 20 17 17 29 30 32 26 25 35 27 66 74 75 77 77 81
21 21 20 19 18 20 13 11 17 20 17 10 8 22 26 29 30 29 27 25 25 25 30 40 30 33 32 27 21 17 18 26 31 25 20 14 22 33 45 62 65 67 75 80 83
21 21 21 19 21 17 11 14 20 19 15 10 13 31 35 28 32 29 26 25 23 25 26 30 25 26 30 24 18 15 16 19 24 18 11 14 20 32 40 53 58 67 75 79 79
22 22 22 19 22 14 14 18 19 17 14 9 20 34 29 31 38 30 26 24 22 20 26 24 29 26 28 20 18 18 15 16 14 15 13 17 25 32 38 44 56 62 73 65 53
23 23 23 22 18 14 17 19 17 14 10 15 38 45 38 35 29 29 27 25 22 23 28 23 30 26 24 23 22 17 12 12 14 17 14 21 23 29 39 41 47 54 65 74 78
23 24 24 23 16 17 19 16 37 48 18 22 34 36 34 28 29 28 28 28 28 26 29 28 32 27 25 22 18 15 15 16 20 20 29 24 28 32 38 41 48 51 57 64 77
24 25 24 22 16 20 15 13 16 20 35 40 37 36 38 31 26 25 29 26 26 28 27 25 28 23 22 21 17 16 14 23 22 28 26 24 31 39 35 39 48 59 61 67 70
24 26 26 19 20 16 14 22 29 26 52 39 37 37 32 32 31 29 29 30 27 22 26 32 26 25 20 20 23 20 26 27 24 28 21 21 22 32 45 26 23 37 63 74 56
25 27 27 20 18 18 26 38 38 30 46 32 33 37 36 31 33 30 25 28 26 26 25 28 30 22 21 28 22 45 32 25 26 27 22 26 20 34 46 46 31 25 31 42 36
28 29 26 20 22 18 42 51 47 55 38 33 33 33 35 31 30 35 25 26 31 30 24 35 27 27 29 23 27 22 33 29 24 23 26 20 29 43 42 39 51 39 36 54 70
29 31 24 22 62 39 53 52 61 47 35 27 27 30 31 28 32 31 26 25 22 30 27 27 27 24 21 31 25 29 28 23 24 29 26 23 26 22 22 39 44 68 61 62 51
30 32 24 31 65 60 59 58 52 35 32 27 25 29 30 29 29 32 24 22 23 26 26 24 32 30 32 28 26 29 23 24 28 26 18 29 23 18 22 29 36 66 77 60 47
33 32 24 61 76 63 63 85 48 24 29 29 27 27 29 31 29 35 30 23 23 26 26 23 28 33 31 37 28 25 31 28 31 37 32 21 18 21 26 36 45 67 76 75 59
37 31 24 81 82 69 71 59 41 37 33 29 26 26 29 30 28 31 30 32 34 33 30 28 27 34 36 29 29 33 32 31 27 31 34 19 20 18 38 40 48 64 71 78 80
46 34 50 85 87 84 82 60 39 46 46 33 26 26 28 28 27 28 30 39 41 34 31 28 29 39 42 36 25 38 28 30 32 38 35 26 18 25 22 36 44 55 65 74 76
50 44 66 85 89 92 76 55 44 48 42 40 34 28 30 30 31 27 26 29 32 40 29 29 33 44 36 35 32 39 32 32 31 28 35 43 24 18 10 20 43 50 58 68 72
58 79 72 82 92 86 65 47 46 51 47 42 36 33 31 32 32 30 31 34 31 29 34 42 32 40 38 42 38 30 32 32 29 30 27 48 23 29 13 12 19 45 55 67 72
86 89 72 80 93 71 59 46 50 56 48 44 34 39 44 42 42 44 46 38 35 40 37 37 33 35 35 32 33 38 29 31 30 30 27 24 20 22 29 34 38 21 44 58 70
94 74 81 81 83 71 56 49 40 48 54 52 50 39 39 41 45 50 56 42 40 39 40 40 45 38 39 43 36 31 30 30 28 27 23 24 14 15 19 25 29 38 24 47 66
92 71 82 86 80 70 54 41 40 44 50 51 42 38 41 42 46 41 54 56 44 40 45 44 51 47 43 46 39 38 33 26 27 27 22 20 20 19 27 30 20 38 16 18 29
88 77 75 82 75 63 54 42 40 46 58 48 41 50 45 52 51 51 58 58 60 53 50 61 50 46 42 45 50 45 25 31 27 26 26 25 25 31 39 33 26 38 30 24 30

GFSSW_700_rhum_012.txt.gz
RH
13 14 14 12 10 9 12 12 10 15 17 10 10 11 7 8 17 15 12 14 14 3 2 14 23 20 13 31 28 19 17 17 17 18 39 39 60 56 53 54 64 68 53 72 44
20 20 17 14 11 12 15 14 12 15 15 9 13 10 8 7 9 17 21 13 16 10 12 21 20 14 14 31 26 20 20 21 37 53 48 47 57 50 47 58 64 69 78 84 38
24 22 19 15 12 16 17 14 15 16 10 10 14 9 8 5 40 55 31 10 16 18 18 21 36 33 31 26 24 21 20 20 37 43 40 45 65 53 48 58 72 96 88 96 45
27 25 22 15 15 18 17 14 17 15 9 12 13 10 7 6 48 40 12 12 11 11 15 32 29 28 27 26 22 21 18 23 27 40 36 40 39 41 33 40 46 64 93 86 81
29 28 24 17 18 19 16 15 18 10 10 14 12 9 4 13 23 23 12 8 10 11 19 30 27 26 28 25 21 22 24 22 23 22 26 37 44 43 47 38 66 67 91 84 100
33 32 26 19 20 19 16 18 16 9 11 15 11 9 7 27 46 15 14 24 24 22 26 33 30 27 25 20 19 21 24 22 23 26 38 37 33 44 60 70 91 86 84 78 92
40 36 28 21 21 20 17 18 12 10 14 16 11 6 12 28 41 26 22 25 27 29 35 32 32 29 29 30 24 26 23 25 26 27 32 43 33 41 62 75 78 76 77 77 86
47 39 30 23 22 20 18 17 10 14 16 17 10 7 17 24 23 26 27 25 25 26 31 38 40 38 35 35 27 23 18 20 29 28 27 21 28 39 61 67 66 67 72 73 77
53 41 29 23 23 20 19 13 12 16 17 15 9 11 34 24 26 34 25 28 36 25 32 40 31 28 35 29 22 18 20 37 30 27 19 13 25 34 52 57 60 66 69 75 77
57 43 29 23 23 21 19 13 17 16 15 14 8 20 25 20 32 35 31 23 30 24 27 26 27 30 29 26 21 19 20 25 23 21 12 13 24 31 40 49 79 62 65 73 79
55 47 29 24 24 21 16 19 19 20 13 12 36 40 33 33 34 30 30 24 32 29 34 26 34 27 25 25 24 23 20 18 17 14 12 20 25 29 33 44 54 68 62 71 80
60 48 30 24 24 22 15 22 62 49 30 9 20 40 42 36 34 30 28 29 32 35 30 32 30 31 34 27 27 23 19 14 15 16 14 16 22 25 32 34 42 49 59 68 75
63 48 27 25 25 20 18 19 14 27 21 43 18 33 32 30 32 27 27 28 30 28 29 34 33 31 29 29 24 18 18 22 19 16 16 26 25 25 29 34 36 40 46 58 70
48 49 26 26 27 19 20 16 14 21 48 48 38 39 40 38 32 24 26 25 26 29 28 40 32 31 27 22 20 27 28 25 28 26 20 22 35 50 38 32 38 43 49 53 61
42 51 25 28 26 22 37 17 27 30 59 38 38 35 35 31 28 26 30 29 31 26 30 32 29 29 26 26 28 31 24 29 22 23 24 27 32 42 35 46 45 49 54 58 66
30 53 26 28 23 21 20 45 55 68 55 33 32 36 31 31 27 27 29 24 26 30 30 29 35 31 32 28 28 28 24 26 21 19 43 29 37 50 39 33 43 49 59 68 67
34 53 26 31 26 23 55 72 82 57 33 30 30 31 30 29 27 28 31 23 25 28 29 26 27 25 27 23 25 25 25 24 38 47 40 21 36 26 29 41 44 34 60 72 84
51 48 27 31 23 29 85 73 65 41 32 22 25 28 28 26 27 25 24 22 23 24 26 28 24 27 22 22 34 29 19 29 78 79 43 28 28 21 24 37 34 59 67 72 94
57 47 27 32 24 54 84 94 65 36 32 26 23 25 25 25 24 27 23 22 20 21 25 41 45 38 29 27 28 19 21 24 28 47 38 25 18 14 28 28 31 53 70 60 66
83 49 28 32 29 82 84 76 63 42 28 27 22 23 24 25 25 26 27 24 20 22 24 50 59 38 35 30 31 20 28 30 28 39 38 20 20 25 32 35 33 47 64 76 78
100 46 31 32 44 82 88 84 58 42 32 30 24 22 23 27 23 26 27 26 32 31 31 28 47 35 40 35 23 32 29 26 25 29 57 52 25 23 24 25 32 42 59 72 77
100 43 37 34 55 77 85 80 58 44 37 39 30 23 24 26 25 24 30 32 33 30 33 28 28 29 35 31 30 33 36 26 30 31 35 39 34 21 16 9 11 37 47 62 68
98 51 78 33 56 80 81 81 60 50 43 46 34 33 26 29 28 26 25 36 36 33 36 30 30 31 34 38 37 33 26 31 32 33 38 54 31 27 22 18 18 32 42 53 62
94 82 98 50 61 79 88 70 60 51 41 42 37 33 29 29 30 30 29 32 34 30 32 36 39 29 38 32 35 36 30 24 28 33 33 27 23 23 24 29 32 31 32 46 54
76 82 95 53 64 83 77 68 54 44 48 42 37 31 39 34 35 37 38 48 38 30 34 35 40 36 32 32 40 37 30 29 25 27 29 27 24 20 16 21 24 29 37 31 30
59 87 88 85 71 75 75 63 48 42 47 48 45 36 38 37 38 40 40 53 41 39 40 39 48 48 47 44 42 40 38 32 27 25 25 24 22 19 24 26 28 26 32 43 25
68 80 90 80 68 73 74 58 51 41 41 45 43 39 35 44 45 51 48 54 54 54 40 64 52 50 54 51 43 42 34 30 34 28 25 25 24 24 27 34 36 40 40 45 26

GFSSW_700_rhum_015.txt.gz
RH
15 16 18 20 19 16 13 14 18 17 14 16 9 10 9 7 7 8 17 20 14 15 2 4 17 24 16 16 24 25 23 19 25 51 66 66 53 52 67 62 70 74 68 60 69
21 22 24 23 20 18 14 17 18 15 15 14 8 12 8 7 7 21 27 11 15 13 6 12 20 22 13 18 26 25 24 20 33 46 46 59 55 56 58 75 66 72 78 88 89
26 26 26 24 22 19 16 19 17 14 16 10 9 12 9 7 26 35 20 9 13 17 18 20 20 27 22 27 26 25 22 21 22 29 46 54 50 61 64 63 56 59 52 97 82
32 29 27 27 24 20 18 20 17 15 16 9 10 12 9 6 41 34 13 9 11 13 16 18 25 29 27 27 25 25 23 20 24 26 39 51 51 46 36 41 63 63 54 64 84
35 35 30 29 26 21 20 21 17 16 14 9 11 11 9 7 18 20 9 11 9 12 22 27 27 26 26 27 26 25 20 22 24 24 47 47 51 55 34 37 50 57 64 71 83
37 38 36 32 29 23 22 21 17 16 11 11 14 11 8 19 25 17 19 24 22 20 25 29 30 30 29 26 27 20 21 22 22 25 45 44 42 48 42 32 64 73 70 81 87
31 42 40 36 32 25 23 22 17 16 11 15 16 11 7 24 22 12 22 26 27 29 29 33 34 32 30 30 30 26 24 24 27 37 37 37 48 58 53 50 72 76 86 63 83
18 36 45 41 34 26 24 22 17 13 13 16 16 8 8 18 18 20 24 25 26 28 30 33 38 38 34 33 29 28 24 24 28 33 32 35 55 64 56 64 70 79 77 90 91
8 20 43 44 36 27 24 22 17 11 15 16 15 7 11 16 13 26 26 27 28 38 32 36 32 28 32 33 26 26 24 25 31 30 31 34 43 61 56 63 68 69 66 81 78
1 12 36 46 37 26 25 21 15 12 15 16 12 9 13 18 27 33 30 25 35 33 34 30 29 24 31 34 30 25 23 27 28 27 26 23 28 48 59 63 63 66 63 63 50
1 4 34 48 36 26 25 21 17 22 14 13 15 37 26 32 35 38 31 27 30 33 35 31 35 31 26 29 26 22 23 24 23 22 21 13 24 41 52 54 51 67 60 61 38
1 2 29 50 33 25 25 20 14 16 19 14 11 36 31 35 37 33 32 29 31 34 33 37 30 28 31 32 29 28 28 25 22 19 12 21 22 27 32 38 49 50 42 60 62
0 1 20 51 30 26 26 21 19 20 21 19 10 33 34 35 32 23 31 28 30 32 34 31 33 30 35 32 29 27 32 24 18 17 15 18 30 30 33 39 48 52 47 63 61
0 1 16 51 31 28 26 20 19 15 28 14 27 14 36 35 37 24 28 26 28 29 30 34 34 32 34 32 28 29 24 26 24 23 25 18 41 27 30 34 38 46 50 60 64
0 0 12 52 31 32 26 19 16 21 92 26 33 27 22 25 21 26 27 28 27 32 31 30 33 30 33 32 31 27 25 24 27 25 30 30 33 38 38 36 33 38 44 46 51
1 0 12 49 29 40 28 25 25 53 87 45 40 35 36 33 26 30 25 27 29 31 31 32 34 36 35 29 23 30 22 20 24 29 47 33 30 31 35 33 31 35 42 51 54
1 0 7 48 30 38 31 41 62 95 27 35 35 36 36 34 27 28 27 27 27 28 32 32 28 34 32 31 29 27 27 35 40 59 65 42 40 34 29 29 32 28 29 44 55
1 0 6 52 32 34 30 66 85 42 26 28 31 34 33 31 30 28 30 32 24 26 28 32 34 32 33 28 27 27 26 33 54 85 62 39 44 36 24 24 34 34 40 43 58
1 1 2 54 34 36 45 94 66 41 20 29 28 30 29 29 27 26 26 28 22 24 27 38 38 36 35 31 31 27 29 28 40 52 78 42 28 31 31 37 37 40 47 43 56
1 2 1 62 38 41 50 92 60 28 34 30 33 24 27 27 30 27 26 25 21 22 24 27 35 36 40 40 32 27 25 30 31 69 55 26 29 34 37 37 36 44 54 66 63
3 8 3 79 42 57 51 92 35 28 43 43 31 22 24 25 30 27 27 26 24 23 22 27 30 33 43 46 33 29 30 20 28 27 60 74 34 24 20 19 36 43 61 58 57
21 58 24 94 49 60 37 61 26 23 41 47 34 27 23 23 30 24 26 31 38 26 31 29 34 43 42 34 33 29 34 37 27 29 33 40 37 29 24 18 17 27 42 50 53
97 100 65 100 41 46 38 36 28 28 46 50 33 29 25 26 38 23 23 36 38 32 35 32 30 28 33 40 36 30 28 29 30 28 31 48 33 27 23 25 22 21 27 42 51
99 98 88 85 45 41 35 30 36 29 51 54 39 30 29 33 36 36 26 30 28 36 34 31 37 30 30 29 35 37 35 32 24 32 34 34 31 23 21 25 27 29 28 24 44
100 94 98 77 50 66 47 29 32 31 55 52 45 32 34 31 29 32 33 38 39 36 33 28 29 39 32 33 36 39 39 38 26 25 28 28 26 25 28 23 32 32 35 37 33
100 92 95 92 62 68 62 39 27 31 55 45 48 35 34 36 30 33 37 42 41 41 33 29 28 32 36 36 41 42 41 40 38 31 29 27 27 26 27 27 29 30 31 34 44
100 95 87 98 88 65 46 41 39 42 54 41 48 38 33 35 37 38 39 40 49 45 36 38 39 38 44 41 39 40 26 33 31 34 32 30 26 25 27 29 33 34 34 27 21

GFSSW_700_rhum_018.txt.gz
RH
17 19 20 20 21 20 18 18 16 17 15 14 15 8 12 8 7 7 22 15 14 16 5 3 14 19 24 18 23 24 30 23 21 40 39 41 57 66 73 60 58 61 73 70 81
24 24 24 23 23 21 19 18 17 18 15 14 14 8 12 9 7 18 26 11 13 15 5 8 14 23 19 21 23 31 30 21 37 29 37 54 46 60 61 52 61 54 58 68 78
29 28 27 25 23 24 21 19 19 18 15 14 12 8 12 9 9 26 20 9 11 18 15 18 22 20 16 29 26 28 21 21 24 28 41 47 48 53 57 65 60 63 64 66 72
34 33 31 29 26 25 23 20 20 19 15 14 10 8 11 8 14 20 11 8 10 15 20 20 20 18 24 25 27 26 25 24 22 21 39 49 51 54 58 70 81 74 52 69 82
30 33 31 30 30 28 25 21 21 20 14 13 9 10 10 7 17 20 18 21 13 12 21 24 26 27 27 31 29 30 24 27 23 23 46 46 51 40 37 40 68 72 48 71 87
16 22 28 30 30 31 28 23 22 20 14 12 9 12 10 8 22 11 24 24 27 19 25 28 32 32 33 31 30 30 24 23 24 29 46 42 48 43 33 36 55 66 55 85 88
10 15 18 27 32 34 30 24 23 20 14 11 10 14 8 10 19 16 24 26 27 26 30 33 35 35 29 28 32 23 27 23 32 45 45 46 48 59 48 37 64 69 63 79 79
1 5 15 19 30 36 31 26 24 20 14 10 11 14 7 10 14 22 25 26 27 33 30 33 34 33 31 31 30 27 25 27 40 39 38 43 52 66 46 53 75 74 68 75 67
0 1 3 16 23 36 32 27 24 20 13 10 12 13 8 12 14 22 26 25 24 31 31 30 30 28 30 34 28 27 22 21 31 35 37 40 46 57 54 50 48 52 58 57 60
0 0 1 5 19 36 34 27 24 20 13 12 12 10 11 19 31 26 26 25 25 37 34 33 31 28 32 29 26 26 21 24 29 30 31 38 36 56 62 66 52 61 54 65 37
1 0 1 2 18 37 35 26 25 20 18 17 11 17 22 18 35 30 26 26 31 37 40 33 36 31 30 31 31 29 28 26 26 26 28 29 29 58 64 66 53 51 42 62 67
2 1 1 1 14 45 35 26 25 22 14 12 16 22 21 30 33 36 32 30 32 35 36 34 31 30 29 28 27 29 27 28 24 24 26 19 30 57 61 52 54 49 52 38 38
6 4 4 3 8 46 32 27 25 19 19 11 14 15 26 32 35 31 34 28 30 30 35 32 30 29 31 31 31 30 31 31 23 20 21 23 44 53 50 50 54 54 46 48 45
2 1 2 2 15 38 30 28 24 20 25 8 10 11 31 36 33 27 30 28 29 30 32 34 32 32 33 32 34 33 25 28 26 20 19 24 36 38 42 53 40 49 50 54 44
2 1 2 2 9 35 34 30 22 22 67 16 18 16 30 30 27 20 29 30 29 29 32 30 35 33 35 35 32 32 29 27 26 24 28 28 31 30 37 35 33 36 40 50 45
2 2 1 2 4 41 36 31 27 43 71 35 32 24 25 33 22 25 29 28 30 28 32 32 34 31 31 32 31 28 29 26 22 29 47 36 35 30 30 28 27 28 34 41 48
2 2 1 1 13 40 37 47 59 96 23 43 39 31 19 22 24 30 30 29 27 30 31 30 35 31 32 30 32 29 29 34 38 60 61 36 39 33 32 28 27 29 34 44 54
3 2 2 1 12 42 40 86 99 42 19 36 36 30 31 31 28 29 29 28 27 27 29 31 34 31 35 35 38 31 26 31 46 72 47 43 47 30 26 23 27 30 34 36 45
3 2 2 1 31 51 44 100 77 31 20 36 36 36 37 33 33 28 28 30 30 28 28 31 35 33 32 39 35 32 30 29 36 56 58 38 34 26 28 25 26 25 32 36 45
2 2 2 2 74 60 45 60 89 32 43 32 36 35 33 30 31 30 27 27 27 28 26 27 36 31 31 36 35 30 33 28 37 61 63 34 31 35 34 34 30 25 37 38 45
2 2 4 2 100 68 64 60 64 25 39 53 31 35 30 26 28 30 28 27 26 24 21 23 31 31 31 29 28 29 30 29 28 32 58 69 35 32 25 16 24 16 19 31 41
5 31 21 8 98 66 75 85 46 22 40 57 49 43 33 25 26 28 28 29 27 26 22 23 26 32 27 30 32 32 35 34 29 31 34 42 36 27 26 21 18 25 20 27 49
20 99 88 28 92 64 66 75 49 22 31 45 46 40 33 25 25 28 28 27 37 35 26 29 33 36 39 39 40 42 34 32 31 31 29 45 34 26 25 31 28 22 22 20 17
98 100 99 61 9 46 59 56 35 22 24 34 47 45 38 31 30 29 30 30 32 37 38 38 32 31 34 34 39 40 38 37 34 30 31 32 32 32 29 26 23 28 28 25 27
99 100 98 55 20 90 88 62 27 34 25 25 53 48 43 36 34 30 32 42 37 37 38 37 32 33 32 29 33 34 40 40 41 39 32 27 27 26 24 25 25 32 33 34 36
99 99 97 47 17 50 98 70 29 29 24 25 54 48 43 39 35 33 35 45 34 36 36 34 32 29 40 37 33 33 40 40 40 40 39 31 28 29 31 30 28 29 32 37 40
99 99 98 56 60 45 46 58 22 29 25 34 52 48 44 34 37 35 36 37 35 37 39 38 32 31 35 30 29 40 26 36 39 38 30 33 35 32 32 35 34 35 36 36 34

GFSSW_700_rhum_021.txt.gz
RH
10 14 19 21 20 19 18 18 16 15 16 14 12 13 8 12 8 8 24 18 11 16 7 2 13 18 24 22 20 29 24 20 28 39 34 41 48 58 57 60 60 57 74 80 72
15 21 24 24 24 22 20 19 18 16 16 14 12 12 8 11 8 16 22 12 11 16 6 5 13 19 21 18 25 30 23 21 32 32 33 43 52 52 62 61 65 72 76 69 80
29 29 28 27 27 25 22 21 19 17 16 15 12 10 9 10 8 17 19 8 10 19 14 17 20 22 19 26 29 25 22 23 22 22 35 46 56 55 65 63 71 69 73 73 89
36 33 31 30 29 27 24 23 21 19 17 15 12 9 10 10 10 16 12 10 10 17 20 21 20 27 28 29 28 28 27 27 23 22 27 52 58 59 59 62 74 77 66 77 91
22 25 27 28 28 27 25 25 23 21 18 15 12 9 12 9 12 19 17 25 20 12 21 26 27 28 29 29 31 31 29 27 24 24 31 51 48 56 40 70 79 76 60 68 69
10 14 16 19 23 26 26 27 25 23 20 15 12 9 12 8 17 14 24 27 28 19 27 31 31 30 29 27 29 33 25 25 22 26 48 56 44 43 38 62 80 70 72 72 82
1 3 8 14 16 20 24 30 27 24 21 16 11 10 12 12 17 16 26 26 27 26 30 33 33 34 30 28 32 25 27 24 24 35 54 48 40 50 45 55 66 61 62 81 78
0 0 1 3 13 16 22 32 29 25 22 16 11 10 12 9 18 20 27 30 34 26 33 33 31 33 32 30 27 27 27 31 40 46 47 45 48 55 53 62 61 58 60 56 56
0 0 0 1 2 12 22 36 31 26 24 17 10 11 10 10 16 22 26 30 35 35 31 32 31 29 29 33 29 27 26 30 45 40 36 40 50 54 55 58 68 54 57 36 36
12 0 0 0 1 3 23 37 33 27 24 18 11 12 9 12 15 24 26 26 33 37 38 34 32 29 29 31 31 28 25 24 35 38 34 40 44 49 51 47 43 36 39 28 31
5 2 2 0 0 2 24 40 31 27 23 20 11 11 11 18 19 22 26 27 34 36 42 36 35 30 31 32 33 29 29 27 28 31 32 34 40 45 52 51 57 55 24 23 25
41 13 3 2 2 2 25 48 34 26 22 20 13 12 16 20 24 24 28 31 33 37 40 36 31 31 31 31 32 32 29 26 27 26 26 28 33 48 51 43 48 51 46 32 30
6 27 10 8 5 2 40 45 35 29 25 16 13 11 22 20 24 24 29 30 30 31 33 34 28 29 30 29 29 30 29 30 30 24 21 24 28 47 54 49 61 58 55 51 45
2 2 7 4 5 9 22 42 35 35 25 15 10 10 20 26 24 29 28 31 32 30 30 32 32 31 31 28 29 30 27 29 28 26 25 25 45 45 38 41 46 53 56 47 48
2 2 2 2 8 17 37 35 32 29 50 15 11 16 20 23 25 27 29 32 32 30 32 31 33 35 33 30 31 30 32 29 29 31 28 32 32 28 38 47 45 40 53 51 49
2 2 2 1 4 18 27 38 35 32 54 23 18 15 17 31 26 24 29 30 31 30 30 34 34 34 34 30 32 33 34 30 29 29 48 34 37 32 32 28 27 29 33 40 50
2 2 2 2 2 15 56 43 48 82 19 29 35 23 16 27 28 28 28 32 30 32 31 33 31 33 32 34 33 33 34 35 39 56 56 38 37 28 25 28 31 30 29 31 36
3 3 2 2 2 10 62 86 94 46 18 40 43 32 25 23 26 26 31 30 29 31 29 31 33 32 37 36 31 33 36 32 44 64 42 40 39 26 26 29 25 26 28 35 35
3 3 3 2 2 12 95 97 86 36 27 28 45 43 30 22 24 30 30 30 29 28 28 30 31 32 36 36 32 32 34 33 35 57 58 35 32 26 23 25 25 23 27 30 33
4 4 3 3 2 29 64 90 97 36 52 39 41 43 31 33 34 32 30 29 30 29 30 28 32 30 34 33 33 33 32 33 34 54 57 43 31 27 31 31 30 28 18 30 31
4 4 4 3 5 87 49 93 80 41 44 59 41 40 33 33 32 30 31 28 28 28 29 28 28 31 33 33 28 32 35 33 31 34 63 66 35 22 34 23 16 17 17 17 30
6 7 16 3 54 40 27 72 48 28 46 46 54 40 38 36 30 28 32 31 28 27 27 27 26 27 29 27 28 27 33 35 37 34 35 43 34 28 28 26 22 22 22 19 18
15 46 58 13 44 8 30 42 44 26 31 52 49 55 43 37 34 27 28 28 30 30 27 24 24 29 31 28 31 31 34 30 38 37 37 49 32 29 29 28 25 25 25 26 18
94 100 75 59 5 21 67 44 50 16 27 40 46 52 52 38 30 28 26 28 29 34 32 29 25 26 32 30 31 35 34 38 38 36 32 31 29 32 32 31 27 22 24 27 25
100 100 93 58 21 19 61 56 27 32 20 36 30 38 52 52 39 34 28 31 31 31 37 34 34 36 33 31 30 37 40 40 40 39 39 39 31 27 27 29 26 26 28 31 30
98 100 97 40 27 22 46 91 43 20 43 19 37 29 42 56 44 34 30 32 32 34 36 37 38 37 35 34 31 29 32 38 43 43 42 40 34 30 28 29 29 27 31 33 33
100 100 97 59 52 57 11 34 20 26 14 21 26 26 31 53 43 41 35 30 32 33 40 40 39 36 34 34 42 44 35 30 30 38 41 38 38 34 36 30 27 29 30 36 39

GFSSW_700_rhum_024.txt.gz
RH
12 11 10 12 19 22 23 22 19 17 16 15 14 11 10 8 10 9 19 16 10 16 9 2 11 20 22 25 22 19 20 22 30 33 38 52 58 57 60 60 58 59 65 69 71
11 11 14 19 24 25 25 25 23 20 17 17 16 11 10 8 10 10 16 12 9 17 10 7 15 19 25 21 27 28 22 21 27 34 31 58 67 62 64 64 67 69 74 66 73
29 27 28 30 30 29 29 27 25 22 19 18 17 11 10 10 9 14 17 8 9 19 15 15 19 23 18 22 27 28 24 26 24 26 31 54 61 55 58 65 66 71 70 71 77
38 38 36 35 34 31 30 28 26 23 20 19 18 12 9 11 9 17 14 11 9 17 20 22 22 25 32 33 30 29 29 32 23 26 28 51 54 58 55 50 76 76 67 47 99
20 23 26 28 28 28 28 27 27 24 21 20 18 12 9 12 10 18 21 22 24 13 22 31 30 29 30 29 29 31 31 28 26 25 29 52 52 51 46 60 74 75 53 47 97
6 7 12 16 17 19 20 22 26 26 23 22 19 12 10 12 14 16 25 25 26 20 30 36 35 33 32 27 30 31 26 26 22 25 48 46 50 46 33 55 80 65 65 43 54
1 1 2 4 8 13 16 18 24 28 24 23 20 12 10 11 14 16 27 27 27 24 32 34 33 33 32 28 32 28 27 25 23 30 44 46 54 45 36 61 76 75 76 63 38
0 0 0 0 1 3 9 16 21 27 25 25 22 12 11 10 14 20 27 28 29 24 30 34 31 31 30 29 32 29 26 28 33 35 46 50 49 45 43 61 67 77 74 74 60
0 0 0 0 0 1 2 7 18 25 25 27 22 13 12 10 17 22 27 29 36 32 29 33 31 30 29 30 31 28 28 36 44 42 41 48 48 42 44 58 64 64 52 61 60
1 5 11 4 1 0 1 2 13 22 24 27 23 16 11 10 16 22 27 30 35 38 41 34 31 32 27 32 31 29 26 31 43 39 38 38 44 43 45 41 54 49 57 29 24
6 7 4 2 15 1 1 1 11 21 19 28 23 12 11 10 15 22 27 27 36 37 42 36 34 29 28 32 34 34 31 29 32 39 37 37 36 38 44 42 45 36 26 30 30
5 7 26 6 5 3 1 2 9 27 22 25 22 18 13 10 16 25 28 28 35 36 38 37 34 33 33 31 33 33 30 28 31 31 30 30 30 39 43 40 38 48 26 27 29
2 2 14 28 12 5 6 4 20 36 30 18 20 17 14 15 16 23 27 27 34 35 35 35 34 34 29 30 31 29 28 31 34 31 26 28 29 34 38 41 48 46 54 47 32
2 2 2 12 23 12 13 10 25 44 36 22 18 14 12 17 19 26 27 28 31 32 32 32 32 33 33 30 30 28 28 33 31 31 29 30 30 30 31 35 39 43 39 44 47
2 2 2 2 18 12 12 29 36 36 59 24 23 17 12 15 17 24 28 31 29 31 32 30 31 34 34 30 29 27 29 34 31 30 30 32 30 24 28 43 31 30 31 34 40
2 2 2 2 2 4 24 56 44 48 57 18 23 15 13 20 24 23 33 32 30 32 32 30 32 34 34 34 27 31 34 34 33 31 45 32 35 31 27 25 24 28 31 32 37
2 2 2 2 2 3 14 78 68 85 29 23 34 19 16 22 28 31 33 38 34 34 33 30 30 33 35 36 32 33 36 38 42 56 55 41 43 29 24 23 25 31 32 32 32
3 3 2 2 2 4 17 100 92 55 43 33 51 37 22 21 25 35 29 37 34 32 31 32 33 30 33 33 34 34 35 38 45 63 42 41 38 24 22 29 27 29 27 31 32
4 3 3 2 2 4 39 93 90 66 33 30 36 54 35 23 25 32 32 35 31 31 31 32 33 31 32 36 38 35 33 33 34 52 60 35 29 26 22 26 22 29 29 31 32
5 4 3 3 3 4 54 73 83 69 48 45 33 50 42 31 28 32 32 30 32 30 29 29 31 30 33 38 37 35 32 35 38 50 56 44 37 27 24 32 34 29 22 17 27
23 6 3 4 3 12 80 67 84 51 63 80 59 45 46 37 27 28 29 30 30 30 28 29 29 30 37 39 35 34 34 34 35 37 58 66 35 27 24 31 20 17 18 15 12
95 29 6 5 15 14 60 53 68 38 46 74 67 46 44 41 32 28 36 29 28 28 29 30 32 30 28 34 33 31 32 34 35 38 38 44 34 26 28 29 27 28 23 24 18
100 93 57 13 17 8 43 74 71 20 25 53 47 60 55 48 42 36 34 30 27 27 28 29 32 31 30 28 28 28 25 31 38 40 41 51 37 32 30 30 30 30 28 24 25
98 99 78 81 5 12 64 89 84 10 32 40 44 46 57 52 44 38 34 27 26 29 30 31 29 29 30 26 24 26 27 31 36 42 39 37 34 34 33 32 31 32 28 24 25
98 96 98 94 19 13 29 55 46 22 19 36 27 30 48 55 55 36 34 31 29 28 31 34 33 28 22 21 24 26 32 32 32 35 41 38 40 40 36 27 28 27 27 26 27
93 97 96 61 27 27 74 81 47 10 21 25 25 22 30 48 52 42 40 29 27 28 32 34 35 33 28 31 34 32 31 30 38 38 40 42 43 39 34 29 27 30 29 27 27
94 93 100 84 64 56 10 59 51 21 17 50 13 19 24 27 48 47 56 50 41 31 31 37 35 40 40 38 36 39 33 32 32 30 30 40 38 41 40 38 34 30 30 29 33

GFSSW_700_rhum_027.txt.gz
RH
13 12 12 12 10 13 21 24 25 24 23 20 17 17 12 9 8 10 12 15 10 16 11 5 10 18 21 25 24 19 19 22 28 30 36 55 61 62 66 67 66 64 64 62 68
11 10 10 10 11 18 25 27 27 27 25 22 19 18 13 9 10 9 13 14 9 18 12 10 15 20 25 24 21 23 22 22 24 26 27 40 63 65 62 72 69 71 74 69 68
38 28 21 20 22 26 30 30 28 29 27 24 21 19 14 9 10 11 16 10 9 19 15 16 20 23 19 22 22 23 23 27 27 29 30 57 66 61 68 72 74 70 67 66 66
32 37 38 38 36 35 33 30 31 28 27 25 23 20 15 9 11 13 15 16 12 19 19 22 21 32 32 30 30 27 32 24 26 26 29 52 54 59 60 53 78 75 66 58 77
14 19 24 27 29 30 29 28 27 25 26 26 25 22 16 10 10 16 19 21 23 16 24 24 21 30 32 33 30 32 29 28 27 24 49 53 50 53 58 76 60 75 55 93 97
3 7 11 14 18 19 20 20 20 21 22 24 26 23 17 10 12 17 22 25 25 17 29 29 27 30 32 32 31 31 28 27 24 37 43 50 52 49 47 78 79 64 43 82 90
0 1 2 4 5 8 10 12 16 16 18 21 26 25 18 12 13 17 24 26 26 24 32 30 31 30 31 30 32 31 28 27 26 32 43 48 52 46 54 66 73 59 31 49 52
0 0 0 0 1 1 2 3 8 14 17 19 24 26 19 12 12 17 27 27 28 26 30 29 30 30 30 30 31 31 29 38 30 38 46 50 52 48 54 57 66 72 46 29 29
0 0 0 0 0 0 0 1 1 4 13 18 24 28 21 12 11 21 27 29 32 30 27 28 29 29 29 29 32 28 27 31 40 41 46 50 49 46 45 56 53 61 75 38 30
2 0 0 0 2 2 2 1 0 1 3 14 22 28 21 11 12 20 28 27 33 40 38 31 30 28 26 29 32 30 28 26 38 38 40 46 46 45 43 43 53 54 43 49 31
2 3 1 2 9 13 10 11 14 3 2 6 26 20 18 12 13 20 28 28 33 39 37 31 31 25 25 32 34 32 30 31 35 41 41 38 40 38 40 39 43 39 43 22 34
2 2 4 6 8 6 5 8 6 10 10 8 17 21 24 13 12 22 30 30 33 38 39 38 33 35 33 32 32 33 31 32 34 32 34 34 34 34 35 36 42 34 31 29 30
2 2 2 4 6 22 8 7 5 4 13 4 13 16 23 19 12 19 30 28 34 38 37 35 34 35 34 33 32 31 33 34 32 29 28 30 30 30 31 37 37 49 36 36 32
2 2 2 2 3 9 28 17 11 21 28 8 9 14 19 19 14 18 26 28 33 36 34 33 32 33 33 33 34 31 31 32 34 31 29 27 28 25 27 29 32 35 47 39 31
2 2 2 2 2 3 24 14 12 33 53 23 22 21 17 19 15 19 27 31 31 32 33 31 31 34 35 34 32 31 31 30 33 35 32 33 32 21 21 23 22 25 31 38 46
3 2 3 3 2 2 14 14 48 55 62 25 28 25 22 19 18 20 27 33 31 32 32 31 32 33 33 34 33 33 31 32 34 33 40 33 34 28 28 24 24 28 26 29 33
5 3 3 3 2 3 5 21 61 99 34 31 34 29 20 19 30 26 27 34 35 38 34 32 30 32 33 36 35 34 33 39 40 47 44 37 41 30 25 23 23 24 27 32 32
14 5 4 3 3 4 11 95 98 62 44 42 56 62 27 23 34 34 26 35 35 35 32 34 32 30 35 37 34 34 33 38 44 51 36 41 43 26 24 22 21 27 25 28 28
52 25 5 3 4 4 40 100 51 78 40 39 40 51 56 30 28 38 35 31 34 34 32 32 32 29 31 31 34 34 38 35 35 48 54 36 31 26 24 24 26 29 27 28 26
77 58 12 6 6 6 54 92 56 60 45 33 42 42 57 44 29 30 37 33 35 34 31 31 31 31 31 36 36 38 36 38 36 51 51 42 36 29 25 24 30 25 20 20 15
100 57 18 20 18 59 60 58 54 74 56 47 43 58 37 47 30 29 30 32 30 32 34 32 31 31 35 37 35 38 39 35 33 36 45 45 31 25 26 23 26 21 20 20 16
97 77 22 54 100 98 8 39 54 32 58 55 49 75 41 52 42 28 26 27 26 29 32 31 30 30 29 30 34 39 38 36 35 38 39 42 37 30 29 26 28 29 29 26 25
97 91 47 61 100 82 39 45 36 19 35 28 39 66 72 65 49 41 29 27 27 29 30 30 31 32 33 32 37 40 38 32 27 27 36 50 38 32 31 30 31 31 30 31 25
98 99 99 52 37 53 100 82 85 18 27 42 36 68 65 68 57 43 37 33 31 31 30 30 30 30 34 31 29 30 27 27 25 35 38 39 35 34 33 38 36 32 30 29 27
96 96 84 60 72 61 72 75 49 22 29 24 16 38 44 56 61 50 40 38 36 33 29 31 32 32 31 27 27 26 25 23 28 32 37 32 36 38 38 38 32 28 31 27 27
97 89 83 29 30 86 100 98 69 9 16 49 8 6 12 32 53 51 48 42 42 33 30 29 32 32 35 32 30 26 23 23 35 34 31 30 33 34 38 38 34 29 28 30 29
88 79 74 66 74 100 88 100 97 32 21 31 13 20 8 10 30 56 60 50 57 48 42 32 34 36 36 34 34 37 27 33 32 31 30 32 29 30 34 38 35 39 37 32 29

GFSSW_700_rhum_030.txt.gz
RH
10 10 10 10 11 11 10 11 18 23 23 24 23 20 18 15 9 9 10 12 13 12 13 8 12 17 22 23 22 19 27 28 28 27 34 47 74 62 64 62 62 67 66 63 61
21 11 10 10 10 10 10 12 20 24 24 25 24 22 20 16 9 10 11 14 11 14 12 13 17 21 25 22 19 32 27 26 26 29 30 48 62 68 63 72 71 71 74 73 68
36 42 35 20 13 13 14 17 24 27 26 25 24 22 21 18 10 10 12 13 12 16 14 16 22 22 18 18 23 32 28 28 31 32 32 54 61 62 88 86 79 72 74 74 71
16 23 32 37 38 35 33 31 30 28 27 26 24 23 22 19 20 13 15 15 16 17 17 20 21 28 26 33 28 27 33 30 32 26 43 60 43 52 60 55 74 77 71 66 70
4 8 14 20 25 30 31 31 29 27 26 24 23 22 24 21 11 11 16 20 22 17 20 22 22 30 35 34 30 31 36 33 34 30 46 56 58 58 65 68 59 70 66 81 94
1 2 3 7 11 16 19 22 24 24 22 21 21 21 25 22 13 13 17 23 24 18 23 23 23 26 29 30 31 34 32 29 28 42 43 44 55 48 45 72 56 51 74 99 98
1 1 1 1 3 6 10 12 13 15 16 17 18 18 24 23 14 15 19 26 25 21 27 30 27 26 29 32 30 32 31 32 28 41 44 48 58 37 57 80 68 42 75 74 69
1 1 0 0 1 1 2 3 4 6 7 12 17 18 23 23 13 15 21 28 27 26 26 29 30 27 27 29 30 34 30 34 35 38 48 50 54 38 53 67 68 36 48 57 49
1 1 1 0 0 0 0 0 1 1 1 2 11 18 22 23 14 15 22 30 29 28 28 28 30 28 27 32 28 29 27 32 39 41 58 53 54 44 49 51 75 64 36 30 29
2 1 1 1 0 0 0 1 2 2 2 1 2 14 22 21 15 14 23 30 36 36 34 32 34 35 31 29 24 25 26 27 37 45 49 50 55 47 42 44 52 71 74 39 32
1 2 2 2 1 1 2 9 15 17 20 18 4 16 22 21 17 13 23 30 38 43 49 41 44 30 24 29 35 35 28 27 30 37 46 43 43 46 45 42 36 52 42 58 39
5 1 2 2 2 3 4 8 11 16 22 24 14 3 23 19 15 12 23 29 34 46 46 44 38 30 30 31 33 38 31 29 32 32 30 35 37 53 36 44 46 32 29 27 47
4 3 1 2 2 2 6 12 14 9 14 25 16 11 8 27 16 12 21 28 32 45 42 39 34 34 31 33 33 37 30 34 31 28 27 35 31 38 32 37 40 30 27 26 29
4 4 2 2 2 2 3 6 12 24 17 17 17 12 8 23 26 12 17 26 36 41 43 42 36 35 36 34 36 33 34 34 35 30 26 28 22 30 42 28 34 42 25 29 30
4 4 3 2 2 2 2 4 13 24 32 25 21 18 11 18 26 17 18 29 39 36 42 35 33 33 35 32 33 31 34 37 35 32 34 34 24 27 20 35 30 28 40 35 35
4 6 5 3 2 3 2 3 23 42 40 26 29 27 24 21 25 23 16 30 37 38 35 32 32 37 33 34 33 36 34 36 34 36 32 31 27 22 26 29 30 42 30 32 41
12 3 7 6 3 4 4 5 70 67 30 30 32 32 31 26 35 22 20 32 36 36 36 34 34 34 33 36 34 36 33 30 32 34 32 38 39 24 26 27 22 21 30 30 31
50 48 4 7 8 7 52 36 66 30 38 37 45 48 40 40 41 34 36 35 35 32 30 32 30 34 33 35 36 36 29 30 39 36 25 44 31 26 27 24 22 21 20 25 30
60 49 98 5 9 26 99 95 35 33 48 42 52 59 59 44 36 42 37 32 36 34 30 30 28 30 32 33 37 42 35 32 40 36 35 28 30 23 25 26 24 31 27 24 26
69 91 75 38 14 18 100 86 40 49 54 44 41 45 44 48 35 39 40 40 36 36 31 33 30 33 32 32 38 39 35 36 39 41 38 27 28 22 24 25 23 24 23 20 19
99 99 54 84 66 64 99 84 54 58 67 68 52 38 45 54 40 38 37 35 36 41 34 31 30 42 31 40 36 40 39 38 38 38 31 31 26 27 27 28 28 28 20 24 22
100 87 89 100 100 89 87 19 58 62 79 70 70 65 63 50 50 42 36 35 27 35 34 35 35 31 31 37 35 38 34 38 36 35 45 47 31 28 31 31 25 28 29 29 27
91 96 99 99 98 98 13 18 88 74 73 82 60 67 49 66 54 47 36 31 32 27 33 40 39 34 30 36 34 40 41 40 41 36 34 46 30 29 30 32 30 29 31 30 31
100 100 98 94 75 90 12 10 86 91 75 84 84 70 53 67 49 48 45 33 29 27 28 27 30 31 31 26 29 40 38 42 40 37 32 33 27 28 33 34 33 36 35 32 31
97 97 78 96 88 65 63 12 67 78 82 80 79 75 66 66 62 54 44 40 35 32 30 34 32 33 28 28 27 29 28 33 36 35 29 30 31 34 31 33 38 34 25 30 31
93 94 90 87 66 59 70 64 80 74 64 80 80 76 74 77 62 62 52 50 47 34 34 34 37 37 38 34 32 34 31 29 30 28 28 33 32 35 33 31 37 36 27 30 29
87 85 100 97 94 88 75 70 69 80 67 65 60 70 68 47 67 75 68 59 57 60 40 36 37 38 36 37 36 46 34 35 34 32 30 33 36 36 37 32 35 37 34 31 38

GFSSW_700_rhum_033.txt.gz
RH
30 13 10 10 10 11 11 10 10 10 15 21 21 22 22 19 18 11 10 10 13 12 14 10 15 20 22 30 29 27 23 27 22 21 27 34 52 73 66 70 89 83 73 71 71
33 40 38 20 10 10 10 10 10 10 17 21 24 23 22 20 19 11 10 10 13 12 15 13 21 23 32 29 30 25 20 23 24 27 30 40 53 69 70 90 87 70 71 70 66
15 20 28 37 38 29 15 12 12 14 19 25 27 24 23 22 20 27 10 12 13 13 16 16 22 26 29 26 27 26 27 26 27 31 36 42 58 58 74 96 88 73 72 72 74
4 7 12 18 25 33 35 35 31 30 29 29 28 25 23 23 23 23 11 14 15 14 16 18 21 32 28 26 25 27 27 28 30 33 46 57 44 40 42 56 54 71 78 74 74
1 1 2 5 11 17 23 28 30 30 30 28 27 25 23 23 24 16 11 15 18 18 18 21 34 35 29 26 28 28 29 28 30 35 47 51 66 69 71 66 60 62 60 66 82
1 1 1 1 2 4 10 15 19 22 24 24 22 21 21 22 23 16 11 16 21 23 19 35 40 38 38 32 31 33 30 30 31 38 50 54 71 80 51 56 57 49 72 94 97
1 1 1 1 1 1 2 3 8 13 15 16 15 16 17 20 23 18 12 17 23 23 27 37 34 40 39 31 32 33 30 30 33 40 44 57 70 78 54 65 55 48 60 74 85
1 1 1 1 1 1 1 1 1 4 6 7 7 9 16 20 24 19 13 20 24 23 22 22 26 24 42 36 31 27 26 31 43 42 46 63 90 63 60 95 62 93 77 71 86
6 1 1 1 1 1 0 0 0 1 1 1 2 2 8 18 22 21 14 21 25 24 25 23 25 36 38 30 25 23 24 40 39 36 44 49 78 71 50 86 88 84 92 97 82
3 7 1 1 1 1 1 0 0 0 0 0 0 2 4 19 23 22 15 22 27 26 27 27 36 36 29 26 21 22 20 24 36 35 38 46 40 71 44 82 80 78 82 82 90
3 3 7 1 1 1 1 1 1 12 10 12 46 7 14 21 22 18 16 22 33 41 43 47 41 34 27 23 22 29 24 24 31 46 32 36 40 50 72 79 54 74 89 79 80
2 3 4 6 1 1 1 2 3 7 11 15 19 20 13 13 23 18 16 24 35 44 44 42 38 32 27 23 25 27 23 22 28 28 28 27 32 52 59 71 72 73 78 81 79
2 2 4 4 3 1 2 2 3 7 13 14 17 18 23 16 19 36 18 28 45 41 38 36 31 29 29 27 27 25 24 28 25 31 26 25 26 30 36 57 71 70 67 72 78
14 3 3 4 4 2 2 2 2 6 22 30 25 23 22 25 13 24 25 37 38 37 35 34 34 32 28 27 26 24 24 33 27 26 25 27 28 28 28 41 58 66 67 65 70
23 13 4 4 5 6 50 4 3 5 32 23 35 37 29 26 27 17 35 38 37 35 35 34 34 34 30 27 27 27 37 30 29 27 27 24 21 30 23 31 39 51 64 62 65
35 24 18 3 7 6 9 36 5 34 33 29 45 31 30 26 27 33 36 35 37 35 32 33 30 29 27 28 30 29 34 32 31 30 30 27 23 32 23 23 28 35 46 60 59
38 36 26 21 6 10 7 21 61 41 18 24 43 56 46 50 36 33 39 39 36 35 32 34 31 30 30 30 33 32 30 30 34 34 32 27 25 22 36 23 26 28 32 45 58
42 43 39 18 30 20 12 98 53 27 23 39 33 51 54 41 46 40 41 36 34 31 32 31 29 29 32 30 29 32 28 29 58 58 34 33 25 21 22 26 28 26 26 29 42
59 47 38 37 60 71 99 100 63 29 21 27 40 50 48 42 39 37 36 32 31 28 29 27 26 26 28 31 29 30 32 26 26 34 35 32 24 23 26 23 25 29 33 33 36
96 61 46 53 91 65 100 97 70 43 23 28 32 40 41 42 36 34 36 30 29 28 30 26 25 25 30 33 34 34 35 32 32 51 45 24 22 22 22 20 24 22 29 32 42
98 99 52 75 98 90 98 94 41 52 33 23 34 38 39 40 38 32 34 32 30 27 29 29 30 26 34 36 31 35 37 35 32 29 39 34 26 25 24 24 25 26 27 28 35
94 94 94 88 100 95 70 64 37 40 38 43 52 44 36 38 48 33 32 31 33 28 32 33 29 29 34 33 28 31 31 32 34 37 39 34 32 27 26 26 29 28 30 32 29
95 99 97 94 93 93 57 61 30 43 52 50 50 78 56 40 40 46 34 33 35 34 32 33 29 33 30 28 34 34 40 41 39 34 51 58 32 29 29 30 29 30 30 34 31
98 99 98 97 77 99 94 47 64 34 41 49 47 60 56 72 59 49 46 42 36 39 37 37 31 32 34 27 28 32 31 32 34 40 39 37 29 29 29 29 28 29 32 35 37
97 96 84 95 91 89 75 45 62 44 46 47 46 75 56 41 43 48 56 56 44 36 41 40 38 35 32 27 24 24 27 29 32 33 36 35 30 25 25 28 27 34 38 35 24
97 94 90 85 60 100 96 75 59 48 42 52 52 56 82 78 52 66 74 65 54 43 35 46 41 34 28 28 24 24 24 24 27 28 29 30 28 24 24 28 31 34 33 36 28
97 91 98 88 88 100 90 82 64 49 41 50 46 50 54 63 85 69 96 79 98 85 57 51 50 39 37 31 27 28 28 28 25 24 25 27 26 25 24 31 36 36 42 34 37

GFSSW_700_rhum_036.txt.gz
RH
36 42 40 25 12 9 10 10 9 10 10 10 16 20 23 22 22 19 16 10 9 12 12 14 14 16 17 34 27 27 25 24 28 22 25 25 37 42 50 70 60 82 83 83 69
14 20 27 35 39 34 17 10 9 9 9 10 14 20 24 22 22 20 19 10 10 12 12 13 20 22 35 29 26 25 23 29 23 26 28 29 37 54 65 59 55 68 86 81 77
4 7 10 15 22 30 38 36 24 14 11 12 17 23 27 24 23 31 21 10 11 13 13 14 26 32 30 27 24 23 24 28 24 28 30 37 49 52 64 55 42 52 84 82 80
2 2 2 4 8 14 20 27 33 34 32 30 29 29 29 26 30 27 20 11 12 13 14 15 19 29 29 24 23 22 24 24 25 28 33 47 58 56 64 49 51 51 66 76 78
2 1 1 1 2 3 7 12 17 24 28 29 29 28 27 25 23 23 21 12 12 15 14 17 25 31 31 28 23 22 24 26 26 29 38 46 56 73 71 44 60 67 53 52 60
3 3 2 1 1 1 2 3 5 11 18 20 22 22 22 23 27 24 22 12 12 17 15 28 33 37 36 33 27 30 31 28 26 28 40 48 64 65 86 62 54 37 57 89 93
12 6 3 2 2 1 1 1 1 2 6 10 13 16 18 20 21 24 22 12 14 18 29 37 38 39 36 37 29 27 29 25 27 30 40 41 37 63 97 78 49 46 42 52 62
2 7 10 4 2 2 1 1 1 1 2 2 5 8 19 14 18 20 22 14 15 19 22 39 34 21 36 39 36 29 24 25 31 37 56 50 46 44 77 87 68 46 41 41 37
2 2 3 9 4 2 2 1 1 1 1 1 1 2 12 12 13 19 23 14 16 22 22 22 16 21 35 34 28 25 22 25 32 38 46 52 60 57 66 85 94 76 82 86 79
2 2 2 3 8 4 1 1 1 1 0 0 0 3 6 8 17 17 23 15 34 25 24 25 23 31 32 32 27 24 28 26 33 34 33 50 59 55 76 74 74 78 85 93 84
2 2 2 2 3 8 3 1 2 27 22 12 39 19 27 28 21 17 23 18 44 40 38 39 38 33 29 27 24 22 28 31 30 38 36 36 65 45 49 70 73 72 76 79 90
6 4 2 2 3 4 6 1 25 27 13 6 10 10 15 42 35 15 27 32 47 42 42 39 40 36 32 29 23 21 21 24 26 33 29 22 44 45 39 65 62 69 72 73 80
17 12 7 2 2 4 5 2 4 7 12 6 6 11 17 21 28 39 29 37 47 46 41 39 37 35 32 28 24 22 22 20 24 31 29 24 21 53 55 62 62 65 64 68 75
20 20 15 8 3 3 5 3 3 3 16 19 18 16 12 22 33 21 38 36 47 41 39 35 35 32 30 28 23 23 21 26 30 28 22 27 28 30 38 44 58 61 64 67 75
21 23 24 18 14 8 27 11 81 4 42 12 15 27 24 29 30 27 30 41 43 37 37 34 33 32 33 25 23 23 28 30 28 24 26 29 28 21 28 30 42 54 61 61 64
36 27 26 28 19 16 16 78 25 50 40 16 33 29 29 36 43 31 26 37 40 37 34 33 31 31 32 27 25 24 30 34 32 25 32 33 25 23 26 26 28 37 53 59 62
54 50 31 31 32 49 48 57 61 49 18 16 36 48 38 47 47 31 35 34 39 38 35 32 30 30 30 26 26 27 28 30 33 33 40 31 26 26 29 27 33 32 39 64 58
60 62 52 31 47 64 100 99 54 26 31 20 18 30 49 50 51 38 36 36 36 34 35 32 29 30 27 27 25 29 28 34 45 55 44 53 34 23 23 29 27 26 26 42 51
81 71 68 46 58 79 92 98 67 24 20 26 27 34 36 48 42 45 33 36 37 36 33 31 29 28 29 28 29 29 30 27 27 49 65 70 45 23 22 26 24 24 28 29 29
98 100 98 72 89 82 98 99 70 35 26 26 22 25 31 42 42 40 35 33 36 36 33 29 29 29 26 27 30 28 28 35 32 44 55 34 30 26 28 23 21 24 24 30 36
100 100 95 100 97 96 92 52 18 23 44 29 35 34 26 28 40 38 37 34 36 34 32 30 30 30 28 30 27 28 29 37 44 31 53 47 34 32 34 22 23 24 25 27 32
100 98 99 97 97 100 89 21 20 62 50 47 35 36 28 29 32 47 36 32 32 31 30 29 29 32 32 28 30 29 29 30 34 36 35 37 38 30 33 27 26 28 29 28 32
96 100 98 93 94 80 46 45 51 65 61 55 45 37 32 49 84 83 75 36 32 31 29 28 28 34 34 34 34 31 27 36 34 34 39 57 44 34 31 31 28 28 29 29 30
98 98 97 97 83 74 59 31 48 36 73 56 43 37 36 53 65 94 61 52 36 37 32 31 29 32 42 33 36 31 28 27 40 42 44 46 46 40 35 31 30 29 30 30 34
97 96 84 91 94 75 94 58 69 76 65 69 49 47 37 46 52 70 84 78 73 44 39 36 39 34 34 31 31 29 31 28 29 53 48 42 43 44 34 29 43 38 36 32 34
97 97 92 88 81 94 97 89 78 72 68 64 55 44 39 37 53 93 97 96 86 63 48 36 43 44 41 37 30 31 29 26 26 25 26 29 29 29 31 28 26 30 34 37 42
97 97 93 77 93 96 92 73 70 70 67 60 46 42 41 40 42 60 72 99 95 93 64 52 47 46 47 39 35 32 28 25 22 27 26 27 27 27 27 26 25 28 33 35 39

GFSSW_700_rhum_042.txt.gz
RH
9 9 12 17 22 25 30 34 35 27 11 7 8 8 8 8 9 12 17 19 20 17 9 11 13 17 21 21 26 27 29 25 25 27 27 28 30 40 49 50 53 39 43 59 58
6 7 6 8 13 14 18 22 27 31 32 27 11 8 8 7 8 14 19 21 19 10 10 11 12 16 22 30 28 29 27 25 24 28 28 30 34 50 49 49 46 43 52 61 62
4 5 4 4 6 9 9 13 16 21 26 29 32 26 16 10 10 20 20 25 13 11 11 12 13 15 23 28 28 27 26 23 24 26 28 29 32 42 52 46 55 40 38 56 76
11 7 5 5 5 4 6 6 6 11 17 21 24 28 30 27 23 26 27 24 22 19 11 14 14 24 27 28 31 35 28 23 22 26 27 28 30 46 50 50 44 42 32 44 61
8 11 15 13 8 6 6 5 4 5 7 11 15 19 24 26 25 27 24 24 23 21 12 16 14 19 30 33 35 37 35 26 25 29 27 28 34 37 41 44 41 31 32 53 97
24 29 16 6 15 15 10 7 7 5 4 5 6 8 18 24 21 23 23 24 24 22 12 17 15 26 30 31 37 36 36 29 30 26 29 31 36 36 41 46 45 39 32 51 95
15 33 35 43 5 5 15 15 9 7 8 4 4 5 14 20 21 22 21 22 24 22 12 18 19 30 34 31 36 36 34 28 26 26 27 34 38 39 41 50 48 37 40 35 80
45 14 14 33 22 2 2 6 14 7 7 5 5 5 18 10 14 19 19 20 21 22 12 20 25 26 38 33 30 29 30 27 24 26 31 32 41 35 42 38 45 47 38 28 26
3 13 7 3 3 4 2 2 3 9 8 3 6 8 20 14 14 14 15 19 19 21 15 26 26 28 31 32 25 21 28 28 27 29 31 37 40 36 42 40 44 43 38 25 30
5 4 3 2 3 2 2 3 3 3 6 6 5 10 20 14 10 14 13 12 18 23 17 29 33 33 29 23 21 21 31 31 31 34 33 35 40 38 46 42 58 50 37 24 28
12 9 7 4 3 3 2 2 2 3 3 4 5 12 19 23 25 16 15 11 15 24 18 21 25 19 15 14 15 18 29 32 29 31 32 32 36 42 47 43 54 45 28 37 37
15 14 13 11 10 6 4 3 2 10 5 4 4 4 6 14 21 18 18 20 18 23 21 31 24 16 15 19 17 26 30 32 33 30 35 37 36 41 50 45 44 35 39 37 52
20 20 17 16 14 13 10 5 3 3 4 2 3 4 4 10 17 24 21 19 23 28 26 27 19 16 20 22 29 32 34 33 32 23 32 33 32 32 44 46 46 31 44 60 52
39 37 30 28 23 14 14 9 5 6 8 2 2 2 2 3 7 16 26 21 34 29 26 44 26 24 35 35 38 40 35 32 26 24 31 30 38 30 30 41 49 42 37 44 45
56 58 54 41 41 18 21 14 7 11 20 3 5 7 7 3 4 10 18 32 22 22 39 38 25 23 30 37 39 40 36 32 24 31 32 30 32 28 32 36 43 51 41 38 40
65 65 65 56 47 52 22 25 69 19 68 3 18 17 19 20 7 10 12 33 28 33 38 34 30 39 35 36 41 37 34 28 30 28 42 30 34 31 30 30 38 46 47 45 42
84 82 77 62 54 44 30 97 86 85 10 5 30 26 20 25 22 19 21 30 41 44 42 39 41 32 38 39 36 34 34 36 44 52 56 33 37 31 30 35 32 38 34 38 39
100 100 100 63 75 38 56 100 98 44 14 20 21 43 37 37 30 25 31 36 35 42 37 44 44 34 34 41 36 33 33 35 54 70 45 38 45 37 33 34 33 43 39 40 38
100 100 93 75 81 51 68 99 89 78 39 12 21 29 43 47 46 38 31 36 40 38 44 42 44 33 30 35 35 33 33 32 29 46 55 38 34 32 29 30 33 35 36 43 33
97 96 76 98 93 70 74 88 99 74 36 26 24 20 27 34 47 54 52 43 42 42 42 42 45 37 32 33 33 33 32 30 35 55 65 55 44 33 29 32 32 31 33 34 31
98 98 80 97 97 85 83 56 49 55 64 42 27 39 27 26 35 42 50 54 52 46 41 42 42 40 32 34 35 33 30 30 29 34 64 66 47 36 31 31 31 33 32 31 33
98 98 100 97 97 85 56 56 73 74 62 50 29 20 39 40 33 36 37 37 54 58 56 49 41 42 36 33 35 34 31 30 32 49 43 39 42 35 36 34 31 35 33 27 26
97 99 98 90 86 74 79 65 69 95 64 66 56 22 27 56 38 31 47 60 42 49 78 76 52 46 41 36 32 35 35 33 29 30 40 56 46 34 36 32 32 32 31 37 28
97 98 98 93 70 75 93 92 81 83 81 65 51 38 30 36 39 31 31 40 46 60 52 62 92 72 61 43 36 35 32 33 31 32 35 38 32 31 33 37 31 34 33 30 30
97 92 92 99 80 81 86 80 76 95 99 83 68 55 46 40 29 22 40 50 65 59 53 48 96 95 72 61 47 35 35 33 33 34 34 33 32 31 32 39 37 34 33 33 30
96 91 99 97 100 88 77 54 70 97 93 92 75 53 38 31 37 39 40 47 53 53 58 48 74 97 81 63 52 43 34 36 36 36 35 34 34 31 29 30 35 39 38 33 33
94 95 100 99 100 98 47 32 89 96 97 86 77 75 58 48 36 34 39 51 56 69 75 55 62 76 90 70 64 50 39 34 36 38 37 36 35 33 30 34 33 36 35 36 38

GFSSW_700_rhum_045.txt.gz
RH
14 11 12 14 12 12 15 20 25 29 31 31 24 9 6 6 7 8 9 15 20 20 19 10 12 14 15 12 20 29 28 26 25 26 30 31 31 32 40 48 44 39 30 32 46
6 8 7 11 9 7 8 9 15 17 24 27 29 31 21 7 6 8 10 17 23 19 11 11 12 13 21 27 29 30 27 26 25 25 26 33 31 32 39 46 46 42 33 35 50
7 5 5 6 5 5 6 6 6 6 14 20 23 26 28 26 17 10 12 19 25 10 11 12 12 14 19 27 30 30 28 31 25 25 26 30 32 28 36 40 44 40 34 33 49
10 11 10 7 5 5 5 4 4 3 5 10 15 20 22 26 24 24 25 30 30 16 15 13 13 15 21 28 30 33 33 37 24 25 30 31 33 29 40 40 44 35 28 28 30
44 10 9 12 14 13 10 6 5 5 3 4 8 14 14 25 25 27 28 27 25 25 24 14 13 17 26 29 33 34 35 35 28 30 32 29 32 29 37 40 46 39 27 50 80
59 57 17 21 18 8 10 16 11 7 5 6 5 8 13 26 19 20 22 25 25 24 24 14 15 15 21 28 32 32 33 33 31 30 30 29 29 29 32 37 43 34 30 45 80
52 56 47 20 29 33 32 6 12 15 10 6 8 9 15 21 17 23 21 21 22 24 27 15 17 17 22 26 29 27 32 32 30 29 28 28 28 30 33 39 41 42 21 24 44
27 42 44 41 24 48 43 34 3 3 12 10 9 11 20 16 14 19 16 17 20 23 27 17 18 24 28 22 25 33 34 31 24 25 26 29 31 34 39 39 43 34 18 21 24
40 19 18 35 25 18 36 37 8 3 3 6 9 11 24 20 19 14 14 16 14 18 22 20 21 26 27 24 24 22 26 26 26 29 32 30 29 38 38 38 43 46 16 21 27
5 4 12 17 8 4 3 5 12 3 3 4 3 7 18 16 14 15 15 14 11 16 20 24 28 26 29 29 24 17 19 20 28 30 34 37 32 37 37 40 44 42 26 21 21
12 8 7 3 4 5 4 4 4 4 2 3 3 3 6 14 22 16 12 14 10 17 25 21 29 25 17 18 18 17 24 23 28 29 33 30 43 36 39 41 46 43 27 26 20
15 14 13 12 11 10 9 8 5 6 4 3 2 4 3 17 28 27 22 21 11 14 29 26 20 22 23 22 27 20 21 20 30 29 32 32 37 35 35 33 45 46 31 26 25
16 21 19 16 15 14 13 12 11 9 6 2 2 2 2 3 4 16 29 25 21 12 26 25 22 20 21 20 23 25 27 28 32 31 32 39 35 34 31 31 40 44 38 23 21
18 28 32 35 27 21 17 16 16 17 18 4 3 2 2 2 2 4 25 31 33 25 23 40 23 23 26 21 22 28 23 34 39 40 32 31 42 30 31 30 34 41 38 25 29
20 39 43 42 49 34 23 19 24 38 20 2 6 4 10 6 3 2 9 36 40 25 33 35 25 26 28 16 29 30 37 40 40 39 34 34 36 33 30 30 30 34 34 35 28
28 51 54 54 52 57 28 28 76 36 52 2 14 17 10 19 7 4 4 22 32 35 48 38 32 37 28 23 26 38 40 40 39 35 48 31 31 31 30 28 25 30 36 36 39
53 73 81 64 67 69 33 62 83 85 10 10 30 38 26 32 13 16 8 14 41 49 44 48 40 39 35 40 38 42 42 42 44 52 55 31 39 32 31 26 28 31 30 30 34
82 100 100 71 86 75 39 92 99 65 32 27 26 43 44 42 24 28 29 19 42 44 36 41 37 34 33 36 30 36 40 43 53 67 43 33 46 33 30 31 32 33 28 30 35
100 99 91 80 97 85 46 100 87 86 60 34 19 27 38 46 45 32 35 28 22 38 42 41 44 31 29 30 32 34 43 36 37 44 56 35 36 30 30 28 28 29 34 30 29
99 97 83 98 100 90 61 96 98 80 72 42 32 22 30 38 48 52 46 50 40 33 33 40 44 38 39 38 38 38 36 36 40 54 69 52 48 32 29 28 25 32 32 29 30
97 98 80 96 99 99 98 79 95 63 56 38 49 34 36 33 40 45 54 58 63 61 53 48 43 42 34 37 39 39 39 39 37 37 46 48 39 29 29 29 35 33 32 29 27
97 97 99 94 97 88 81 92 70 74 52 63 39 45 29 30 30 31 45 41 46 58 61 68 57 49 45 40 36 34 41 37 38 42 42 36 36 33 32 34 34 33 36 30 29
96 99 98 98 94 82 99 90 99 87 74 67 58 60 48 42 43 27 23 47 56 47 62 62 82 68 52 44 42 40 36 36 41 40 38 48 37 30 32 30 34 31 31 32 31
98 98 97 96 86 86 100 100 91 76 74 70 74 58 59 58 46 38 37 62 54 45 50 64 63 70 94 97 90 79 56 40 34 38 41 37 36 30 32 31 29 33 35 31 30
96 94 98 97 100 100 100 96 91 99 87 73 72 68 68 72 68 56 44 40 50 69 52 58 68 66 58 70 77 77 68 52 48 36 36 37 35 32 29 30 29 30 34 34 33
90 92 100 99 99 99 100 77 97 100 100 73 77 68 69 74 69 62 56 55 53 51 60 78 64 65 61 48 52 68 71 57 53 48 43 41 36 33 32 32 32 30 33 35 35
90 92 100 98 95 96 86 100 99 100 99 84 80 82 74 59 60 70 71 54 57 68 66 74 79 72 65 54 50 46 60 67 55 44 44 41 40 36 34 33 32 30 32 35 38

GFSSW_700_rhum_048.txt.gz
RH
13 14 15 16 14 10 13 12 18 18 22 27 29 33 33 14 6 6 7 8 11 19 20 21 12 12 14 14 12 27 23 26 26 26 26 26 30 40 40 39 41 44 45 38 34
17 11 7 10 8 11 11 11 12 10 14 16 20 23 27 28 24 10 7 7 9 18 22 15 12 13 16 14 16 24 22 26 28 31 28 27 27 33 41 44 40 47 41 30 28
46 22 11 8 7 6 6 6 8 7 8 8 12 15 18 25 26 25 18 9 11 21 17 11 12 16 22 22 25 27 22 29 27 33 25 26 29 32 39 40 39 49 43 30 28
32 48 50 41 41 8 6 5 8 7 4 5 7 8 10 16 19 26 25 21 17 24 11 12 13 15 19 24 28 30 28 34 25 30 26 30 31 33 37 36 42 49 38 33 54
46 52 60 55 39 12 16 31 9 6 4 5 6 6 6 11 20 19 26 27 29 31 19 22 14 14 18 22 30 30 28 32 32 29 28 31 30 34 30 31 43 46 39 33 86
49 54 44 66 67 44 22 14 28 12 12 8 7 7 8 17 15 16 20 21 26 27 27 25 22 15 22 28 30 30 30 26 30 30 30 30 30 28 28 31 40 45 31 27 57
38 47 54 34 58 60 63 50 53 16 9 11 14 13 9 18 9 16 17 17 20 22 24 25 22 16 17 24 26 28 30 29 29 26 30 30 28 26 30 34 42 46 26 20 26
4 16 44 39 52 60 49 29 29 68 70 12 3 11 20 19 11 11 13 16 17 21 24 29 20 17 18 21 26 29 26 25 24 29 29 30 26 28 31 38 44 48 43 19 22
4 4 3 17 34 28 28 31 29 59 46 23 5 3 12 19 21 18 13 10 10 17 26 31 23 18 21 28 26 26 23 23 24 28 30 33 30 30 32 38 42 49 48 20 22
4 6 7 6 5 14 33 20 8 28 34 18 8 5 5 8 16 20 19 13 8 13 24 29 25 20 20 32 24 19 19 19 20 27 29 31 29 31 35 40 43 43 48 25 20
5 9 9 9 9 7 3 14 13 7 6 6 7 6 5 4 15 14 23 22 14 8 20 24 23 20 18 20 21 22 26 26 18 27 30 30 29 31 38 39 36 39 48 32 23
7 9 11 12 11 12 12 9 13 14 9 12 8 8 8 2 8 28 23 19 17 9 16 31 22 21 24 24 27 28 29 18 25 25 34 30 30 29 29 34 32 36 45 42 34
11 11 12 14 16 18 17 20 18 17 13 11 11 7 6 5 4 10 36 39 22 11 12 23 25 23 28 29 32 29 28 15 18 26 34 37 28 33 27 32 30 31 37 44 32
18 15 14 16 22 33 34 29 25 25 34 4 4 8 9 7 4 3 19 33 37 26 12 30 27 31 25 24 26 23 19 17 18 32 43 41 45 26 28 27 27 30 33 40 27
19 18 16 18 32 55 50 37 40 40 29 4 6 6 9 11 6 4 2 10 22 31 30 29 18 35 34 21 26 23 21 23 31 43 45 41 47 36 27 25 27 26 26 34 36
19 21 18 25 38 75 56 44 90 92 63 5 15 34 29 10 17 7 8 4 7 31 45 38 29 36 30 27 30 25 32 39 44 44 57 39 39 34 32 29 26 27 25 31 36
21 23 24 30 49 91 64 54 82 96 14 23 34 31 42 35 30 20 13 10 12 40 51 54 43 48 43 45 42 34 37 48 49 60 64 35 38 34 28 27 24 27 24 26 31
22 24 29 30 68 92 73 88 99 72 45 26 25 30 47 49 38 39 36 12 18 30 44 48 41 45 46 38 41 46 43 47 58 69 45 38 46 30 27 28 29 30 31 27 28
16 24 23 37 77 97 90 85 86 78 73 52 24 23 33 46 50 37 41 37 10 33 40 44 41 29 30 26 30 39 48 42 44 49 60 39 35 33 30 29 28 27 30 28 28
16 25 24 57 91 96 100 100 92 97 72 69 45 35 34 41 52 55 48 62 34 22 43 42 42 37 36 37 41 42 38 44 45 54 64 51 49 33 29 29 28 30 27 31 32
48 73 27 75 99 98 97 100 90 69 68 43 65 46 34 33 39 44 67 65 64 58 45 40 41 38 36 43 42 42 47 44 43 42 58 58 42 32 29 28 30 34 26 32 31
100 98 74 100 100 98 100 100 88 78 67 63 68 73 52 38 26 27 37 30 60 58 66 65 60 54 47 40 40 43 44 44 43 45 50 47 42 33 31 33 32 32 29 32 30
96 90 97 98 95 90 100 100 87 89 81 66 64 60 51 52 46 37 46 69 75 63 68 69 77 76 62 54 50 51 48 58 53 42 43 58 46 36 34 33 30 27 31 31 31
98 100 97 96 92 91 100 97 99 80 91 88 88 77 75 62 65 49 32 80 64 72 58 53 64 69 87 78 75 82 71 62 72 76 54 46 44 39 37 36 33 31 29 32 35
98 93 97 93 97 99 100 100 100 100 96 91 86 85 88 82 74 63 52 34 48 54 49 60 49 56 59 61 61 57 50 63 59 58 71 65 56 47 40 37 34 32 30 30 30
98 98 99 99 96 90 99 97 100 100 100 99 91 83 86 86 72 66 56 63 50 45 61 68 66 53 51 48 48 42 57 44 37 39 49 58 57 45 39 38 36 33 32 32 32
100 100 100 96 98 97 85 99 99 100 93 90 89 89 83 68 89 80 70 63 56 48 89 71 82 72 72 59 68 57 31 33 30 24 29 44 57 55 42 37 42 37 34 32 32

GFSSW_700_rhum_051.txt.gz
RH
63 64 59 34 17 12 14 13 12 8 10 16 23 27 28 29 24 10 6 8 9 11 15 19 22 16 12 11 14 15 24 21 29 26 26 26 26 27 29 34 44 52 49 48 37
42 50 57 62 48 19 9 8 12 9 6 8 12 19 21 27 27 29 16 8 8 11 17 22 23 14 12 14 15 16 24 17 28 28 27 27 26 28 30 32 38 51 49 46 35
24 36 38 45 46 51 12 8 5 6 6 6 9 10 12 22 26 25 26 20 10 12 22 23 17 11 12 16 16 14 14 22 28 29 30 25 26 29 30 31 39 50 51 40 32
21 19 33 42 52 45 58 33 35 8 5 5 8 10 7 11 16 24 24 24 20 21 23 15 12 12 12 18 21 22 24 25 28 32 30 25 26 29 29 30 34 46 48 29 62
6 6 20 40 40 47 54 64 37 17 14 13 10 45 6 9 12 14 29 38 32 31 17 13 13 13 13 16 24 29 28 28 28 29 29 26 26 29 27 30 34 42 48 23 39
2 2 3 18 39 42 35 62 65 41 47 38 38 13 9 12 11 11 14 27 43 39 27 19 24 17 14 15 20 26 28 28 26 27 28 27 24 26 27 31 36 40 48 23 23
2 2 2 2 3 26 44 45 60 59 51 46 41 36 14 16 22 15 14 9 23 47 41 35 29 27 18 16 23 28 30 29 28 27 30 30 25 26 28 31 36 43 49 28 21
1 2 2 2 2 3 15 37 49 44 44 33 50 34 22 15 30 19 11 11 11 13 35 29 25 28 21 18 19 27 28 27 26 26 26 31 25 28 30 32 39 47 52 43 22
2 2 2 3 3 4 3 15 31 29 23 21 34 57 55 43 46 31 16 12 9 10 16 15 20 30 22 20 22 22 29 26 22 28 30 28 30 31 32 33 36 44 51 50 20
2 2 2 3 4 5 5 6 6 24 26 20 19 58 57 21 36 23 19 19 12 6 23 28 39 36 23 21 29 22 20 21 19 20 25 30 30 29 28 35 39 40 45 49 32
2 2 2 4 5 6 6 8 9 8 6 21 14 10 22 20 13 29 21 25 18 7 19 32 44 33 27 22 20 22 20 21 19 22 26 28 30 27 31 35 33 34 39 49 45
2 2 3 6 9 9 11 16 18 24 6 21 21 12 11 12 10 16 17 22 35 21 11 47 34 28 30 24 22 23 22 20 17 22 24 27 31 27 29 28 32 34 32 46 48
3 3 4 7 12 13 18 31 38 35 22 3 6 9 12 19 30 14 11 31 23 24 22 18 25 26 28 26 27 25 31 22 19 21 26 26 33 26 26 30 28 30 31 36 43
3 3 5 7 10 23 33 38 49 49 31 10 8 17 11 18 24 26 8 13 40 35 27 19 23 30 25 24 27 30 27 27 25 25 29 37 40 35 25 23 25 25 28 31 37
4 4 5 8 12 25 29 50 62 71 42 8 12 34 24 17 14 13 9 7 28 41 34 21 13 32 38 27 27 27 31 27 25 28 37 45 45 37 27 23 24 24 27 28 29
5 5 6 9 14 38 41 65 63 97 66 15 38 48 34 36 19 16 16 7 9 30 42 36 24 28 22 25 28 35 32 32 41 47 53 49 43 37 32 22 22 25 23 24 26
5 6 6 10 14 47 47 80 73 90 30 34 35 31 34 46 41 35 22 14 25 37 45 32 38 43 40 41 40 45 43 44 50 56 48 39 44 35 31 26 22 23 24 28 32
6 6 6 10 18 38 62 99 99 70 64 47 37 25 37 50 43 36 46 30 30 34 36 43 49 47 48 49 34 35 47 42 48 54 40 46 44 32 26 26 26 24 29 30 31
6 6 5 8 20 42 83 100 79 79 69 54 38 28 38 49 60 51 52 39 24 42 34 45 44 34 36 33 39 51 54 37 48 51 54 43 38 32 31 29 29 26 25 25 28
7 7 6 6 23 85 100 100 91 89 68 57 60 44 40 39 46 53 67 78 42 28 46 40 43 40 36 46 46 46 39 49 49 48 50 47 44 36 30 27 22 27 28 26 29
10 10 10 15 38 96 99 100 93 74 80 67 80 63 54 50 35 28 60 61 70 70 32 48 41 46 44 44 41 51 53 46 46 44 45 49 43 32 30 32 31 31 34 32 29
15 30 42 69 80 94 98 94 86 66 73 78 68 73 77 67 47 31 47 46 68 74 69 43 45 45 42 39 44 48 48 48 52 48 53 52 45 34 33 34 34 32 28 28 27
54 45 34 62 92 99 92 94 89 81 76 89 82 83 83 71 60 42 55 65 81 78 86 76 74 68 58 53 47 47 55 59 61 55 51 57 46 40 40 40 39 34 30 29 29
86 86 83 72 76 97 99 97 86 79 76 83 90 94 81 79 67 52 44 40 65 69 73 73 77 74 64 68 67 70 71 68 62 69 66 64 62 51 38 36 35 35 34 33 32
88 95 89 98 65 98 98 98 92 89 94 84 91 94 96 90 78 68 59 46 42 52 55 56 62 61 60 53 55 60 60 53 53 50 62 52 41 41 44 42 38 37 34 33 33
89 99 100 78 73 95 95 95 91 89 84 85 94 96 96 88 73 68 73 65 57 56 67 86 62 55 47 38 38 36 38 43 38 39 45 29 29 25 22 36 38 37 34 33 32
79 91 100 92 85 89 82 74 93 99 92 86 95 96 89 84 96 80 76 73 64 54 52 80 70 71 67 54 54 55 27 31 21 17 24 24 17 14 18 16 31 37 35 35 36

GFSSW_700_rhum_054.txt.gz
RH
25 24 27 32 37 42 52 61 53 28 19 15 16 16 19 22 27 28 28 12 9 9 11 16 21 23 15 13 12 12 23 19 17 27 24 30 28 31 26 28 30 32 38 48 47
26 23 20 14 18 25 28 37 51 49 18 13 11 10 14 14 19 25 26 27 11 9 10 13 22 25 16 14 12 19 23 20 21 28 28 30 30 30 27 32 29 32 42 45 47
18 10 11 9 10 14 11 34 40 48 25 11 8 6 7 9 14 18 21 25 25 10 11 18 26 25 17 20 22 23 23 22 26 29 32 32 27 25 26 28 38 33 45 47 34
3 2 2 3 5 5 5 32 42 42 54 34 26 7 6 6 11 19 24 23 26 19 13 21 24 23 15 23 26 21 14 22 24 32 32 31 27 25 22 26 28 32 40 48 26
2 2 2 2 2 2 2 22 41 41 59 63 44 32 10 11 18 8 17 36 39 24 25 25 22 19 24 26 31 18 24 19 29 31 31 30 27 36 25 24 29 34 41 49 24
2 2 1 1 1 1 1 2 17 37 45 59 53 33 23 33 44 39 10 26 48 38 28 21 16 28 32 30 29 28 26 27 30 34 35 29 32 26 31 26 29 36 44 48 24
1 1 1 1 1 1 1 1 2 9 30 46 53 52 36 33 42 56 16 8 29 49 34 21 17 17 28 32 23 28 30 30 30 30 30 30 33 32 40 28 31 40 44 48 33
1 1 1 1 1 1 1 2 2 2 14 29 29 36 36 37 78 73 31 11 7 26 49 38 35 33 35 34 29 30 32 28 24 28 30 29 28 29 30 30 33 35 42 47 46
2 2 2 1 1 1 1 1 2 2 3 4 28 26 23 31 54 73 54 30 11 7 12 49 48 41 38 39 33 35 27 28 25 30 30 34 30 34 31 30 33 38 38 45 50
2 2 2 2 2 2 1 1 2 2 3 3 14 20 27 35 60 83 63 55 34 13 6 9 20 34 32 34 31 27 30 24 24 24 21 35 37 33 32 28 32 35 36 41 50
2 2 2 2 2 2 2 2 3 3 8 10 7 6 16 30 45 69 78 73 37 22 7 8 44 39 29 32 32 26 27 23 20 26 27 30 29 29 34 29 32 32 34 36 49
3 2 2 2 2 3 2 4 5 11 4 6 4 3 16 15 17 32 27 81 34 43 18 65 50 41 40 37 34 30 29 25 23 32 28 22 27 28 32 28 29 31 32 33 39
3 3 2 2 3 3 6 4 8 14 10 9 9 9 9 13 15 19 30 39 62 54 37 47 38 44 51 45 40 34 30 29 28 32 32 30 28 27 28 26 28 27 28 29 31
4 3 3 4 4 5 7 9 12 22 31 14 12 20 25 18 16 20 24 60 53 50 54 46 36 47 52 40 38 33 34 37 34 33 21 30 25 23 28 27 28 24 26 26 30
4 4 4 4 4 6 13 15 24 21 40 16 28 41 36 31 22 22 26 40 45 52 54 54 34 43 43 40 36 34 36 41 36 35 29 28 29 22 24 29 25 25 28 25 28
4 4 4 4 5 7 12 22 45 70 37 24 39 42 37 44 37 22 24 31 31 59 59 47 36 43 39 39 41 41 42 42 42 34 34 26 26 21 20 26 25 24 29 25 24
5 5 5 4 5 7 18 42 85 45 38 59 40 28 29 51 54 49 34 23 42 40 46 50 48 48 31 37 45 39 39 34 35 36 33 28 32 25 30 29 28 27 26 30 26
6 6 6 5 5 6 22 76 75 54 63 47 31 25 48 51 55 46 49 49 44 35 29 34 41 54 47 46 44 44 37 30 35 36 26 41 35 31 31 26 27 28 26 30 31
7 7 6 6 5 7 32 96 49 61 69 35 31 49 48 53 53 60 61 62 49 43 35 33 32 32 51 36 39 44 47 40 34 48 40 34 35 33 30 29 28 27 28 31 35
9 9 8 8 7 71 65 89 80 75 67 50 68 56 60 60 48 49 69 84 63 48 53 45 41 46 53 59 54 49 43 47 44 41 41 28 32 30 30 30 30 29 33 32 35
12 13 14 12 55 84 99 91 91 56 69 77 87 80 76 70 60 45 66 76 76 75 49 52 54 55 53 53 49 52 49 44 40 37 36 34 30 34 35 41 35 37 34 37 30
35 40 40 66 72 97 100 99 97 55 63 68 61 83 87 82 72 61 54 77 94 96 75 47 50 49 43 46 47 46 43 44 40 40 43 46 33 36 36 36 36 34 35 32 29
68 34 47 76 98 100 96 87 100 96 92 91 90 83 87 88 78 61 56 60 87 95 94 80 52 39 42 46 45 56 61 58 60 56 46 52 38 41 40 35 36 34 38 33 30
96 98 76 77 93 99 100 94 100 66 96 100 90 77 98 93 84 71 65 45 59 91 92 86 77 54 32 37 52 69 68 65 62 57 47 45 43 49 44 36 40 39 37 34 31
98 93 99 94 83 81 95 93 98 100 97 98 97 87 95 93 85 80 72 63 46 54 92 92 90 70 65 66 62 63 62 60 59 60 56 48 47 46 42 38 37 35 33 32 30
100 100 94 100 100 87 91 82 100 98 98 100 95 99 93 94 97 83 86 83 78 55 52 58 63 71 62 53 62 62 58 55 54 51 51 49 47 45 41 38 24 28 37 38 36
94 96 92 83 100 100 97 95 95 98 98 99 99 99 82 77 100 100 100 100 76 66 58 87 83 60 45 51 50 45 44 43 48 46 42 36 33 37 41 45 32 18 15 34 36

GFSSW_700_rhum_057.txt.gz
RH
28 24 24 21 19 13 14 20 16 18 22 27 36 52 36 31 24 21 25 25 26 14 10 11 17 22 20 29 32 31 26 20 16 15 17 23 26 23 32 34 38 46 30 32 37
13 13 17 10 6 6 8 13 12 12 22 19 27 44 40 27 22 18 15 20 25 26 11 11 18 25 28 32 30 29 22 18 16 15 20 21 25 24 25 30 36 45 59 35 40
4 4 3 2 2 2 4 6 5 6 17 15 14 35 40 16 16 20 17 15 20 26 20 14 23 41 36 30 29 28 23 20 19 19 21 23 24 25 26 27 33 42 48 40 45
2 2 2 2 1 1 1 1 1 1 6 9 16 30 51 22 18 25 20 20 20 20 25 17 40 41 35 28 26 26 24 22 18 20 24 26 26 27 28 31 41 26 29 39 45
2 2 2 2 1 1 1 1 1 1 1 1 5 16 54 50 24 11 10 17 40 36 28 25 43 39 33 25 22 23 24 21 20 19 24 28 29 28 28 31 41 27 33 39 46
2 2 2 1 1 1 1 1 1 1 1 1 2 11 43 53 52 33 15 42 21 53 43 53 48 38 29 23 21 21 27 24 22 22 23 28 30 28 32 36 48 28 34 38 43
1 1 1 1 1 1 1 1 1 1 1 1 1 4 18 26 51 43 38 54 30 49 59 75 56 38 32 29 28 26 26 26 23 24 24 27 26 27 26 35 49 37 35 37 40
1 2 2 2 1 1 1 1 1 1 1 1 2 2 3 23 38 34 38 50 64 9 42 51 59 58 41 34 31 31 27 25 23 24 24 24 24 24 28 44 44 59 65 34 41
2 2 2 2 2 1 1 1 1 1 1 2 2 2 4 20 32 34 43 58 75 16 7 45 48 36 47 39 36 33 28 25 26 22 23 26 27 24 36 45 37 49 65 42 38
2 2 2 2 2 1 2 2 2 2 2 4 5 5 17 25 26 33 65 91 94 53 27 9 37 50 45 36 32 28 27 27 23 23 24 21 26 27 31 38 42 43 55 70 55
3 3 3 2 2 2 2 2 28 50 5 5 18 3 8 20 33 48 69 90 98 84 40 23 32 38 41 38 32 29 25 23 24 20 22 23 22 23 25 26 32 46 49 62 67
2 3 3 3 2 2 2 4 4 4 2 4 5 7 7 8 14 29 59 87 97 97 55 41 36 30 31 31 29 28 28 26 24 21 25 21 18 20 21 25 29 39 48 55 68
2 3 3 3 3 3 3 6 5 4 4 9 8 12 16 10 11 19 45 62 71 98 88 48 33 43 38 35 30 30 30 27 26 23 29 23 19 20 20 22 27 35 38 44 61
4 4 3 3 3 4 12 8 8 6 30 38 44 37 32 18 14 14 39 74 59 87 92 77 36 43 42 37 37 34 31 30 28 27 25 21 19 18 20 22 27 32 32 40 49
5 5 4 4 4 5 6 7 11 11 48 28 52 38 31 37 43 32 17 26 67 67 70 59 43 36 41 37 39 35 33 30 31 30 28 25 22 22 20 20 22 23 27 36 47
6 6 5 5 4 6 7 11 14 89 38 31 42 50 49 50 49 35 32 27 38 55 52 54 56 52 45 40 35 32 33 33 35 32 32 29 24 20 20 18 22 21 21 26 44
7 7 6 6 5 7 8 23 82 49 34 40 48 47 44 46 52 60 62 29 41 57 45 37 54 50 51 44 36 34 34 33 35 35 35 28 26 23 22 24 24 23 22 26 36
9 8 7 6 6 6 67 98 65 32 36 48 49 42 38 46 52 54 68 65 45 55 54 36 44 46 51 45 36 35 35 32 39 40 28 27 26 22 26 28 28 27 24 28 39
11 10 8 8 7 7 63 89 38 35 40 48 37 28 32 45 49 45 50 68 56 49 47 33 24 34 42 46 45 40 38 32 32 37 38 26 29 27 30 27 27 26 26 28 35
14 12 10 9 9 50 92 82 50 54 66 52 35 40 42 50 47 43 57 79 80 61 43 40 33 25 36 49 47 42 38 32 36 44 46 29 31 34 27 27 29 28 28 28 30
19 30 71 17 34 80 94 84 59 53 68 62 48 56 51 59 57 50 61 80 86 83 58 44 48 40 42 46 42 43 47 45 36 35 38 40 29 27 35 40 40 39 31 37 41
58 80 78 62 72 80 98 86 72 66 67 67 64 68 68 64 62 59 52 56 77 93 93 62 56 44 58 42 45 44 44 50 40 46 36 41 38 38 41 41 40 40 39 39 37
84 91 88 81 99 100 100 96 87 73 68 64 61 60 57 64 63 58 53 63 71 90 97 86 54 47 45 51 49 42 46 47 47 45 59 55 41 39 39 40 41 42 41 41 41
92 96 98 78 81 94 96 98 92 88 75 64 60 60 70 66 63 64 59 58 67 68 93 98 80 44 38 43 37 44 49 48 47 49 47 52 45 40 43 40 38 37 43 47 46
93 84 96 100 100 100 97 90 90 91 82 69 68 64 63 61 58 62 68 63 60 58 71 97 89 75 44 55 52 46 52 53 51 47 46 44 46 38 39 39 34 35 37 31 37
94 84 100 97 99 94 89 92 98 92 85 79 71 63 67 63 64 71 68 88 74 66 72 96 96 92 84 58 56 54 52 47 43 41 42 40 37 35 36 40 38 39 32 29 29
81 86 96 96 94 96 96 82 79 76 94 97 84 79 81 79 91 97 97 96 96 86 82 78 84 98 86 66 56 49 52 51 49 47 45 42 37 34 37 36 41 47 56 60 46

GFSSW_700_rhum_060.txt.gz
RH
27 16 14 12 17 13 5 4 5 14 11 10 10 10 10 16 25 44 38 25 24 25 27 10 9 12 22 37 33 31 30 27 23 19 15 18 22 25 22 30 31 36 40 50 35
5 5 4 4 3 2 2 2 2 4 3 2 3 5 4 8 14 27 33 30 24 22 26 20 10 14 26 33 36 31 30 26 23 18 16 16 22 23 21 25 30 33 39 52 48
3 3 2 2 2 2 1 1 1 1 1 1 1 1 2 5 16 33 35 25 21 21 23 25 12 49 55 41 34 30 29 26 21 18 18 18 19 21 23 23 24 33 39 45 30
2 2 2 2 2 2 2 1 1 1 1 1 1 1 2 5 24 32 44 27 20 17 18 25 17 48 46 40 33 28 26 27 23 21 19 19 21 22 23 25 27 34 32 28 33
2 2 2 2 2 2 1 1 1 1 1 1 1 1 1 3 12 36 37 16 19 30 21 22 29 46 44 40 33 27 24 24 23 21 19 19 22 24 26 26 27 37 36 29 36
2 2 2 2 2 1 1 1 1 1 1 1 1 1 1 2 12 31 56 33 11 33 42 32 48 43 40 35 31 25 22 22 21 22 21 19 21 24 26 26 29 45 37 30 36
2 2 2 2 2 1 1 1 1 1 1 1 1 1 1 1 8 25 45 51 30 24 42 35 57 51 42 37 31 26 23 22 23 25 22 22 22 24 25 25 28 40 56 42 34
2 2 2 2 2 2 1 1 1 1 1 1 1 1 1 2 4 23 35 47 43 43 58 49 61 65 56 43 36 29 28 26 24 24 23 22 23 23 22 24 27 42 51 69 52
2 2 2 2 2 2 2 2 1 2 2 2 2 2 4 7 16 26 31 33 35 48 72 52 62 66 58 57 48 35 30 28 26 23 22 22 23 23 23 30 37 36 43 59 64
2 2 2 2 2 2 2 2 2 4 5 5 13 8 31 28 28 24 32 42 55 45 70 68 23 50 54 52 42 34 30 30 26 23 24 22 22 23 27 30 37 38 36 50 63
2 2 2 2 2 2 2 2 15 19 6 4 8 5 7 28 54 33 49 48 67 83 86 76 38 34 52 47 45 34 29 27 25 25 23 23 23 20 19 24 29 32 41 43 57
2 2 2 2 3 3 2 5 9 16 4 4 2 4 6 8 7 26 62 68 78 82 98 62 49 26 34 45 43 40 36 31 28 24 23 21 22 20 19 21 23 25 31 43 52
2 2 2 3 3 3 4 9 20 4 8 13 17 8 21 19 12 8 38 79 84 91 97 94 50 40 34 30 36 36 35 30 28 26 24 24 26 25 18 18 20 25 28 39 48
2 2 3 4 4 5 10 25 8 4 37 66 49 54 32 26 42 10 33 59 69 92 98 98 68 64 72 40 36 34 31 28 29 28 26 24 25 21 19 19 19 22 26 33 37
3 3 4 4 5 5 8 6 8 56 72 32 49 24 24 39 42 50 26 59 73 89 91 98 91 94 68 56 43 40 34 36 33 31 30 27 26 23 20 19 19 21 25 30 32
4 4 5 6 4 5 5 9 27 96 75 30 37 45 40 41 54 52 28 25 34 57 85 77 91 89 57 42 49 39 37 40 37 34 36 31 29 26 22 19 19 20 21 24 30
5 6 6 8 7 6 12 24 87 81 29 27 38 39 34 32 40 55 66 49 42 48 50 66 70 58 70 64 45 41 38 36 43 44 44 32 29 28 24 21 22 22 22 22 29
7 8 8 8 8 7 12 52 84 37 31 33 38 36 29 34 44 50 61 60 52 46 49 72 69 54 56 59 47 45 42 37 56 56 36 30 28 26 24 22 23 26 25 26 32
9 10 10 10 9 9 50 86 51 43 31 32 38 23 18 31 41 42 47 55 56 53 55 65 53 51 60 66 50 53 55 37 37 43 49 45 28 25 24 27 25 25 25 25 27
13 11 9 13 14 26 87 96 69 49 40 52 35 20 29 30 41 38 64 89 76 55 48 48 57 43 40 48 55 54 53 47 40 53 62 38 29 27 27 28 26 26 25 27 30
37 22 22 23 32 84 98 94 61 54 47 53 48 32 38 38 45 45 47 85 86 84 72 48 47 51 36 38 46 51 56 67 59 38 52 54 47 48 38 35 34 37 37 36 37
91 71 57 98 48 74 91 98 78 60 52 49 59 58 53 52 49 49 48 52 69 66 91 75 53 47 62 52 42 44 46 49 59 62 45 44 45 48 48 39 36 39 39 39 38
81 87 66 99 97 93 96 94 84 74 60 57 56 54 51 48 48 49 51 55 63 64 94 93 66 58 50 57 68 52 53 47 53 81 99 71 64 46 40 40 38 39 39 41 43
97 87 81 74 76 100 99 90 85 71 68 67 53 52 47 48 52 54 53 58 62 62 67 94 96 79 53 67 94 79 51 59 65 93 96 94 68 67 56 44 40 36 40 45 43
98 84 80 96 96 96 99 97 94 72 78 66 65 54 50 53 48 49 48 49 55 62 64 76 97 90 73 68 50 67 65 54 58 76 94 67 62 69 76 56 45 39 36 37 38
93 80 94 90 87 97 92 87 90 94 76 70 60 54 55 52 56 54 58 66 64 70 80 92 92 93 85 76 58 51 62 92 68 44 46 58 56 57 68 38 40 38 36 41 58
91 78 99 71 77 93 95 88 72 74 90 81 90 68 60 87 91 79 87 87 86 92 94 93 95 94 87 83 66 53 50 57 72 43 40 40 38 40 40 39 38 42 42 59 47

GFSSW_700_rhum_063.txt.gz
RH
14 9 7 10 6 3 4 4 2 2 2 4 3 2 1 1 2 5 10 17 25 34 26 26 26 9 11 14 21 27 48 36 30 28 20 21 22 23 24 22 24 26 27 26 33
5 4 4 3 3 2 2 2 1 1 1 1 1 1 1 1 1 2 12 18 28 34 33 19 26 14 12 13 26 40 40 35 25 24 25 22 22 22 22 23 25 26 31 37 46
4 3 2 2 2 2 2 2 2 1 1 1 1 1 1 1 1 9 10 19 32 29 31 20 21 18 14 18 20 28 35 30 24 28 29 23 20 21 23 22 23 26 37 43 42
3 3 2 2 2 2 2 2 2 1 1 1 1 1 1 1 5 8 26 34 31 27 25 17 16 20 35 37 26 42 31 30 24 26 26 23 21 19 22 22 25 25 29 32 32
3 3 2 2 2 2 2 2 1 1 1 1 1 1 1 1 1 12 17 25 29 28 23 26 16 22 40 55 51 42 36 31 28 27 25 23 21 19 21 23 25 27 33 37 35
3 3 2 2 2 2 2 2 1 1 1 1 1 1 1 1 1 2 5 11 34 18 44 37 28 49 50 48 46 42 38 31 26 25 23 23 22 19 19 24 25 26 28 31 37
3 3 2 2 2 2 2 2 1 1 1 1 1 1 2 2 1 1 2 15 40 40 16 42 45 55 50 45 43 39 34 31 28 24 22 21 22 22 20 20 25 26 36 40 34
3 2 2 2 2 2 2 2 2 1 1 2 2 2 3 2 2 3 9 20 41 46 35 26 62 63 55 48 41 40 36 33 26 22 23 24 24 22 23 23 24 25 28 40 34
3 2 2 2 2 2 2 2 2 1 2 4 4 7 8 8 6 8 9 23 33 40 44 42 50 62 58 52 52 41 41 30 29 24 24 24 24 23 22 23 23 23 33 36 42
3 2 2 2 2 2 2 2 2 2 4 6 12 13 15 21 14 14 12 27 37 42 36 55 66 54 63 59 56 48 38 33 33 25 28 24 23 23 23 24 28 29 31 37 48
3 2 2 2 2 2 2 2 3 6 9 6 5 3 4 11 4 9 29 33 41 52 65 60 73 66 60 59 51 49 41 42 36 33 34 34 25 25 23 22 26 30 32 34 37
4 3 2 2 2 2 2 3 12 19 5 5 4 5 5 5 6 8 25 41 44 51 64 88 77 74 52 45 48 46 48 44 35 33 39 31 29 25 23 22 22 24 29 32 36
5 4 3 2 2 3 4 8 9 5 8 5 17 13 6 9 14 12 22 41 76 76 77 94 82 70 41 30 45 51 45 39 41 33 33 31 26 24 22 21 19 22 23 28 36
6 5 3 3 4 5 8 5 7 4 25 25 30 27 20 23 41 21 12 34 82 70 78 89 83 98 52 67 43 32 35 39 34 33 32 29 31 25 25 24 18 18 20 26 35
4 6 4 3 4 4 4 4 7 9 93 37 42 35 16 26 41 40 20 38 61 72 74 70 84 89 85 69 47 58 38 38 41 44 33 32 31 29 26 26 22 18 19 25 26
3 5 5 5 4 5 6 6 8 66 89 28 32 34 37 37 43 48 50 31 48 72 80 73 84 86 82 77 78 71 73 68 54 46 48 41 37 31 28 25 24 21 19 20 24
4 4 5 5 7 6 8 13 49 99 26 33 35 40 38 33 36 50 49 41 37 48 51 51 52 72 96 96 84 76 92 64 59 60 60 39 36 34 26 24 25 22 20 21 26
3 4 6 6 9 9 8 33 98 41 44 37 37 35 33 28 35 48 50 61 63 42 43 47 71 65 73 66 86 78 85 77 64 67 48 36 37 33 26 22 24 24 22 22 27
5 5 5 8 10 11 11 98 65 16 30 43 39 31 19 20 33 45 49 52 68 61 49 54 62 68 62 55 66 80 71 62 67 85 66 52 46 33 28 26 26 24 26 25 32
17 7 6 11 15 14 29 62 27 46 59 44 49 32 24 30 38 40 49 59 70 82 52 49 56 52 59 68 76 81 64 77 98 91 95 49 49 44 31 26 25 25 26 28 28
57 22 18 26 24 66 78 46 13 8 54 51 48 51 40 38 42 42 52 78 92 92 74 64 57 48 48 46 66 71 75 97 97 77 71 69 56 49 40 36 32 31 35 36 41
78 74 66 78 80 79 61 33 33 15 54 68 54 56 58 57 55 49 48 60 74 64 59 78 82 61 45 43 49 66 61 77 99 86 65 54 62 53 46 41 40 40 39 40 40
90 67 62 98 97 90 59 50 58 43 38 69 69 58 51 53 53 48 49 50 68 59 57 69 82 74 62 56 51 60 52 85 88 78 95 99 64 74 73 62 48 43 43 43 41
97 90 71 70 74 96 99 91 84 72 50 69 77 63 60 54 50 50 54 63 68 69 66 59 67 96 90 85 93 73 74 67 85 95 90 91 79 83 70 67 59 57 48 47 44
91 99 89 97 75 47 84 81 88 91 85 69 58 66 67 65 51 53 51 49 49 50 56 71 66 73 95 89 91 98 89 78 89 88 99 89 95 100 76 62 69 46 48 38 40
100 94 70 78 78 95 96 74 76 51 97 87 81 62 61 66 56 52 63 66 65 76 82 82 83 92 80 75 75 88 85 79 95 86 95 92 99 99 100 97 74 60 58 49 41
92 75 89 84 80 70 63 95 88 90 68 92 93 84 65 67 80 60 68 66 65 77 92 87 95 91 94 86 79 67 55 63 65 72 92 97 85 64 92 84 68 47 50 46 42

GFSSW_700_rhum_069.txt.gz
RH
9 8 8 8 7 6 6 5 5 4 3 4 4 2 2 1 2 1 2 2 2 3 10 20 28 32 28 20 12 17 26 22 20 14 8 8 11 25 27 28 38 28 25 25 26
8 8 8 8 7 6 4 3 2 2 2 2 2 1 1 1 1 1 1 1 1 5 10 17 28 28 27 25 15 14 17 18 12 10 9 10 12 21 25 25 31 41 24 24 24
8 8 8 7 6 5 4 4 2 2 2 2 2 1 1 1 1 1 1 1 2 7 10 18 27 26 28 27 22 18 16 13 12 10 14 14 14 18 25 24 24 30 31 25 26
41 34 12 6 4 4 3 2 2 2 2 2 2 1 1 1 1 3 4 6 4 5 13 25 31 28 24 23 28 24 17 15 13 12 19 18 19 18 24 23 25 25 29 25 27
13 14 9 5 4 3 3 3 2 2 2 2 2 1 1 1 1 1 1 1 1 4 12 24 28 29 27 23 18 24 23 18 14 16 19 21 25 22 23 23 25 25 27 25 28
8 6 6 5 4 4 3 3 2 2 2 2 2 2 1 2 2 2 2 2 2 3 13 25 27 30 35 33 23 20 25 21 18 22 33 32 24 34 23 22 24 24 27 23 26
8 8 6 5 4 4 3 3 3 3 2 2 2 2 2 2 2 2 3 2 2 2 7 27 28 46 54 40 22 20 28 29 24 26 35 42 42 34 23 24 24 23 25 23 20
25 8 6 6 7 15 4 3 3 3 3 2 2 3 2 3 3 4 4 3 2 2 13 36 39 53 58 50 51 54 48 49 32 37 40 45 38 28 26 26 24 22 24 23 20
10 8 6 5 4 4 3 3 3 3 3 3 2 2 2 3 4 6 6 6 4 4 19 40 43 49 59 60 56 48 55 52 46 34 40 40 36 28 26 25 23 25 24 23 22
12 10 9 7 5 4 4 3 3 3 3 3 3 3 4 4 8 12 13 14 12 12 21 32 44 43 54 59 57 55 59 52 50 40 41 39 35 27 27 25 23 25 25 25 24
6 7 9 8 7 6 6 4 4 4 4 7 8 8 6 8 8 7 17 11 12 11 26 34 36 39 42 42 40 53 56 59 56 49 42 35 33 28 28 31 26 36 23 25 24
2 2 2 5 7 7 7 5 4 9 8 6 6 6 5 8 5 8 17 20 22 16 31 44 41 36 52 53 59 50 52 64 61 51 54 45 38 31 35 36 34 28 23 24 23
2 2 2 2 2 4 5 5 5 4 10 9 8 6 5 4 6 8 26 17 16 32 45 51 38 61 68 70 76 69 53 48 60 57 53 47 40 32 34 38 33 28 26 24 24
2 2 1 2 2 3 4 5 5 4 13 6 17 21 17 16 14 16 23 21 29 31 51 57 38 63 67 82 82 80 63 49 58 54 48 47 58 40 35 37 29 25 25 24 23
4 3 2 2 2 2 3 5 5 5 60 16 46 46 31 24 38 35 38 22 27 35 58 46 68 73 63 68 88 85 66 68 62 60 62 47 48 42 38 39 28 27 29 26 26
5 4 4 2 2 2 3 4 5 12 58 21 44 41 41 27 35 48 48 41 44 47 54 50 57 69 50 64 88 81 81 83 68 65 71 46 47 47 43 37 28 25 26 25 26
5 5 4 3 3 2 3 5 10 52 11 48 50 63 52 41 42 44 46 46 46 52 42 33 30 35 53 60 76 88 99 88 80 78 69 42 46 44 42 38 32 26 25 25 27
6 5 5 4 3 2 3 6 27 10 11 14 31 43 45 43 37 35 42 54 52 53 42 39 36 52 48 51 62 76 97 97 89 88 76 50 54 44 40 38 33 28 26 24 26
5 5 5 5 5 4 4 9 6 11 10 17 27 45 40 42 40 37 45 46 52 54 56 47 57 66 62 69 79 96 99 97 96 95 89 64 49 42 43 36 27 27 24 24 23
6 6 9 7 7 7 10 8 11 18 32 33 58 59 58 52 49 63 46 62 58 60 66 63 58 51 55 77 88 97 99 99 99 98 95 67 69 83 57 40 33 28 28 26 23
8 13 20 25 24 24 38 39 30 25 25 21 37 57 66 78 61 56 72 76 78 85 79 71 63 56 63 80 72 98 99 99 98 97 93 87 90 81 82 73 47 31 29 27 22
18 27 41 56 97 71 41 38 52 57 41 32 19 20 28 79 64 73 63 72 90 72 90 96 95 86 66 56 60 64 84 99 98 99 94 99 93 92 81 90 92 55 31 28 25
36 37 66 75 76 96 95 84 87 81 52 67 66 89 92 76 90 71 74 79 75 63 61 61 86 85 60 56 68 77 78 92 98 97 90 97 91 100 97 86 88 94 81 46 30
78 72 68 72 73 72 93 91 91 97 93 92 98 73 61 90 93 92 80 71 84 77 65 59 58 60 76 75 92 87 93 99 99 99 94 92 91 97 99 98 95 85 86 99 74
96 85 88 94 93 96 96 95 96 92 94 94 90 100 99 90 88 90 70 91 75 62 60 59 59 60 53 55 67 79 72 92 98 99 98 68 72 78 89 99 98 99 94 89 83
97 99 87 86 85 83 91 90 97 95 97 95 96 86 97 98 92 94 76 66 70 65 70 68 68 81 59 61 83 72 70 81 81 99 98 94 82 88 99 99 99 99 99 93 97
92 99 94 89 86 89 75 79 92 95 73 89 94 91 85 88 85 89 80 70 77 71 68 74 76 84 71 71 57 47 66 72 79 78 79 99 86 92 94 87 99 98 99 96 97

GFSSW_700_rhum_072.txt.gz
RH
15 13 11 11 11 11 10 10 9 8 6 5 4 3 3 5 4 2 2 2 2 3 3 4 6 25 33 31 26 18 30 24 24 18 14 12 10 11 13 28 32 41 28 28 29
13 11 10 10 10 10 10 9 8 6 5 3 3 2 2 2 1 1 1 1 1 1 1 3 11 20 26 29 25 24 24 25 21 19 16 14 13 12 18 26 26 36 36 35 36
14 15 18 21 21 14 9 8 6 4 3 3 2 2 2 2 1 1 1 1 1 1 2 10 13 20 24 27 27 27 25 23 22 19 16 15 12 13 16 16 24 27 42 43 44
28 30 25 28 35 37 22 8 6 4 3 2 2 2 2 2 2 3 3 4 7 10 7 8 17 23 26 27 28 28 27 27 25 22 19 16 16 15 16 15 22 26 26 31 34
36 30 24 14 12 15 7 4 4 3 3 3 2 2 2 2 1 2 1 1 2 3 2 6 11 24 28 28 28 25 26 27 28 26 21 16 16 15 17 16 20 26 25 26 27
32 27 16 9 8 11 12 6 5 4 4 3 3 2 3 3 4 4 2 2 2 2 2 5 10 20 27 29 32 29 30 24 22 23 24 22 15 26 13 13 19 27 24 22 26
25 33 28 13 8 8 9 27 15 3 3 3 3 3 2 4 8 7 4 2 2 3 3 7 13 24 31 31 38 35 32 26 23 22 30 29 24 18 8 16 20 26 24 22 23
35 28 23 18 11 9 7 7 10 11 4 3 3 3 3 3 7 9 7 6 4 3 4 7 19 27 33 33 35 44 49 50 32 23 31 41 31 18 15 26 23 27 24 23 23
24 22 18 17 18 25 12 5 5 4 4 3 3 3 4 6 6 7 9 10 10 6 3 9 32 37 39 44 50 56 57 54 54 48 41 44 37 23 25 32 26 26 25 23 23
27 20 17 24 33 27 12 8 7 6 5 4 4 6 8 10 8 8 15 15 15 14 7 10 26 38 40 42 53 56 59 58 55 50 46 47 41 31 30 33 29 26 24 26 24
2 2 2 2 3 4 4 6 7 8 8 8 7 6 6 7 14 17 19 21 25 21 18 22 24 23 24 38 43 47 52 53 55 56 55 50 46 40 34 31 26 27 25 23 26
2 2 2 2 1 1 1 2 2 4 3 5 8 8 7 6 8 10 13 22 22 28 26 37 32 27 38 43 50 52 52 49 46 38 54 56 54 43 40 35 27 30 32 26 27
2 2 2 2 1 2 2 2 2 3 3 1 5 8 9 8 6 6 11 11 27 34 28 34 36 46 57 60 66 75 69 68 65 46 44 59 57 48 44 38 28 38 36 33 28
3 3 4 3 2 2 2 2 2 3 7 8 42 36 29 23 18 11 10 11 25 30 40 43 34 46 51 58 68 87 80 83 75 54 54 53 57 53 46 36 29 39 34 28 26
5 5 5 5 4 3 3 2 2 3 20 6 48 49 41 34 44 34 39 35 27 31 41 39 54 58 59 62 69 73 86 83 70 72 75 65 59 53 41 33 28 36 33 28 26
6 6 6 5 5 4 3 2 3 5 18 11 67 67 52 51 43 49 44 42 34 36 52 39 44 47 43 45 62 72 86 83 82 78 85 67 64 51 34 29 28 33 35 30 26
7 7 7 6 6 5 4 3 4 10 5 24 53 47 47 45 44 42 46 46 44 53 47 38 35 29 34 53 49 65 95 91 90 90 86 52 63 53 39 41 40 34 32 28 31
8 8 7 7 6 5 4 4 6 7 6 13 21 38 35 56 58 51 55 54 49 52 52 48 41 45 50 48 46 59 93 90 89 88 78 50 61 46 53 49 39 37 30 28 27
9 7 6 5 4 4 5 6 5 14 26 12 4 13 44 52 51 47 42 46 50 53 53 51 51 64 62 66 72 86 97 92 98 91 98 62 48 46 49 42 35 29 29 28 27
8 6 5 6 5 5 8 9 13 24 46 63 47 48 69 61 54 58 57 61 62 59 59 58 63 58 58 61 80 87 98 99 98 98 89 67 74 96 69 54 41 29 25 27 25
6 5 10 9 13 16 21 21 16 21 46 36 46 64 54 47 56 61 61 82 81 82 67 61 64 64 66 77 70 86 94 96 98 86 98 94 97 100 100 85 51 37 26 26 26
5 10 21 23 37 71 76 87 74 54 63 57 46 33 27 44 53 82 85 80 88 85 91 80 84 88 68 60 72 70 70 73 98 99 94 99 98 100 100 98 96 57 41 29 28
9 18 30 47 63 76 87 91 96 77 73 70 71 71 95 94 89 71 74 96 98 87 97 78 95 82 57 77 90 91 88 87 91 98 99 97 91 100 99 100 98 98 88 65 36
19 42 52 77 78 90 98 77 91 89 88 93 88 84 60 77 95 89 87 94 99 92 82 66 62 54 60 56 68 64 81 89 96 99 98 91 88 99 99 99 100 98 100 100 99
41 57 63 76 92 90 91 89 87 94 94 92 96 100 99 92 56 83 64 84 81 95 75 64 58 55 50 54 65 80 79 61 85 77 98 98 96 98 94 99 99 99 89 83 100
53 62 76 83 84 80 81 76 88 98 93 90 95 96 97 96 91 100 98 82 95 81 88 73 67 68 53 60 73 76 57 51 62 78 92 68 68 65 98 99 99 96 98 96 56
74 89 98 98 94 90 79 76 73 85 75 83 83 91 80 93 86 91 92 92 91 97 87 75 73 74 65 56 46 37 61 63 71 80 75 81 70 96 94 84 84 95 100 96 96

GFSSW_700_rhum_078.txt.gz
RH
50 48 45 42 39 36 33 30 29 32 33 28 22 19 17 16 15 13 9 7 5 6 5 5 3 5 18 40 36 30 38 31 26 28 26 24 20 21 22 22 20 18 31 28 28
51 49 45 43 40 36 32 38 42 39 35 32 30 28 22 17 16 14 9 5 4 3 2 2 1 2 7 28 35 34 33 29 28 32 31 28 28 25 28 28 25 20 19 31 35
48 46 42 39 37 38 41 45 44 38 35 36 35 28 23 21 16 12 6 4 3 2 1 1 1 2 5 18 31 36 34 31 37 37 34 32 30 26 29 30 28 17 28 28 30
47 41 40 40 45 48 46 45 42 40 30 24 23 12 8 5 9 8 6 3 2 2 4 4 5 10 18 35 25 38 46 40 37 42 42 38 35 33 32 34 29 14 14 16 23
41 38 41 47 50 47 38 30 20 14 16 19 22 22 19 19 8 4 3 3 2 2 3 15 18 23 37 35 34 37 36 34 38 32 26 34 35 27 32 35 22 21 12 12 18
41 41 46 51 44 28 21 24 24 16 13 13 22 26 29 18 16 9 4 4 6 5 5 10 15 35 51 44 32 41 35 41 45 41 27 32 32 38 34 23 27 24 17 10 17
43 49 54 38 28 27 26 24 26 26 23 18 17 10 10 18 13 9 10 4 8 11 6 9 12 31 53 48 29 25 40 44 43 43 46 42 39 40 26 24 36 33 31 11 14
56 58 40 30 32 29 28 30 30 31 32 27 16 11 11 10 16 16 7 4 5 12 15 12 11 25 51 43 31 34 43 39 32 50 46 46 35 29 33 36 40 39 32 16 11
51 32 32 29 34 32 29 33 30 20 12 10 10 10 12 10 12 12 10 10 10 10 16 16 12 37 52 51 43 44 32 34 38 43 43 46 39 41 42 40 38 36 33 30 27
32 28 22 25 16 11 8 3 2 1 1 2 4 10 13 12 10 10 13 18 21 20 21 22 39 47 41 53 33 29 35 35 42 46 51 46 42 43 45 44 44 40 38 35 32
25 6 3 1 1 1 1 1 2 2 1 1 1 1 1 2 4 10 9 10 23 30 46 31 48 42 39 47 39 41 48 42 38 40 43 41 39 36 37 45 47 44 42 36 33
2 2 2 2 3 3 3 3 3 2 1 2 9 20 21 13 6 8 10 15 36 68 68 62 55 42 45 49 55 49 44 46 49 54 55 48 43 40 37 36 38 45 46 40 34
2 2 3 4 4 3 3 3 2 2 2 6 23 40 36 26 28 23 16 16 56 63 72 55 44 45 48 54 60 58 61 57 62 66 64 57 42 36 39 43 39 43 44 41 38
3 4 4 4 4 3 3 3 3 2 4 9 27 47 47 41 43 41 25 22 68 62 62 64 59 45 73 65 73 60 72 69 68 65 40 51 34 34 39 40 38 38 43 40 35
5 5 5 4 4 4 4 4 4 3 11 24 41 38 42 45 48 48 44 33 51 62 52 52 63 41 64 63 77 62 83 71 67 70 65 55 53 36 43 43 41 39 40 40 40
6 6 5 5 5 5 5 5 5 10 9 26 25 30 35 36 45 48 55 49 51 64 78 63 61 39 74 80 78 78 73 57 59 67 61 47 50 35 37 47 44 50 47 48 36
6 5 5 5 6 6 6 6 13 10 7 38 26 26 11 34 51 51 65 64 57 60 56 55 56 67 45 76 79 77 56 34 47 63 46 46 48 42 44 64 65 59 56 36 24
6 6 6 6 6 6 6 5 10 13 7 8 6 4 26 44 36 36 48 52 62 60 49 41 42 46 52 66 52 67 57 45 50 42 34 47 45 42 63 46 52 44 42 46 32
6 7 7 7 6 6 6 20 18 36 18 9 9 31 27 60 36 45 43 44 58 60 50 46 46 56 60 59 69 84 78 71 74 67 66 43 40 54 77 87 86 53 44 44 38
8 8 7 6 6 5 5 15 13 10 12 24 40 54 49 60 44 51 47 83 90 72 64 55 49 57 60 59 64 84 81 93 89 76 55 32 40 52 95 98 69 54 47 43 38
9 8 7 6 4 4 11 19 10 15 18 34 61 62 43 46 41 47 46 84 85 93 79 64 60 63 67 78 65 89 87 93 93 87 59 51 88 98 85 78 75 67 56 35 27
10 7 6 4 6 8 32 17 28 46 50 59 54 81 65 58 44 44 42 62 90 94 95 85 84 63 54 59 72 68 70 87 75 74 95 94 74 100 100 98 85 99 88 71 54
8 6 6 6 11 25 28 29 38 65 96 100 100 96 84 75 70 56 52 51 67 77 98 98 96 69 59 82 86 80 86 88 97 98 94 91 87 99 99 97 98 97 99 99 97
6 6 9 13 15 27 38 49 73 68 73 79 89 93 97 95 90 72 63 76 53 88 80 98 97 76 43 87 83 84 79 84 87 84 69 64 82 92 96 96 98 93 94 100 100
6 8 10 30 66 44 41 49 56 58 56 62 82 91 93 98 93 87 73 60 68 90 62 78 97 90 98 74 95 65 58 57 68 66 66 44 47 54 84 98 92 93 96 100 100
7 10 16 27 36 49 52 81 72 92 62 82 70 98 94 100 100 95 96 96 91 90 79 85 97 95 94 78 82 67 56 45 52 62 60 62 65 76 93 88 98 88 96 95 100
13 17 17 30 67 70 96 96 60 59 66 74 80 57 84 85 73 82 82 78 71 94 93 94 97 94 75 75 62 48 44 51 54 55 76 76 80 97 99 92 100 100 99 93 97

GFSSW_700_rhum_084.txt.gz
RH
70 61 59 57 56 51 46 43 42 40 40 39 38 37 36 33 32 34 33 31 30 26 20 16 10 7 5 8 41 56 51 44 34 29 25 22 19 17 17 16 15 16 16 17 26
76 69 60 56 56 55 50 46 44 42 41 40 39 37 35 33 31 32 30 31 33 32 27 17 8 4 4 4 13 48 53 41 36 30 26 22 20 21 20 19 18 18 16 19 25
80 78 72 65 61 57 54 49 46 44 42 40 37 35 32 31 29 30 24 17 16 17 17 11 5 31 48 43 38 33 39 37 33 28 25 23 23 23 24 21 20 21 22 20 22
88 85 74 76 68 60 54 50 46 42 42 39 34 30 26 27 27 26 24 26 17 9 7 3 3 9 36 35 37 32 30 29 28 30 29 27 26 27 28 26 23 23 24 26 25
88 97 82 77 74 65 54 46 44 45 42 36 30 29 24 24 26 29 30 23 24 22 5 4 8 19 28 25 26 26 25 26 29 29 29 28 27 27 28 27 26 25 25 25 27
98 99 90 84 79 68 54 46 47 45 38 33 31 32 32 29 30 28 26 24 15 17 5 10 46 39 34 32 30 26 25 23 22 23 23 24 24 23 21 24 25 25 25 26 27
99 98 92 85 77 63 52 51 48 40 34 33 36 35 36 32 26 19 20 14 16 11 28 52 49 49 46 42 40 38 36 35 33 31 29 27 26 26 26 26 24 28 28 26 27
99 100 90 82 74 57 54 47 39 36 36 33 24 21 24 20 20 18 15 11 13 11 7 26 48 50 54 51 46 38 33 29 25 23 22 24 25 26 24 26 26 29 28 30 29
100 95 83 70 59 55 44 37 34 27 13 6 4 4 9 20 19 19 13 22 46 23 9 6 10 31 48 52 44 38 37 30 26 23 22 22 28 29 29 30 30 30 26 29 32
100 96 78 56 55 37 32 21 10 2 1 2 2 5 40 52 58 19 24 20 25 24 25 19 24 41 42 40 35 30 28 26 24 23 26 26 27 31 32 30 30 32 32 32 31
100 100 92 63 34 20 5 2 3 8 2 2 53 2 21 32 5 3 2 41 11 48 53 51 47 39 37 34 35 35 36 34 30 26 26 27 27 27 27 25 26 25 32 35 34
96 86 63 31 8 2 2 3 2 13 5 2 2 6 11 11 15 16 6 33 52 54 46 43 43 41 36 34 31 33 31 31 30 29 31 29 28 32 36 35 31 28 26 28 37
69 74 43 11 2 4 4 3 2 2 2 32 5 10 20 19 35 54 23 39 52 46 47 42 38 37 46 42 40 35 33 33 32 31 35 40 35 29 30 22 28 30 30 28 29
91 54 19 2 5 4 4 3 2 2 2 42 18 27 24 21 57 43 29 44 46 45 39 39 38 38 39 41 39 40 34 34 40 38 45 38 40 30 24 29 29 32 32 34 30
27 4 2 4 6 4 3 3 2 2 44 36 62 60 46 34 46 64 46 32 43 41 46 40 36 39 44 44 36 33 37 42 46 53 52 48 36 29 23 24 24 26 30 32 36
11 4 5 5 4 4 4 3 3 25 38 29 49 44 24 29 34 48 50 34 41 43 41 37 37 35 35 42 44 50 51 45 51 51 54 46 32 30 28 43 56 46 48 45 35
6 6 6 6 4 4 4 4 52 54 18 28 34 34 24 18 13 16 28 46 49 43 42 37 43 44 45 50 48 57 56 43 42 36 46 65 68 37 55 72 65 56 60 62 68
7 7 6 6 6 5 5 6 55 14 22 32 25 25 20 15 13 14 22 22 24 23 29 28 26 26 47 55 48 47 54 51 46 51 43 46 88 53 65 71 72 68 76 69 70
8 7 6 6 6 6 5 66 42 41 37 29 11 16 14 15 24 36 32 24 22 20 21 39 31 37 42 46 49 45 42 44 48 44 46 40 38 70 96 97 90 84 84 69 56
8 6 6 6 6 6 6 54 39 36 22 23 26 16 22 25 30 29 29 26 44 65 65 60 61 36 42 51 51 48 50 66 80 70 52 30 42 91 88 97 75 60 65 55 51
8 7 7 7 6 5 41 49 40 26 7 28 34 32 32 33 31 29 26 24 26 60 70 78 76 75 45 77 57 46 54 53 67 68 69 84 95 99 91 89 90 89 84 78 59
9 31 8 6 8 58 59 52 23 51 20 52 36 49 44 46 46 42 38 36 35 35 34 56 86 90 60 40 46 47 39 56 68 58 59 59 70 97 89 79 75 75 74 72 77
29 27 7 5 49 70 57 37 51 63 68 66 61 62 64 60 54 45 44 48 51 45 49 61 82 73 52 43 42 48 50 79 66 77 80 87 68 80 68 87 77 63 62 73 78
19 34 10 9 50 76 58 66 70 31 85 83 74 78 74 66 58 53 50 56 65 67 65 81 79 83 80 72 92 90 91 81 56 72 70 63 78 65 75 91 100 58 67 79 83
10 62 65 72 86 84 48 70 68 74 79 76 83 66 82 66 60 53 57 62 66 66 65 70 76 71 86 68 72 89 94 80 85 96 68 60 51 64 74 93 75 71 64 75 87
11 87 49 96 83 88 71 70 58 66 64 76 86 74 64 63 58 75 69 70 74 72 81 73 87 73 66 68 66 76 77 79 72 93 81 54 46 86 85 99 97 76 79 89 86
8 18 60 91 90 80 81 71 68 75 71 68 65 68 71 68 72 82 81 56 53 82 84 85 93 96 70 58 68 80 57 57 64 61 56 55 98 94 67 77 74 86 98 100 97

GFSSW_700_rhum_087.txt.gz
RH
77 77 73 71 67 66 61 58 55 51 48 46 43 40 38 35 32 30 28 27 27 30 31 29 24 14 5 6 10 43 63 60 51 39 33 30 27 22 23 20 17 15 15 15 15
84 83 81 78 76 68 68 65 59 54 50 47 41 37 35 32 29 28 26 26 27 27 30 32 29 14 6 6 14 37 57 57 43 38 32 32 31 28 24 22 21 17 16 16 16
85 87 86 85 82 84 75 69 64 58 50 44 40 38 35 30 27 26 24 23 20 17 17 16 16 10 13 9 5 9 32 23 36 37 38 39 32 28 26 24 24 21 21 18 19
92 91 94 91 86 88 85 77 73 62 52 44 42 39 35 31 23 29 25 26 27 29 21 9 4 5 23 45 37 42 33 33 31 30 29 30 29 29 30 27 27 25 23 23 24
99 94 99 98 97 91 91 83 78 66 55 48 45 39 34 30 27 22 25 28 28 26 26 11 4 7 12 21 34 38 36 36 34 30 28 27 30 31 31 28 28 26 23 23 24
100 100 99 100 99 95 95 83 79 66 56 50 42 36 33 30 31 28 27 27 27 20 13 5 9 42 43 36 34 31 27 28 25 27 23 24 23 23 22 22 24 26 24 21 22
99 99 99 98 100 98 89 86 77 62 55 43 36 35 34 31 29 30 29 20 15 22 14 20 44 50 46 43 41 36 36 34 31 29 25 26 25 23 21 21 22 18 15 17 15
100 98 99 98 100 98 91 85 73 57 41 36 35 33 28 16 22 21 20 20 17 10 19 16 49 51 47 48 46 46 44 42 25 20 18 22 24 22 21 25 26 25 25 26 28
100 99 99 100 99 91 86 68 57 43 36 28 15 9 12 18 20 21 21 16 13 16 14 10 25 46 40 37 47 46 40 31 25 29 28 26 26 24 24 26 30 30 30 32 32
100 100 100 100 100 97 78 62 32 25 17 5 2 6 6 33 29 22 13 12 17 39 40 31 29 25 22 37 48 49 40 35 35 33 31 30 27 29 28 28 28 31 29 31 32
100 100 99 100 100 99 60 20 10 8 5 4 14 11 14 18 7 8 10 12 29 44 56 52 50 28 27 33 36 35 35 35 34 33 32 28 26 26 27 25 25 23 18 24 28
100 99 100 98 98 87 47 7 7 11 16 4 2 2 2 5 16 27 16 17 56 45 48 51 51 30 38 38 38 38 35 33 32 30 31 32 30 30 29 26 30 30 26 26 31
95 100 98 79 71 28 7 4 3 2 3 3 3 5 22 18 37 56 32 26 48 52 48 51 46 41 40 41 40 37 40 39 36 36 35 37 36 35 36 21 30 31 28 27 32
97 90 55 77 37 16 7 4 3 3 4 17 19 20 34 33 31 34 22 25 35 36 46 46 43 43 41 44 44 43 42 38 35 35 47 46 57 49 28 22 20 27 34 30 29
83 56 90 50 22 7 5 4 3 3 56 39 49 63 55 48 51 36 50 26 20 45 45 40 40 39 39 38 38 40 41 37 36 42 49 50 53 45 40 37 27 39 47 29 30
92 68 38 11 7 6 7 4 4 7 62 48 55 43 30 22 36 46 38 37 35 26 35 39 30 38 36 35 38 40 46 51 52 49 56 43 57 60 59 41 39 45 68 49 32
48 27 13 7 20 6 5 5 8 56 29 33 41 37 24 22 28 19 21 35 48 51 48 39 39 41 42 37 39 43 53 68 58 61 60 44 54 55 64 77 78 74 77 58 44
28 13 17 9 9 6 5 6 51 33 30 31 32 32 23 11 11 13 14 17 23 29 25 25 28 24 29 44 45 50 50 64 73 70 59 46 51 62 82 100 95 98 88 61 55
29 9 8 10 7 7 6 17 52 43 32 30 24 13 14 17 18 22 29 29 34 58 62 68 49 32 43 39 48 51 50 47 55 54 60 48 38 83 88 89 99 80 68 60 59
13 26 9 8 8 7 6 38 43 38 34 26 11 15 20 28 30 30 30 28 25 44 43 61 71 49 49 52 51 48 37 52 59 91 81 47 70 95 94 76 93 90 77 64 48
9 9 9 8 7 6 9 47 37 35 28 10 28 28 34 32 34 36 31 27 27 30 38 37 58 63 63 49 55 49 52 50 52 65 87 86 76 98 74 73 80 90 72 72 60
12 26 15 8 6 9 59 52 46 42 15 11 16 26 42 47 51 48 43 40 40 41 41 43 50 60 56 44 41 69 60 58 60 65 65 67 86 88 78 82 86 79 64 69 71
13 29 11 7 28 59 66 56 38 41 64 63 60 57 64 61 56 49 49 50 53 54 48 54 66 80 44 32 39 72 94 94 87 76 96 90 74 75 63 95 98 99 71 74 88
22 14 8 31 74 83 67 47 37 48 58 56 74 68 72 68 62 57 50 55 64 66 67 66 64 62 85 69 74 91 84 92 95 98 98 90 73 72 72 96 99 98 75 81 80
24 38 36 51 49 76 58 62 75 64 67 54 80 54 58 70 65 55 56 65 68 54 71 77 84 85 82 55 62 78 87 78 91 94 98 79 86 77 76 90 99 95 81 67 87
13 40 83 93 69 54 48 62 62 70 54 84 74 64 71 68 70 66 69 74 78 47 60 82 79 81 71 57 73 64 58 63 56 96 74 85 96 100 98 100 90 80 78 75 94
19 35 67 78 48 81 79 73 65 69 63 58 66 66 66 70 69 60 54 62 75 54 38 46 73 85 76 64 86 76 51 39 41 94 76 88 96 93 83 64 80 79 97 89 86

GFSSW_700_rhum_090.txt.gz
RH
79 81 79 77 79 79 76 73 65 62 58 54 49 46 42 38 34 32 28 26 26 27 26 27 30 27 19 12 10 11 31 34 28 24 23 20 24 23 31 34 28 22 18 16 15
80 82 86 85 82 82 82 80 80 76 70 66 57 50 43 38 36 33 27 24 24 25 27 28 31 31 25 16 7 12 24 27 21 28 29 28 24 22 32 33 28 23 24 36 27
89 90 89 92 90 88 84 89 83 83 78 73 66 55 47 42 39 30 27 24 22 21 19 16 22 28 30 19 10 14 19 19 19 18 22 23 24 28 33 34 31 25 23 27 26
92 90 96 95 96 91 85 95 90 87 83 77 72 61 52 48 35 31 27 26 25 25 27 26 10 10 14 15 19 15 10 12 15 20 28 33 31 30 31 31 30 29 25 25 26
98 96 98 91 99 98 94 84 98 89 88 80 75 63 56 47 37 30 28 26 25 27 28 26 25 10 8 8 12 32 23 28 36 36 35 32 28 26 27 27 29 30 28 26 25
98 98 97 99 100 99 97 92 93 92 86 83 74 62 53 42 30 29 28 29 29 27 22 17 12 20 24 38 39 30 36 36 32 26 26 31 26 27 26 25 23 25 25 25 25
99 99 100 100 100 99 98 98 97 97 88 84 69 56 47 37 32 32 28 30 24 20 24 17 11 41 48 47 47 47 48 40 36 33 32 31 23 25 24 23 22 19 19 14 20
100 100 100 99 99 100 98 98 100 98 86 78 58 41 40 33 26 18 22 24 20 16 14 15 18 33 43 44 45 47 43 44 27 28 25 25 24 19 24 25 24 22 27 27 25
100 100 100 98 100 100 100 98 99 98 83 70 47 36 34 18 14 17 20 22 21 15 11 11 31 43 33 46 46 38 43 31 26 24 34 34 34 32 29 28 28 26 25 30 31
100 99 100 100 100 98 100 99 99 90 68 52 33 26 17 20 18 20 24 16 16 22 30 26 19 16 23 43 45 24 25 28 37 34 33 32 32 30 30 27 28 29 28 29 29
99 100 100 100 100 100 99 100 99 92 66 46 17 15 17 17 19 15 22 15 16 21 23 33 42 18 15 18 18 25 34 37 36 34 36 34 33 25 25 22 22 26 26 20 24
89 98 100 100 98 99 98 99 89 42 21 17 8 6 12 21 8 9 23 17 17 12 34 50 47 27 39 42 40 40 40 40 36 36 36 37 38 32 27 28 26 20 19 19 25
98 100 99 99 99 99 96 85 76 21 16 18 15 6 3 6 10 20 28 18 17 31 43 50 24 44 48 45 43 43 43 41 40 40 40 37 35 34 37 36 31 32 29 30 28
100 99 97 100 96 86 70 34 8 8 5 5 5 6 7 21 24 23 23 22 36 46 53 53 42 49 47 48 44 45 48 45 43 42 40 46 54 39 43 38 57 40 34 28 30
96 96 100 99 82 86 35 8 11 5 57 24 20 34 23 22 51 39 50 36 20 25 46 40 41 39 41 40 40 40 39 40 41 47 45 42 46 38 43 66 73 88 58 57 36
98 94 75 49 88 36 42 19 7 17 66 48 44 52 49 53 54 49 58 38 36 36 34 29 26 34 32 31 37 36 38 40 42 50 62 46 46 50 60 68 63 94 93 61 60
100 95 79 90 62 49 16 22 10 96 19 58 58 60 32 29 32 41 46 29 34 43 42 32 28 28 26 27 38 37 40 64 71 67 72 39 53 52 49 62 85 73 98 91 76
98 95 93 61 38 18 16 8 94 17 36 36 42 35 29 24 24 24 14 36 48 39 44 50 34 24 23 47 39 35 39 58 82 70 47 52 56 53 69 81 75 89 99 96 89
89 67 38 23 38 15 8 63 53 40 33 32 33 26 15 18 15 23 31 30 39 34 43 62 47 40 39 50 49 45 48 49 52 53 67 57 55 70 80 71 62 94 99 94 96
63 53 60 18 13 18 15 54 49 39 34 26 18 14 22 28 30 30 30 28 30 37 42 44 44 51 32 41 54 57 52 52 61 81 84 58 53 61 75 70 74 98 100 93 86
64 31 11 16 30 8 27 48 38 38 36 22 19 19 25 26 30 31 31 37 33 37 33 35 40 43 40 48 62 51 57 69 74 58 83 87 62 51 72 70 85 98 96 87 76
48 44 37 14 8 20 59 40 27 34 29 15 17 25 26 29 29 31 43 39 46 47 43 37 35 49 51 27 29 34 70 89 98 89 81 66 66 57 68 64 70 93 100 85 80
24 32 10 9 39 30 61 48 42 43 29 26 39 37 33 36 34 52 51 52 61 53 45 48 51 58 36 22 36 57 87 93 94 96 98 94 75 59 74 77 79 96 98 79 83
55 44 27 26 47 56 62 59 52 42 33 50 60 56 50 56 64 58 56 51 63 65 65 63 68 70 74 66 52 54 67 62 83 98 95 89 92 92 89 83 90 75 81 75 70
41 16 20 43 64 69 66 49 48 40 26 58 58 37 50 59 57 59 59 56 52 67 66 68 71 84 70 57 55 61 61 49 60 76 97 88 98 97 98 95 97 76 64 62 62
30 31 37 52 72 80 50 75 68 67 58 67 66 67 78 72 70 71 68 59 58 44 54 58 67 78 33 24 41 85 59 58 44 44 69 90 100 100 93 98 95 71 66 70 85
23 37 50 72 58 44 50 66 72 70 58 60 64 60 56 60 64 60 58 52 49 46 40 56 72 69 61 70 75 71 56 35 29 58 78 96 97 98 97 93 95 88 84 85 84

GFSSW_700_rhum_093.txt.gz
RH
77 83 83 78 79 82 80 76 74 73 68 64 58 58 53 46 43 40 35 33 29 26 26 28 28 29 29 25 20 14 18 21 24 22 20 19 20 20 26 34 31 29 28 28 18
84 86 82 81 87 83 83 83 82 77 78 75 68 60 59 52 46 44 40 36 31 26 25 27 28 30 30 25 14 13 13 17 18 18 18 20 22 21 25 27 29 29 28 37 42
89 89 90 85 87 86 88 86 86 80 75 76 76 73 67 63 51 44 35 27 25 24 24 24 23 25 28 27 19 15 17 17 17 18 18 20 16 14 18 23 30 29 28 27 28
85 84 88 89 85 90 91 83 81 86 82 75 79 73 74 71 53 44 37 29 26 22 17 17 13 11 14 18 22 17 15 15 15 18 17 13 19 27 25 28 30 31 29 29 27
91 97 89 94 99 87 90 96 99 96 88 86 78 79 76 70 57 47 43 34 29 26 25 26 28 26 18 10 9 18 18 21 27 31 32 35 35 34 29 24 26 28 28 28 29
89 97 96 99 91 96 90 100 95 99 98 91 82 81 79 67 55 42 33 29 29 29 27 27 19 15 14 12 15 21 28 24 27 22 19 20 22 29 27 26 26 24 24 25 24
100 100 96 94 98 97 99 100 98 98 99 96 93 80 74 61 55 41 37 32 30 31 29 24 12 20 29 20 24 27 27 32 26 27 34 31 31 28 29 27 24 23 22 21 21
98 100 99 100 100 99 99 100 98 100 100 93 99 92 69 66 60 42 31 24 24 29 20 18 19 24 24 29 37 39 40 40 30 32 33 34 30 25 24 25 23 25 20 15 16
100 98 100 100 100 100 100 100 100 99 100 99 99 92 67 57 49 27 24 19 19 22 16 14 45 44 32 30 40 38 42 37 31 20 29 29 29 30 30 29 29 29 28 26 23
68 98 99 100 100 100 100 100 100 100 100 100 94 84 63 48 30 18 20 21 23 24 24 21 22 30 27 36 48 33 35 27 23 27 35 37 30 28 25 25 25 24 25 27 26
64 99 93 99 99 99 99 100 100 99 99 90 90 77 42 30 18 20 33 30 28 31 36 37 40 21 18 20 17 20 22 23 35 36 38 36 35 31 30 31 27 22 25 25 22
100 73 62 76 95 97 99 99 100 98 97 85 90 91 22 18 21 33 35 28 25 20 41 44 35 21 30 42 41 37 39 40 39 39 44 45 41 30 31 26 28 33 33 35 31
72 95 99 98 88 92 99 98 96 99 84 74 61 43 23 35 30 22 18 28 29 30 33 42 15 28 42 45 47 45 46 46 46 48 46 42 35 16 18 31 37 35 56 57 45
100 100 99 100 100 100 95 100 99 94 64 34 44 31 17 20 21 12 34 37 33 22 31 50 22 24 44 48 49 52 44 43 47 45 45 49 50 11 34 40 35 61 56 62 58
99 99 100 99 98 99 91 94 84 32 46 23 15 24 16 10 27 18 31 32 22 25 45 35 45 42 46 45 43 43 40 40 41 44 37 46 53 35 37 43 50 50 55 65 60
98 97 98 97 97 97 75 86 22 17 58 43 26 31 21 26 43 45 45 40 41 32 38 37 39 42 36 39 40 38 38 41 40 40 59 36 49 46 50 51 57 72 71 63 48
96 97 96 97 91 72 91 32 27 79 24 55 51 48 40 60 60 53 56 57 51 54 48 44 43 39 34 27 26 26 38 54 57 69 69 35 52 47 42 63 60 48 53 66 94
95 96 96 95 86 95 58 73 82 19 35 57 63 52 61 49 45 53 56 53 51 53 44 37 33 27 33 47 50 44 43 49 68 77 50 48 56 42 46 58 63 59 65 90 93
97 99 96 81 88 95 87 62 46 49 36 36 57 62 37 28 22 45 31 51 48 38 38 52 50 38 40 44 48 54 48 40 44 52 65 56 53 52 59 73 67 59 78 90 98
99 96 98 95 90 54 44 37 42 46 37 38 39 27 25 22 26 28 32 36 40 38 38 38 35 37 31 34 43 55 66 70 78 92 86 62 58 53 53 67 60 62 65 94 97
96 77 53 30 47 56 33 56 50 47 55 40 38 24 26 29 28 32 37 42 37 31 29 29 30 35 35 32 33 34 45 78 87 90 91 86 62 50 50 59 60 61 60 97 91
81 75 72 56 37 34 52 56 46 48 61 57 26 21 26 24 29 32 37 43 52 44 35 30 29 36 31 14 11 13 51 86 95 96 93 94 76 68 80 84 73 75 72 98 94
56 33 21 21 36 27 63 50 49 46 38 30 34 22 26 27 30 36 45 53 51 40 41 37 39 39 25 50 56 83 66 56 70 94 96 94 73 69 76 99 98 88 86 85 95
70 55 64 24 41 32 64 51 47 45 36 27 33 41 41 39 45 53 57 61 61 54 50 48 46 47 63 37 52 58 44 51 67 69 83 88 71 67 76 80 99 99 99 95 70
60 23 28 48 51 40 62 56 54 50 34 42 49 46 48 54 54 56 54 55 54 54 58 61 65 61 45 44 57 40 25 21 37 45 70 61 64 64 81 100 92 100 97 79 91
61 52 61 37 58 80 67 57 53 41 25 40 37 39 39 37 40 46 50 47 42 44 49 57 62 73 54 52 38 22 15 30 51 41 50 47 40 53 98 100 99 98 92 76 89
63 32 34 68 81 72 61 56 70 58 62 58 61 58 50 43 41 45 41 30 35 31 34 43 56 63 59 60 45 57 68 96 75 61 57 47 59 76 89 99 99 85 62 79 95

GFSSW_700_rhum_096.txt.gz
RH
79 77 80 79 78 83 78 78 74 74 70 66 63 60 54 50 48 45 42 40 38 34 32 29 28 29 30 30 28 20 16 17 18 20 20 20 21 21 22 25 22 21 29 31 26
83 82 83 74 81 83 86 79 80 78 78 76 73 66 66 60 51 50 46 43 40 38 35 32 26 26 27 28 25 22 18 18 19 19 19 19 19 18 21 26 24 21 27 32 33
76 83 81 81 74 81 85 83 79 80 78 75 72 73 73 67 61 55 46 40 34 27 25 26 26 26 27 28 26 22 22 20 17 17 18 18 18 19 18 17 16 20 22 30 30
78 91 88 78 80 86 80 82 88 87 83 84 81 78 82 77 70 61 66 56 48 36 26 21 18 16 14 17 20 24 23 23 21 17 15 15 16 17 16 16 17 20 21 27 31
78 86 92 88 98 95 91 89 91 89 85 86 90 82 82 85 65 73 65 60 51 44 32 25 20 24 27 26 15 8 11 13 17 22 20 21 22 29 27 23 24 27 25 25 29
69 81 89 99 96 100 100 100 99 90 93 83 95 86 83 81 69 66 62 53 43 36 31 28 26 24 21 22 22 21 24 22 19 16 18 19 22 27 22 21 22 24 24 25 25
20 52 72 82 100 98 97 99 97 100 90 92 93 83 74 65 75 79 68 62 43 34 30 30 30 25 27 23 21 20 23 25 22 21 28 32 34 30 26 30 27 24 24 22 22
9 22 68 82 94 79 97 100 95 99 99 100 93 97 73 72 72 77 73 63 38 33 31 29 28 21 29 29 32 39 42 40 34 32 33 33 31 27 25 29 30 29 26 20 18
10 12 24 60 73 89 100 99 100 100 100 100 100 93 73 70 64 66 66 61 32 20 26 28 19 34 39 33 36 39 35 37 33 29 21 26 36 31 29 30 29 27 26 25 26
15 16 25 34 52 79 98 96 100 96 100 100 100 99 83 82 78 59 38 28 17 15 25 28 21 37 38 36 44 39 43 41 34 20 20 31 32 31 28 28 23 21 19 18 18
16 20 32 45 53 78 100 100 99 98 98 98 99 89 79 73 59 41 32 20 18 28 28 25 32 33 20 26 35 37 38 30 18 26 37 32 30 32 24 20 18 17 14 15 21
22 26 47 54 58 99 99 100 99 96 96 96 97 96 98 89 35 31 35 37 36 33 36 45 43 27 27 25 29 32 34 33 38 38 48 46 30 23 16 16 13 12 15 23 37
38 46 61 70 80 97 95 99 99 98 99 75 67 69 79 97 72 33 47 46 47 38 41 43 40 31 39 41 49 48 52 46 47 46 48 46 33 18 15 18 18 31 35 38 54
72 89 60 89 97 79 100 100 98 99 96 67 58 46 51 74 86 42 49 43 43 32 32 48 41 29 46 51 50 54 46 45 44 50 50 45 49 27 20 24 25 29 38 46 44
66 95 99 99 95 100 99 98 98 97 86 41 33 32 43 54 45 37 43 37 42 37 38 42 32 46 33 32 44 48 42 40 41 48 50 45 50 29 24 25 36 42 43 46 52
97 98 96 99 100 98 98 97 97 68 74 42 31 29 26 19 27 23 24 52 43 41 46 28 45 48 45 41 43 41 41 39 42 44 57 39 43 35 30 32 40 48 54 62 79
98 98 99 99 97 96 98 97 91 84 38 49 51 30 25 34 45 38 50 55 46 51 47 38 37 36 38 40 35 29 36 50 52 64 60 48 52 39 37 39 45 60 67 71 76
96 96 92 94 97 96 96 96 75 43 42 40 67 47 36 46 62 59 55 53 56 56 52 50 42 45 45 41 40 50 49 45 64 71 59 46 54 45 41 43 56 63 61 67 74
97 94 91 95 96 96 96 97 72 60 41 31 83 72 61 58 59 65 66 63 57 52 48 46 49 52 51 48 41 54 54 52 52 49 60 50 49 49 48 57 67 63 65 68 67
94 95 92 92 93 96 97 93 62 56 52 63 94 87 42 35 46 53 57 55 50 42 38 37 33 42 46 43 48 51 61 73 70 86 75 62 59 56 65 81 79 71 73 72 75
95 96 98 92 90 97 96 91 86 55 74 84 94 72 32 31 33 45 43 42 41 34 31 30 29 34 34 32 28 24 26 46 77 90 97 93 67 87 85 80 78 85 85 76 72
96 84 93 92 93 92 87 70 84 54 88 64 93 73 37 33 32 34 39 39 35 36 35 32 33 31 24 18 13 15 65 69 66 94 94 96 80 85 74 68 65 72 98 86 77
90 69 42 57 81 74 73 82 78 77 80 93 87 58 48 35 34 32 38 50 54 45 36 32 38 28 52 51 81 72 72 50 55 59 80 92 66 77 66 55 59 71 98 98 99
86 83 64 51 64 52 69 84 76 80 83 50 68 81 79 51 39 36 51 60 58 51 43 36 38 31 30 24 32 35 40 32 28 77 54 44 54 57 61 54 59 91 99 82 98
52 39 45 23 69 54 68 56 60 64 64 82 51 43 45 36 39 48 52 57 60 55 53 45 50 57 54 48 60 62 31 12 16 18 63 18 22 13 26 50 52 98 99 84 94
63 47 65 50 60 58 67 60 69 73 58 44 38 48 48 41 43 50 52 54 52 44 39 45 47 56 55 39 44 46 22 25 38 78 90 34 46 38 34 43 77 100 100 95 77
75 35 48 53 64 69 61 62 57 49 50 49 44 42 43 40 41 33 26 24 27 26 27 29 32 45 48 68 50 28 22 42 84 89 76 100 63 51 48 47 87 100 100 97 78

GFSSW_700_rhum_099.txt.gz
RH
82 82 81 80 82 80 78 74 75 72 72 70 70 70 67 63 61 58 52 46 46 43 39 37 34 32 29 29 30 30 24 23 23 23 22 20 20 20 22 24 23 22 23 23 23
82 83 80 72 75 82 82 76 77 78 76 70 68 70 70 64 59 59 58 53 48 43 41 41 39 36 31 27 27 28 27 25 24 23 21 20 20 20 20 21 20 19 21 25 25
63 82 86 80 73 82 85 82 76 81 80 76 72 68 70 68 66 58 56 54 48 46 38 30 26 28 30 28 26 25 24 24 22 22 19 18 18 18 19 19 19 19 18 21 26
17 46 62 76 82 81 90 86 84 90 90 82 73 84 78 69 78 66 70 68 60 57 54 42 32 24 20 20 20 22 23 25 26 25 21 20 18 21 19 20 20 17 17 16 20
6 12 33 51 73 94 93 91 89 95 93 88 86 85 81 77 62 75 72 73 69 62 59 52 42 24 19 22 23 22 19 15 11 12 16 16 18 23 21 21 23 25 27 23 25
5 6 8 25 55 84 98 96 99 96 96 89 91 88 79 75 71 69 71 70 70 60 52 45 42 32 28 26 25 24 24 24 23 21 20 18 19 25 20 19 20 22 22 25 25
6 7 9 8 23 44 76 79 100 97 98 98 95 90 85 73 85 75 75 74 77 75 61 35 30 30 29 28 24 22 21 22 21 20 21 26 32 28 30 26 27 29 27 24 24
7 8 9 11 9 13 43 72 99 89 96 98 97 97 79 92 79 78 78 82 84 76 59 35 32 33 32 32 32 30 34 35 32 31 35 40 42 30 24 27 30 26 25 27 23
9 8 9 11 14 12 27 61 87 99 100 99 99 98 89 90 90 79 68 65 82 85 45 33 33 32 33 34 32 36 39 37 34 28 29 29 32 27 29 33 32 30 27 25 22
9 8 10 10 14 18 28 56 67 94 100 99 97 90 74 94 94 78 72 50 81 64 31 29 37 34 38 38 38 37 38 37 36 29 28 25 22 26 29 30 28 25 21 14 12
9 9 10 12 15 22 32 97 76 90 86 82 99 82 74 75 95 71 62 64 39 31 25 27 35 38 31 28 32 40 41 42 33 23 20 27 36 33 28 26 19 13 10 10 11
8 10 10 16 24 30 59 73 87 99 98 71 89 61 68 87 86 92 88 60 26 17 18 30 32 32 31 27 34 39 35 28 21 31 46 40 40 30 21 16 15 16 20 19 20
8 10 15 24 33 73 100 83 82 100 100 59 64 65 53 86 64 67 90 89 53 21 24 24 36 30 30 33 36 36 40 36 42 46 44 42 35 23 18 18 19 26 22 29 39
14 20 27 30 56 96 98 99 92 99 98 57 59 57 53 65 73 85 95 95 91 73 57 54 47 45 49 48 46 51 43 47 49 47 45 44 36 35 23 23 28 30 35 40 41
21 36 50 68 84 100 68 90 100 98 91 57 52 53 50 51 66 56 95 98 92 93 92 66 49 41 52 46 47 47 47 46 43 42 47 50 47 40 31 28 35 30 42 40 40
86 97 94 95 99 100 100 98 99 97 92 57 43 33 33 33 60 45 94 96 79 86 61 40 40 49 48 45 30 38 47 45 42 48 53 46 42 39 33 37 37 39 40 45 39
98 100 100 98 99 98 98 97 97 94 72 63 63 51 32 30 59 62 71 62 59 55 55 50 48 46 47 41 45 47 45 40 48 57 41 36 48 36 31 43 42 48 52 48 44
100 97 96 95 96 96 96 98 96 78 56 46 41 66 43 30 58 56 44 62 56 49 46 52 51 46 46 47 40 36 36 37 46 49 44 52 50 47 47 47 51 55 61 48 62
97 97 98 95 96 98 98 95 90 93 82 55 64 90 60 56 69 62 64 61 58 57 52 52 56 58 60 51 46 57 57 48 50 55 50 42 44 48 56 65 67 69 58 60 62
96 97 94 92 97 97 99 94 86 83 75 56 67 96 62 54 59 63 63 53 54 56 56 44 49 58 51 48 46 55 58 67 64 55 45 46 56 58 65 81 76 65 68 60 45
97 99 98 96 98 98 96 92 88 90 90 81 92 94 87 47 65 88 83 85 77 57 41 36 28 38 43 43 46 38 44 56 66 86 69 56 60 89 79 74 68 63 58 53 43
98 100 97 98 88 96 98 87 91 87 94 81 90 94 69 60 51 92 87 87 67 60 44 35 30 29 37 30 25 20 23 28 42 72 98 97 74 98 85 75 66 56 52 53 54
100 96 97 95 96 93 93 91 88 93 93 94 93 93 86 67 46 54 69 60 41 37 36 33 29 29 43 58 60 58 78 58 54 53 68 75 61 82 69 66 60 48 52 51 58
97 95 90 96 96 89 85 89 94 87 93 91 94 94 87 58 49 46 47 58 49 48 40 35 25 17 27 40 60 48 59 46 36 79 55 56 41 16 10 12 13 17 29 53 50
94 82 72 58 78 76 86 91 86 93 95 72 88 80 87 81 61 44 47 48 53 51 45 37 31 28 25 27 26 24 19 27 30 23 42 26 38 17 46 28 17 16 44 77 93
74 54 71 60 62 71 78 77 81 78 84 88 79 61 55 44 35 39 40 54 55 57 55 47 47 52 43 38 41 37 22 18 24 29 37 54 70 57 64 58 29 24 47 96 99
93 54 51 56 68 89 68 73 82 93 87 71 56 48 57 53 52 43 52 51 44 38 34 31 32 34 50 51 45 40 25 31 45 77 86 100 95 98 99 84 63 37 96 98 98

GFSSW_700_rhum_102.txt.gz
RH
73 75 79 81 84 83 79 75 78 73 71 68 69 66 70 66 65 61 60 53 54 49 44 43 42 41 38 34 31 30 31 27 25 26 27 28 23 32 22 20 31 23 25 24 21
53 48 56 62 82 86 84 76 72 74 74 71 69 71 73 69 63 62 63 59 56 53 50 44 40 39 42 37 33 29 32 28 26 29 29 28 25 27 29 26 31 21 24 21 20
20 17 21 38 48 77 81 82 78 72 79 79 72 74 76 75 69 62 59 62 58 54 53 55 49 41 33 30 29 30 33 33 34 26 27 27 26 26 28 31 22 24 19 19 19
4 4 4 6 12 24 45 60 62 70 67 73 74 70 84 83 95 71 70 70 67 67 68 67 60 53 40 33 26 29 24 24 26 24 24 30 31 23 29 21 21 20 20 20 18
4 4 4 4 4 7 12 31 48 70 76 60 79 83 71 76 77 79 76 75 73 71 76 74 68 57 45 33 29 24 24 23 22 20 20 17 18 17 26 18 20 24 22 22 23
4 5 5 6 6 6 6 7 24 32 81 51 75 97 84 45 61 70 80 79 76 75 73 72 61 54 40 37 34 31 31 29 31 27 24 23 27 33 22 20 21 21 20 22 22
5 5 5 6 7 8 8 7 7 17 31 51 60 97 60 50 88 80 76 85 84 85 81 80 75 43 43 40 39 33 34 36 38 31 32 30 35 34 24 23 23 27 32 32 29
7 6 6 7 8 8 8 9 12 11 16 35 44 70 78 60 80 85 78 79 87 88 89 87 86 59 48 46 38 35 41 36 35 36 37 34 30 36 34 27 30 33 36 31 28
7 7 8 8 10 10 9 10 13 14 19 33 46 56 73 51 67 70 70 72 80 90 97 97 85 55 56 52 42 41 35 33 34 41 39 38 32 34 33 28 32 34 35 34 26
7 7 6 8 10 10 10 14 18 20 24 28 31 38 31 50 67 77 76 68 68 68 80 86 48 59 58 48 42 36 36 34 34 33 30 35 34 34 28 31 38 37 38 25 21
7 7 7 8 9 9 14 23 47 53 17 16 32 16 42 61 72 70 89 82 87 96 85 72 61 60 52 47 44 42 36 34 35 36 38 34 29 27 33 37 38 37 24 14 12
7 6 7 8 10 12 20 27 58 38 44 34 31 16 30 62 68 70 72 84 80 78 77 84 80 63 53 51 47 45 40 36 34 33 30 31 33 35 36 35 35 37 21 22 22
4 5 6 7 13 15 23 48 48 73 99 38 39 33 71 71 54 78 92 96 90 89 64 86 75 56 56 56 53 46 38 34 29 36 44 42 36 32 34 32 19 19 22 27 38
2 2 4 8 26 20 33 55 52 100 99 63 49 53 53 58 59 60 84 97 97 94 100 89 66 43 66 57 48 40 37 35 39 44 32 40 22 29 30 42 24 28 32 43 43
2 3 8 17 28 36 61 68 58 99 91 62 69 55 53 53 64 72 78 100 98 96 94 76 82 93 92 57 48 42 44 50 45 47 42 37 35 21 32 40 58 68 41 45 32
7 16 23 53 62 71 94 83 92 99 92 75 60 49 40 36 40 76 54 100 100 98 97 98 98 91 73 71 66 54 56 54 53 46 42 33 31 21 32 36 56 82 45 42 37
29 78 78 93 99 89 100 100 98 96 83 69 70 73 64 65 32 83 77 99 98 98 97 96 93 70 63 64 58 80 52 51 52 48 36 28 28 22 36 59 73 73 49 46 39
44 82 97 99 100 98 98 98 97 95 72 55 49 63 80 67 57 70 100 100 98 81 66 71 65 57 55 53 51 64 47 50 52 35 26 42 31 46 64 51 48 50 54 54 46
100 100 98 98 95 98 100 97 96 94 86 75 70 80 70 63 51 56 66 76 68 66 59 55 59 52 52 48 50 50 49 39 39 40 36 29 40 89 97 58 59 60 65 62 58
98 97 97 99 96 100 99 99 93 89 74 72 76 81 81 52 54 58 59 66 64 70 62 58 60 64 58 58 55 61 50 55 50 46 40 24 26 33 99 95 85 79 64 57 48
96 97 96 97 99 100 100 100 99 90 81 90 92 85 92 65 58 89 68 60 52 61 75 58 51 58 52 51 45 48 56 63 65 57 44 38 35 61 94 72 68 64 60 56 49
99 98 97 98 97 100 100 100 94 98 92 97 79 90 86 86 95 95 86 82 55 70 79 54 38 39 48 36 37 42 58 55 44 39 52 65 45 69 63 69 78 72 61 52 51
99 97 100 98 97 99 100 100 96 97 95 99 92 96 94 95 74 95 96 90 90 93 91 56 51 52 48 51 31 48 37 30 32 37 43 42 39 56 67 73 49 36 12 14 18
98 97 99 99 96 97 100 98 98 94 99 93 99 95 97 93 72 84 93 89 58 50 62 42 30 34 27 40 54 60 62 57 46 61 38 37 28 58 48 34 53 73 34 14 12
97 100 81 95 98 96 98 95 93 91 98 98 97 96 95 90 64 78 67 57 56 57 43 35 42 25 38 24 34 55 56 51 45 36 38 24 25 28 52 85 87 54 48 21 21
94 90 77 65 100 94 98 94 86 95 96 91 96 84 96 96 91 76 57 70 67 54 45 38 44 27 45 53 57 51 45 44 45 41 36 37 44 79 87 89 79 83 62 39 36
92 68 74 86 99 100 98 90 87 88 85 94 85 67 79 62 53 45 48 49 46 48 45 33 22 30 30 52 50 36 47 43 40 47 71 76 87 77 83 99 95 95 83 56 76

GFSSW_700_rhum_108.txt.gz
RH
87 87 82 81 77 70 58 45 38 30 30 37 58 72 71 63 61 65 58 43 58 56 58 56 55 52 49 46 44 39 35 33 29 26 24 22 21 22 23 24 27 29 30 28 30
69 60 66 65 61 46 29 21 16 9 9 11 13 16 29 19 25 41 47 40 44 59 57 56 57 61 55 46 43 40 36 36 33 28 26 24 23 22 24 26 28 30 30 30 32
37 24 14 10 9 10 7 4 4 4 4 4 4 5 9 7 7 27 28 45 62 63 66 69 65 64 60 56 42 39 39 39 37 34 31 29 27 26 25 23 23 26 28 29 32
8 5 4 3 4 4 4 3 4 4 4 4 4 4 5 6 34 31 23 40 55 50 44 49 58 62 65 54 49 42 38 38 37 36 31 29 28 28 30 27 26 27 27 27 30
3 3 3 4 4 5 5 5 5 5 5 5 6 5 5 5 4 11 12 17 22 38 44 45 66 71 60 55 51 47 42 38 36 34 32 28 27 28 27 26 25 24 26 27 29
4 4 5 5 6 6 6 6 6 5 5 5 5 5 5 4 5 6 7 6 10 17 19 45 60 70 66 64 58 50 46 42 38 30 30 31 30 29 29 26 25 25 26 27 28
6 6 6 6 6 6 6 6 6 6 6 5 6 6 4 3 6 5 6 6 6 6 17 44 58 71 67 63 57 52 48 44 43 42 38 34 34 32 35 33 30 28 28 28 30
7 6 6 7 8 8 8 8 7 6 6 6 7 6 4 4 5 4 5 6 9 12 18 42 57 72 72 65 61 58 57 56 49 44 39 36 35 34 32 30 30 28 29 30 33
8 7 7 8 9 9 9 8 8 8 8 7 7 7 5 7 6 11 12 12 15 24 34 68 76 64 72 71 66 60 60 57 53 48 41 36 35 34 32 31 28 28 30 30 31
9 10 7 9 9 9 9 8 8 10 9 10 9 10 15 27 25 26 32 21 20 31 54 57 56 54 70 66 68 50 47 46 48 49 44 38 36 32 32 29 30 30 28 29 30
12 12 11 10 11 10 9 10 12 10 8 7 12 8 10 19 23 56 63 67 51 46 77 70 70 66 53 49 54 51 50 52 50 48 52 52 60 35 32 32 29 30 29 28 30
14 13 12 11 10 9 8 9 9 12 11 6 7 6 5 8 13 20 42 58 74 77 69 61 52 46 50 52 56 62 67 68 72 62 55 54 63 57 33 30 29 29 25 30 33
10 9 9 8 8 7 6 7 10 15 18 6 7 5 7 18 10 11 58 69 71 72 65 61 52 47 50 62 62 57 58 70 73 71 68 68 76 50 40 31 27 27 25 31 39
4 4 5 5 6 6 6 6 11 46 78 12 28 23 45 51 52 20 56 72 75 66 70 66 58 55 48 57 61 62 67 72 80 86 92 81 85 54 43 33 27 26 28 44 62
3 2 3 4 4 4 6 12 52 100 72 16 36 49 60 51 37 54 70 68 64 74 72 62 65 70 64 55 52 76 93 98 98 98 95 76 80 58 41 41 40 34 47 67 84
4 3 3 3 3 4 10 52 99 98 74 34 39 45 54 60 64 57 62 76 76 81 88 86 82 88 96 90 78 94 96 90 98 98 96 71 68 71 63 46 39 43 67 93 96
4 4 3 3 4 23 42 99 98 93 43 35 36 51 55 58 72 74 65 70 84 96 96 83 85 88 82 92 81 97 90 94 94 94 69 51 66 79 70 70 39 72 99 99 58
4 4 4 5 14 71 93 98 98 50 56 44 48 39 49 52 54 62 63 57 83 88 71 72 70 83 92 92 81 88 78 80 90 85 57 60 94 92 96 82 78 85 99 100 34
4 11 8 32 87 100 99 100 95 70 51 55 50 50 45 48 52 58 68 58 55 85 94 67 65 79 84 83 87 94 97 52 82 87 96 82 80 78 99 96 99 98 98 97 44
13 17 90 99 100 87 99 91 93 87 77 84 78 69 59 53 59 82 56 59 53 84 78 96 71 71 82 81 74 69 81 98 98 88 87 48 65 91 98 87 99 98 98 90 75
82 100 98 100 100 96 97 86 95 87 87 82 76 68 79 71 68 97 94 60 58 80 88 90 70 76 85 68 48 61 57 97 97 69 78 60 96 99 99 99 98 95 69 56 62
98 98 85 100 98 96 89 98 93 98 82 68 69 73 70 75 74 62 86 95 97 93 90 81 73 70 64 52 53 54 60 89 98 94 97 93 83 96 94 89 85 55 55 54 56
94 98 98 99 98 93 85 95 96 86 85 77 74 77 81 86 84 78 91 92 76 63 68 81 80 62 79 70 54 52 58 50 66 57 50 50 52 71 87 79 72 76 90 56 45
99 99 98 97 92 92 98 96 97 88 82 82 84 95 82 83 76 91 97 89 77 82 67 81 68 64 67 72 55 49 44 43 43 55 44 38 50 79 60 52 82 86 69 57 39
100 96 85 90 84 96 99 95 98 95 80 87 96 92 87 82 76 92 91 98 84 79 74 81 73 60 60 42 41 47 38 37 37 37 41 40 29 56 71 92 82 54 48 53 42
95 95 98 98 90 94 96 94 89 86 86 81 91 91 93 92 82 85 88 94 94 91 91 93 90 77 62 46 41 36 30 30 34 34 28 26 29 80 76 57 57 53 54 42 62
97 95 97 92 96 96 82 92 93 93 92 82 90 93 95 95 93 93 95 94 85 85 92 86 72 61 47 45 37 30 35 28 28 26 38 33 77 100 74 60 50 42 42 63 74

GFSSW_700_rhum_111.txt.gz
RH
68 79 86 81 78 73 67 59 47 29 15 9 8 6 5 4 6 9 6 12 15 22 33 48 52 53 52 50 47 45 42 37 34 32 28 29 29 27 24 23 23 24 24 23 26
42 47 57 70 49 43 38 23 11 6 4 4 4 4 4 3 3 3 4 7 13 25 36 49 55 61 60 57 52 45 44 40 36 35 35 33 30 29 27 25 24 24 26 26 26
32 34 49 52 35 15 8 4 4 4 3 4 4 4 4 4 3 6 10 8 12 19 49 58 60 48 47 55 55 53 46 42 39 37 36 36 31 31 29 27 25 25 24 25 28
27 22 19 15 8 4 3 4 4 4 4 4 4 4 4 4 5 4 4 4 6 10 12 18 23 31 35 42 44 55 51 44 41 39 39 37 35 34 31 29 28 27 25 27 27
7 5 4 4 4 4 4 5 5 5 5 5 5 4 4 4 3 7 4 4 5 7 8 14 17 24 33 60 62 55 52 51 47 45 40 37 36 35 32 30 28 29 28 28 27
4 4 4 4 5 6 5 6 6 6 5 5 5 4 4 4 4 4 4 3 3 3 4 6 7 25 54 55 63 60 55 53 52 47 40 37 35 32 32 30 32 30 28 24 23
6 7 7 7 6 6 7 7 6 6 6 6 6 5 4 4 5 4 4 4 4 4 5 5 8 28 46 51 52 62 58 50 49 49 46 44 36 39 37 35 31 34 33 29 28
10 9 10 8 7 7 7 7 7 6 7 6 6 5 4 5 4 6 5 6 6 6 5 9 17 19 30 42 48 58 55 52 26 33 37 49 42 41 38 37 36 32 31 30 29
10 13 12 10 9 8 9 8 9 9 8 7 6 5 5 6 8 12 10 11 6 5 7 8 16 36 53 56 62 66 54 54 24 51 49 51 48 47 47 43 38 36 32 31 29
13 15 13 12 11 10 9 9 10 8 7 7 6 7 11 22 10 8 13 24 15 9 13 18 30 48 54 48 62 42 54 57 56 52 49 44 45 50 57 52 39 33 31 29 28
17 16 15 14 11 9 11 9 10 8 6 6 6 5 5 10 15 47 52 22 14 19 17 20 47 65 21 44 59 58 62 55 52 56 63 54 56 58 45 52 44 40 30 29 30
17 17 16 15 13 12 12 10 10 9 7 6 6 5 5 7 37 54 38 49 52 58 51 52 37 34 44 56 56 51 52 54 52 55 64 60 60 60 41 32 44 40 38 31 31
11 11 10 10 10 10 10 9 8 7 7 6 6 5 6 10 6 9 17 18 44 67 74 60 35 57 59 56 52 49 53 61 57 57 60 63 61 48 26 39 40 51 41 36 32
4 4 4 4 5 6 6 6 7 12 20 7 8 12 17 19 19 19 17 26 59 68 64 72 70 69 64 62 58 56 58 62 60 67 88 77 85 49 43 44 46 56 47 42 60
4 4 3 3 3 3 4 8 23 51 92 13 31 39 48 28 26 44 39 60 41 40 79 59 60 67 65 67 66 64 64 69 72 76 94 77 93 57 67 52 51 59 60 68 75
5 5 5 4 3 3 5 24 87 95 92 14 25 37 47 50 47 54 55 65 61 73 73 68 77 74 69 68 73 65 65 65 75 96 96 75 80 65 63 62 59 90 86 76 88
3 4 4 4 4 7 24 66 99 91 34 28 33 35 35 44 57 65 65 64 66 71 68 62 73 80 78 77 78 82 83 90 94 98 86 52 76 79 65 63 66 83 99 98 94
5 4 3 4 4 18 73 97 96 56 50 30 33 34 45 48 53 63 66 64 67 73 70 74 72 61 69 68 66 84 82 83 94 92 88 76 93 66 79 99 99 99 98 98 99
8 6 4 3 14 56 97 100 91 62 56 45 38 38 43 45 43 50 54 65 65 68 80 68 67 67 73 72 88 96 97 76 95 81 84 61 60 82 94 98 95 99 99 92 95
21 14 11 9 84 98 95 93 79 67 64 64 73 62 49 46 46 51 56 71 70 66 72 76 72 64 78 84 82 85 80 94 97 93 89 60 74 98 98 98 98 97 98 95 88
85 30 25 67 99 97 99 97 90 70 81 80 75 76 61 61 60 65 84 74 68 70 88 95 75 75 73 88 71 79 90 95 88 94 96 85 98 98 96 95 96 95 94 97 92
100 96 57 96 98 98 96 98 84 75 84 85 88 78 79 76 73 66 77 77 71 60 97 98 98 84 72 66 74 79 80 70 96 90 98 97 98 98 96 90 98 100 90 68 58
96 96 98 96 98 94 97 97 100 84 90 94 83 76 75 72 80 76 76 80 85 82 98 97 98 88 65 65 66 61 57 64 69 71 71 70 88 94 92 98 93 92 69 59 49
96 98 98 97 91 92 94 87 97 92 96 94 80 83 79 74 80 83 75 79 88 84 94 90 87 66 63 71 70 58 53 55 61 53 50 44 67 96 98 99 95 80 63 44 39
97 90 68 74 81 90 99 98 91 99 91 91 93 86 82 82 85 84 80 87 86 91 92 97 95 80 64 64 53 53 46 48 49 45 40 39 48 74 81 79 72 61 53 47 44
96 84 85 86 84 78 84 95 90 82 96 93 87 80 83 76 82 79 80 97 84 82 97 95 95 93 76 63 42 41 39 30 32 35 36 30 72 98 81 68 69 70 57 41 32
97 77 96 89 76 95 72 67 80 85 91 87 80 69 86 85 96 91 95 92 96 77 90 96 96 90 91 69 62 42 38 34 32 37 40 35 83 84 79 76 71 54 39 38 52

GFSSW_700_rhum_114.txt.gz
RH
77 67 61 52 59 71 68 62 51 35 20 10 5 4 3 3 3 3 3 3 3 5 7 16 22 39 47 53 50 50 47 43 39 35 32 30 31 31 34 30 26 27 25 24 24
78 63 42 31 28 38 54 43 20 9 4 4 4 3 3 3 3 3 3 8 8 9 11 25 41 43 40 49 53 53 48 43 42 41 38 33 30 28 34 32 28 27 27 29 28
82 63 42 33 25 30 34 22 8 4 3 4 4 4 4 4 3 8 6 4 4 4 4 6 6 8 11 20 32 42 45 48 48 48 44 39 34 34 32 33 34 30 27 25 27
75 51 32 21 24 17 12 6 3 3 4 4 4 4 4 4 4 4 3 3 4 4 5 7 8 9 12 14 18 32 32 44 49 51 46 43 41 34 35 36 32 32 30 28 27
58 27 16 8 6 5 4 4 4 4 4 5 5 5 4 4 5 5 5 4 4 4 4 4 5 8 10 8 11 18 16 26 37 48 50 47 42 42 38 32 33 32 32 30 29
20 7 5 4 4 4 4 5 5 5 5 5 5 5 4 4 6 6 5 4 4 4 4 4 4 8 10 15 21 18 14 14 22 36 36 34 22 41 33 30 24 28 30 32 33
6 6 6 6 5 6 6 6 6 6 6 5 5 5 4 5 6 5 5 4 4 4 4 6 7 7 13 18 23 18 15 17 24 21 33 31 10 21 22 29 30 33 33 36 32
8 9 9 8 8 8 8 6 6 7 6 5 5 5 5 5 5 5 5 6 8 6 4 6 10 14 23 27 15 19 17 13 29 24 21 38 10 34 42 52 52 51 46 39 40
14 13 13 12 10 9 8 7 8 7 6 6 6 6 7 8 8 8 8 8 5 6 5 4 9 34 45 36 42 38 20 14 38 39 50 54 32 44 50 49 51 53 51 46 40
16 17 16 15 12 10 9 9 9 7 7 6 7 10 12 13 6 5 5 6 10 12 10 9 16 36 24 27 32 21 34 35 48 51 56 55 43 27 33 35 34 41 49 48 44
20 22 19 16 13 11 11 10 9 9 7 7 7 7 7 7 6 14 12 9 11 14 14 20 44 39 10 20 32 45 50 50 50 54 52 52 48 37 32 45 34 24 31 38 49
22 21 19 17 14 13 13 12 11 9 8 7 7 7 6 7 14 17 18 12 19 18 30 30 29 20 36 46 54 61 63 58 50 51 56 57 52 43 26 31 26 21 26 50 76
18 17 15 14 13 12 11 10 10 9 8 7 8 7 7 7 6 8 14 16 25 51 34 31 35 50 61 66 67 65 62 57 54 54 58 64 59 32 31 25 26 28 32 66 77
7 6 6 6 6 6 6 7 8 7 9 9 9 12 12 11 10 10 11 24 48 39 42 70 74 61 54 65 66 68 65 63 61 64 72 82 80 19 37 29 40 45 50 55 93
4 4 4 3 4 4 4 5 6 8 31 14 19 30 20 22 24 26 23 31 26 27 47 47 62 70 72 70 71 70 67 65 67 68 68 68 86 40 42 40 55 66 71 80 81
6 6 6 5 4 4 4 8 19 31 62 9 32 31 34 27 36 32 31 39 49 53 65 73 69 70 74 79 75 70 72 73 73 77 95 61 67 58 58 71 82 94 98 94 88
4 4 4 5 4 6 11 42 98 93 16 16 17 27 32 39 48 58 49 57 61 82 82 56 55 64 76 83 84 86 88 87 83 90 87 62 71 64 97 81 76 87 82 98 99
7 6 4 4 4 6 80 93 93 28 17 21 28 42 44 47 51 53 69 70 70 67 64 68 65 57 60 61 73 79 79 81 90 93 89 71 71 97 100 98 97 99 99 84 97
10 9 7 6 4 39 88 100 71 32 26 26 26 37 44 46 52 51 55 46 48 63 77 76 73 63 55 62 69 92 86 80 93 86 89 64 78 100 97 94 96 97 97 98 96
17 13 10 8 19 84 97 97 50 30 46 69 80 60 48 41 48 51 50 63 61 59 67 74 76 69 69 71 80 84 81 95 93 96 96 69 97 96 94 96 94 96 95 95 98
48 29 10 12 64 95 98 65 78 56 57 60 69 79 74 65 56 49 53 62 70 68 75 80 82 80 72 79 74 83 95 88 88 88 97 95 97 96 96 94 98 99 94 96 95
93 91 45 82 99 98 92 56 55 76 68 80 90 73 81 72 75 65 62 62 69 66 76 74 94 100 85 71 69 76 72 74 90 89 100 93 96 99 89 100 96 85 82 63 54
96 98 95 77 74 73 87 99 99 92 78 80 86 82 77 80 82 80 71 75 77 69 66 72 99 97 96 84 74 81 78 72 78 89 94 88 88 92 98 97 95 84 72 51 44
98 98 97 95 71 94 100 97 96 76 87 94 90 75 88 79 76 81 74 76 79 81 77 78 95 96 88 75 69 73 73 67 71 96 75 67 76 99 99 89 87 88 82 67 56
96 93 89 92 90 72 55 70 75 95 97 96 96 98 82 84 80 92 97 81 84 88 89 89 90 93 95 80 65 61 47 54 69 80 70 62 62 100 97 87 92 85 81 67 56
97 97 97 95 85 89 98 85 84 83 88 87 80 93 95 85 74 69 84 96 85 80 92 93 93 93 94 90 68 43 56 37 52 53 51 44 70 92 97 99 100 88 74 61 45
82 92 97 88 92 88 63 64 76 84 87 74 68 87 92 77 79 83 80 80 81 78 93 91 91 99 94 96 96 67 42 48 36 34 44 45 36 40 64 79 80 79 64 42 42

GFSSW_700_rhum_117.txt.gz
RH
90 87 80 74 61 45 35 36 44 47 37 24 11 4 4 3 3 3 3 3 3 4 5 9 12 14 29 40 48 49 46 45 43 41 39 38 36 32 30 30 29 28 30 30 30
87 79 83 82 72 45 24 21 25 36 19 7 4 4 4 4 3 3 3 3 7 6 5 6 7 13 24 40 45 44 44 46 44 46 44 37 37 34 29 29 31 27 28 29 31
80 80 75 75 77 49 27 19 22 20 10 4 4 4 4 4 4 4 6 4 3 4 4 4 4 5 6 6 9 17 15 26 29 35 36 36 36 40 36 29 27 30 29 28 27
95 85 78 69 74 44 22 17 13 8 4 4 4 4 5 5 5 4 4 4 4 4 4 4 4 4 4 5 15 20 21 20 15 16 15 15 17 18 31 35 33 35 36 33 31
78 77 80 74 63 28 12 8 6 4 4 4 4 5 5 5 5 5 5 6 5 4 4 4 4 4 4 4 7 14 10 10 11 7 7 10 12 17 11 10 24 34 38 38 36
79 71 72 70 31 9 5 4 4 4 4 5 5 5 5 6 7 6 6 5 5 5 4 4 4 5 4 4 5 7 11 8 8 6 8 5 6 9 5 9 13 20 26 35 37
69 60 53 20 6 5 5 5 5 6 6 6 6 5 6 6 6 6 5 5 5 5 5 5 6 6 7 8 9 9 10 13 8 9 9 9 6 9 16 17 20 17 18 26 28
15 18 14 7 6 6 8 7 8 7 6 6 5 5 6 6 6 8 7 7 6 6 6 6 6 6 8 9 10 13 18 17 16 13 16 17 14 16 17 15 19 33 48 38 27
9 8 8 9 10 9 11 9 9 8 7 6 6 5 6 8 11 11 10 7 6 4 4 7 10 13 11 10 24 22 28 24 29 25 20 23 11 21 32 28 21 15 13 18 31
13 16 15 13 13 13 14 12 10 9 8 6 6 7 11 11 10 8 6 6 5 6 7 7 18 22 9 30 35 17 27 42 52 34 41 40 15 22 36 33 27 20 21 19 15
20 19 19 17 14 13 15 14 11 10 8 8 7 7 7 7 8 8 7 7 7 9 10 12 18 12 7 16 28 38 39 50 52 45 49 39 30 22 42 33 25 18 25 29 19
22 22 20 18 17 16 14 14 12 10 9 9 8 8 8 8 8 7 9 12 13 13 19 23 23 18 26 40 50 42 50 52 64 59 63 57 39 26 40 35 25 26 31 36 38
23 22 22 19 17 16 15 13 12 10 9 8 8 10 13 11 10 9 11 15 19 21 19 24 35 25 39 45 46 47 63 65 70 69 66 63 42 21 35 43 37 36 38 51 53
24 22 20 17 13 11 9 8 7 7 9 8 12 16 18 16 14 13 11 24 34 18 29 66 47 32 55 64 62 73 68 73 71 68 72 78 74 41 54 51 50 58 60 56 57
10 8 8 7 6 5 5 5 6 7 29 17 19 18 17 18 15 23 19 26 26 28 42 37 42 54 48 37 65 72 73 74 72 72 74 75 79 40 58 62 67 92 91 85 83
5 5 4 4 4 4 4 4 5 12 22 11 23 21 21 18 24 28 25 30 45 57 68 61 62 66 70 74 76 76 78 80 82 80 89 63 69 67 99 99 83 100 100 95 85
8 8 6 6 6 7 7 10 25 22 12 16 17 22 22 27 29 29 31 26 38 59 58 47 57 58 73 84 89 87 81 97 93 98 89 77 74 95 100 87 70 99 100 99 99
6 5 5 4 6 8 38 84 64 7 6 23 22 28 32 38 42 49 45 45 43 44 53 58 64 54 53 58 71 86 94 81 91 91 86 74 68 95 99 96 99 100 98 96 96
8 8 7 6 5 12 49 100 53 12 16 7 22 53 57 57 61 56 58 50 43 41 64 68 73 69 62 61 68 92 99 86 82 95 95 68 97 99 98 96 94 93 93 87 92
12 12 10 9 9 31 84 79 42 28 36 44 22 22 26 40 48 65 58 59 60 57 63 65 72 70 67 75 78 84 80 89 97 91 92 74 89 90 94 97 98 98 97 97 93
20 22 14 15 47 70 99 73 45 34 36 55 75 67 46 58 66 50 56 54 55 58 63 69 75 77 80 78 74 83 90 83 75 79 92 95 82 81 79 79 92 91 82 87 75
87 68 37 33 68 97 91 69 69 58 69 80 55 52 67 69 78 84 67 62 63 64 63 62 79 87 87 81 82 81 72 71 76 96 99 92 81 80 71 63 82 72 60 50 50
97 100 83 58 94 92 74 91 94 74 96 93 75 74 68 62 83 71 72 69 66 69 70 67 75 96 85 83 90 98 98 90 76 74 90 93 80 83 84 82 75 76 70 65 60
100 97 98 90 96 88 95 100 99 92 99 95 75 85 76 76 82 87 75 68 71 67 71 72 76 78 74 61 83 87 90 91 82 94 85 92 85 94 96 82 71 73 74 78 81
98 97 84 93 90 80 82 95 96 96 92 89 94 87 77 90 98 92 96 90 73 70 82 77 82 74 76 82 86 87 98 97 96 79 91 79 79 72 75 90 86 80 88 94 79
97 98 92 91 92 92 100 67 67 63 91 92 93 80 85 90 87 86 81 86 84 90 84 77 88 91 90 91 89 79 91 46 52 75 81 85 91 82 67 73 100 97 94 92 72
92 97 99 87 76 83 72 70 68 85 85 86 88 86 82 66 81 79 96 87 82 79 92 93 95 98 94 89 97 97 73 70 49 59 65 74 71 61 59 64 96 100 99 86 58